<?xml version="1.0" encoding="UTF-8" standalone="no" ?>
<gpx xmlns="http://www.topografix.com/GPX/1/1" xmlns:xsi="http://www.w3.org/2001/XMLSchema-instance" xsi:schemaLocation="http://www.topografix.com/GPX/1/1 http://www.topografix.com/GPX/1/1/gpx.xsd" version="1.1" creator="VisuGPX - https://www.visugpx.com">
  <metadata>
    <name>Pointe de Marcelly</name>
    <desc><![CDATA[Balade de Taninge à Marcelly par le lac du Roy]]></desc>
  </metadata>
  <trk>
    <name><![CDATA[2014-06-09 15:22:33]]></name>
    <trkseg>
      <trkpt lat="46.10816" lon="6.58837">
        <ele>638.45</ele>
        <time>2014-06-09T06:41:51Z</time>
      </trkpt>
      <trkpt lat="46.1082" lon="6.58836">
        <ele>642.78</ele>
        <time>2014-06-09T06:42:17Z</time>
      </trkpt>
      <trkpt lat="46.10816" lon="6.58833">
        <ele>644.7</ele>
        <time>2014-06-09T06:42:33Z</time>
      </trkpt>
      <trkpt lat="46.10818" lon="6.58832">
        <ele>644.7</ele>
        <time>2014-06-09T06:42:46Z</time>
      </trkpt>
      <trkpt lat="46.10816" lon="6.58832">
        <ele>644.22</ele>
        <time>2014-06-09T06:43:01Z</time>
      </trkpt>
      <trkpt lat="46.10816" lon="6.58833">
        <ele>645.18</ele>
        <time>2014-06-09T06:43:14Z</time>
      </trkpt>
      <trkpt lat="46.10817" lon="6.58832">
        <ele>645.66</ele>
        <time>2014-06-09T06:43:25Z</time>
      </trkpt>
      <trkpt lat="46.10816" lon="6.58829">
        <ele>649.99</ele>
        <time>2014-06-09T06:43:45Z</time>
      </trkpt>
      <trkpt lat="46.10819" lon="6.58829">
        <ele>650.95</ele>
        <time>2014-06-09T06:44:05Z</time>
      </trkpt>
      <trkpt lat="46.10819" lon="6.58829">
        <ele>650.47</ele>
        <time>2014-06-09T06:44:32Z</time>
      </trkpt>
      <trkpt lat="46.10819" lon="6.58829">
        <ele>649.51</ele>
        <time>2014-06-09T06:44:53Z</time>
      </trkpt>
      <trkpt lat="46.1082" lon="6.58829">
        <ele>650.47</ele>
        <time>2014-06-09T06:45:18Z</time>
      </trkpt>
      <trkpt lat="46.10819" lon="6.58829">
        <ele>652.39</ele>
        <time>2014-06-09T06:45:38Z</time>
      </trkpt>
      <trkpt lat="46.10816" lon="6.5883">
        <ele>649.99</ele>
        <time>2014-06-09T06:46:02Z</time>
      </trkpt>
      <trkpt lat="46.10816" lon="6.58829">
        <ele>649.03</ele>
        <time>2014-06-09T06:46:25Z</time>
      </trkpt>
      <trkpt lat="46.10811" lon="6.58829">
        <ele>644.7</ele>
        <time>2014-06-09T06:47:02Z</time>
      </trkpt>
      <trkpt lat="46.10813" lon="6.58837">
        <ele>645.66</ele>
        <time>2014-06-09T06:47:22Z</time>
      </trkpt>
      <trkpt lat="46.10814" lon="6.58842">
        <ele>647.1</ele>
        <time>2014-06-09T06:47:55Z</time>
      </trkpt>
      <trkpt lat="46.10813" lon="6.58849">
        <ele>648.07</ele>
        <time>2014-06-09T06:48:10Z</time>
      </trkpt>
      <trkpt lat="46.10813" lon="6.58851">
        <ele>647.59</ele>
        <time>2014-06-09T06:48:11Z</time>
      </trkpt>
      <trkpt lat="46.10814" lon="6.58852">
        <ele>647.59</ele>
        <time>2014-06-09T06:48:12Z</time>
      </trkpt>
      <trkpt lat="46.10814" lon="6.58853">
        <ele>647.59</ele>
        <time>2014-06-09T06:48:13Z</time>
      </trkpt>
      <trkpt lat="46.10815" lon="6.58855">
        <ele>648.07</ele>
        <time>2014-06-09T06:48:14Z</time>
      </trkpt>
      <trkpt lat="46.10816" lon="6.58856">
        <ele>648.07</ele>
        <time>2014-06-09T06:48:15Z</time>
      </trkpt>
      <trkpt lat="46.10816" lon="6.58857">
        <ele>648.55</ele>
        <time>2014-06-09T06:48:16Z</time>
      </trkpt>
      <trkpt lat="46.10816" lon="6.58874">
        <ele>648.55</ele>
        <time>2014-06-09T06:48:28Z</time>
      </trkpt>
      <trkpt lat="46.10808" lon="6.58903">
        <ele>650.95</ele>
        <time>2014-06-09T06:48:43Z</time>
      </trkpt>
      <trkpt lat="46.10807" lon="6.58905">
        <ele>650.95</ele>
        <time>2014-06-09T06:48:44Z</time>
      </trkpt>
      <trkpt lat="46.10807" lon="6.58907">
        <ele>650.95</ele>
        <time>2014-06-09T06:48:45Z</time>
      </trkpt>
      <trkpt lat="46.10807" lon="6.58909">
        <ele>650.47</ele>
        <time>2014-06-09T06:48:46Z</time>
      </trkpt>
      <trkpt lat="46.10802" lon="6.58941">
        <ele>649.51</ele>
        <time>2014-06-09T06:49:00Z</time>
      </trkpt>
      <trkpt lat="46.10802" lon="6.58943">
        <ele>649.99</ele>
        <time>2014-06-09T06:49:01Z</time>
      </trkpt>
      <trkpt lat="46.10802" lon="6.58945">
        <ele>649.99</ele>
        <time>2014-06-09T06:49:02Z</time>
      </trkpt>
      <trkpt lat="46.10804" lon="6.58966">
        <ele>651.43</ele>
        <time>2014-06-09T06:49:17Z</time>
      </trkpt>
      <trkpt lat="46.10806" lon="6.58972">
        <ele>651.91</ele>
        <time>2014-06-09T06:49:21Z</time>
      </trkpt>
      <trkpt lat="46.10805" lon="6.58978">
        <ele>652.87</ele>
        <time>2014-06-09T06:49:25Z</time>
      </trkpt>
      <trkpt lat="46.10805" lon="6.5898">
        <ele>652.87</ele>
        <time>2014-06-09T06:49:26Z</time>
      </trkpt>
      <trkpt lat="46.10805" lon="6.58982">
        <ele>653.35</ele>
        <time>2014-06-09T06:49:27Z</time>
      </trkpt>
      <trkpt lat="46.10806" lon="6.59013">
        <ele>653.35</ele>
        <time>2014-06-09T06:49:40Z</time>
      </trkpt>
      <trkpt lat="46.10805" lon="6.59027">
        <ele>651.91</ele>
        <time>2014-06-09T06:49:46Z</time>
      </trkpt>
      <trkpt lat="46.10802" lon="6.59029">
        <ele>651.91</ele>
        <time>2014-06-09T06:49:47Z</time>
      </trkpt>
      <trkpt lat="46.10791" lon="6.59036">
        <ele>649.99</ele>
        <time>2014-06-09T06:49:57Z</time>
      </trkpt>
      <trkpt lat="46.10791" lon="6.5904">
        <ele>649.51</ele>
        <time>2014-06-09T06:49:59Z</time>
      </trkpt>
      <trkpt lat="46.10793" lon="6.59043">
        <ele>649.99</ele>
        <time>2014-06-09T06:50:03Z</time>
      </trkpt>
      <trkpt lat="46.10806" lon="6.59051">
        <ele>652.87</ele>
        <time>2014-06-09T06:50:15Z</time>
      </trkpt>
      <trkpt lat="46.10807" lon="6.59053">
        <ele>653.35</ele>
        <time>2014-06-09T06:50:16Z</time>
      </trkpt>
      <trkpt lat="46.1081" lon="6.59055">
        <ele>653.35</ele>
        <time>2014-06-09T06:50:19Z</time>
      </trkpt>
      <trkpt lat="46.10834" lon="6.59059">
        <ele>650.47</ele>
        <time>2014-06-09T06:50:38Z</time>
      </trkpt>
      <trkpt lat="46.10859" lon="6.59066">
        <ele>649.03</ele>
        <time>2014-06-09T06:50:56Z</time>
      </trkpt>
      <trkpt lat="46.10885" lon="6.5908">
        <ele>650.47</ele>
        <time>2014-06-09T06:51:13Z</time>
      </trkpt>
      <trkpt lat="46.10901" lon="6.59085">
        <ele>652.87</ele>
        <time>2014-06-09T06:51:28Z</time>
      </trkpt>
      <trkpt lat="46.10901" lon="6.59086">
        <ele>653.35</ele>
        <time>2014-06-09T06:51:29Z</time>
      </trkpt>
      <trkpt lat="46.10916" lon="6.59105">
        <ele>655.76</ele>
        <time>2014-06-09T06:51:43Z</time>
      </trkpt>
      <trkpt lat="46.10917" lon="6.59106">
        <ele>655.76</ele>
        <time>2014-06-09T06:51:44Z</time>
      </trkpt>
      <trkpt lat="46.10935" lon="6.59129">
        <ele>653.83</ele>
        <time>2014-06-09T06:52:02Z</time>
      </trkpt>
      <trkpt lat="46.10949" lon="6.5913">
        <ele>654.8</ele>
        <time>2014-06-09T06:52:14Z</time>
      </trkpt>
      <trkpt lat="46.10959" lon="6.59125">
        <ele>658.16</ele>
        <time>2014-06-09T06:52:28Z</time>
      </trkpt>
      <trkpt lat="46.1096" lon="6.59123">
        <ele>658.16</ele>
        <time>2014-06-09T06:52:29Z</time>
      </trkpt>
      <trkpt lat="46.10961" lon="6.5912">
        <ele>658.64</ele>
        <time>2014-06-09T06:52:30Z</time>
      </trkpt>
      <trkpt lat="46.10961" lon="6.59119">
        <ele>659.12</ele>
        <time>2014-06-09T06:52:31Z</time>
      </trkpt>
      <trkpt lat="46.10973" lon="6.59123">
        <ele>662.01</ele>
        <time>2014-06-09T06:52:40Z</time>
      </trkpt>
      <trkpt lat="46.10975" lon="6.59125">
        <ele>662.01</ele>
        <time>2014-06-09T06:52:41Z</time>
      </trkpt>
      <trkpt lat="46.10977" lon="6.59126">
        <ele>662.49</ele>
        <time>2014-06-09T06:52:42Z</time>
      </trkpt>
      <trkpt lat="46.1099" lon="6.59126">
        <ele>662.97</ele>
        <time>2014-06-09T06:52:54Z</time>
      </trkpt>
      <trkpt lat="46.10991" lon="6.59125">
        <ele>662.97</ele>
        <time>2014-06-09T06:52:55Z</time>
      </trkpt>
      <trkpt lat="46.10992" lon="6.59125">
        <ele>662.97</ele>
        <time>2014-06-09T06:52:56Z</time>
      </trkpt>
      <trkpt lat="46.10994" lon="6.59125">
        <ele>662.97</ele>
        <time>2014-06-09T06:52:57Z</time>
      </trkpt>
      <trkpt lat="46.10996" lon="6.59125">
        <ele>662.97</ele>
        <time>2014-06-09T06:52:58Z</time>
      </trkpt>
      <trkpt lat="46.10998" lon="6.59125">
        <ele>663.45</ele>
        <time>2014-06-09T06:52:59Z</time>
      </trkpt>
      <trkpt lat="46.11" lon="6.59124">
        <ele>663.45</ele>
        <time>2014-06-09T06:53:00Z</time>
      </trkpt>
      <trkpt lat="46.11001" lon="6.59124">
        <ele>663.93</ele>
        <time>2014-06-09T06:53:01Z</time>
      </trkpt>
      <trkpt lat="46.11002" lon="6.59123">
        <ele>663.93</ele>
        <time>2014-06-09T06:53:02Z</time>
      </trkpt>
      <trkpt lat="46.11018" lon="6.59117">
        <ele>666.81</ele>
        <time>2014-06-09T06:53:15Z</time>
      </trkpt>
      <trkpt lat="46.11021" lon="6.59114">
        <ele>668.73</ele>
        <time>2014-06-09T06:53:21Z</time>
      </trkpt>
      <trkpt lat="46.11022" lon="6.59113">
        <ele>669.22</ele>
        <time>2014-06-09T06:53:22Z</time>
      </trkpt>
      <trkpt lat="46.11024" lon="6.59112">
        <ele>669.22</ele>
        <time>2014-06-09T06:53:23Z</time>
      </trkpt>
      <trkpt lat="46.11036" lon="6.59103">
        <ele>673.06</ele>
        <time>2014-06-09T06:53:35Z</time>
      </trkpt>
      <trkpt lat="46.11038" lon="6.59099">
        <ele>674.02</ele>
        <time>2014-06-09T06:53:40Z</time>
      </trkpt>
      <trkpt lat="46.11039" lon="6.59091">
        <ele>674.02</ele>
        <time>2014-06-09T06:53:44Z</time>
      </trkpt>
      <trkpt lat="46.1104" lon="6.5909">
        <ele>674.02</ele>
        <time>2014-06-09T06:53:48Z</time>
      </trkpt>
      <trkpt lat="46.11041" lon="6.59091">
        <ele>673.54</ele>
        <time>2014-06-09T06:53:49Z</time>
      </trkpt>
      <trkpt lat="46.11042" lon="6.59092">
        <ele>673.54</ele>
        <time>2014-06-09T06:53:50Z</time>
      </trkpt>
      <trkpt lat="46.11042" lon="6.59093">
        <ele>673.54</ele>
        <time>2014-06-09T06:53:51Z</time>
      </trkpt>
      <trkpt lat="46.11043" lon="6.59094">
        <ele>674.02</ele>
        <time>2014-06-09T06:53:52Z</time>
      </trkpt>
      <trkpt lat="46.11052" lon="6.59103">
        <ele>674.02</ele>
        <time>2014-06-09T06:54:00Z</time>
      </trkpt>
      <trkpt lat="46.11053" lon="6.59104">
        <ele>674.02</ele>
        <time>2014-06-09T06:54:01Z</time>
      </trkpt>
      <trkpt lat="46.11064" lon="6.59119">
        <ele>674.98</ele>
        <time>2014-06-09T06:54:16Z</time>
      </trkpt>
      <trkpt lat="46.11076" lon="6.59148">
        <ele>676.42</ele>
        <time>2014-06-09T06:54:32Z</time>
      </trkpt>
      <trkpt lat="46.11089" lon="6.59166">
        <ele>677.87</ele>
        <time>2014-06-09T06:54:46Z</time>
      </trkpt>
      <trkpt lat="46.1111" lon="6.5918">
        <ele>677.39</ele>
        <time>2014-06-09T06:55:04Z</time>
      </trkpt>
      <trkpt lat="46.11126" lon="6.5919">
        <ele>679.31</ele>
        <time>2014-06-09T06:55:17Z</time>
      </trkpt>
      <trkpt lat="46.11131" lon="6.59191">
        <ele>680.27</ele>
        <time>2014-06-09T06:55:22Z</time>
      </trkpt>
      <trkpt lat="46.11133" lon="6.59192">
        <ele>680.75</ele>
        <time>2014-06-09T06:55:23Z</time>
      </trkpt>
      <trkpt lat="46.11134" lon="6.59192">
        <ele>680.75</ele>
        <time>2014-06-09T06:55:24Z</time>
      </trkpt>
      <trkpt lat="46.11136" lon="6.59193">
        <ele>680.75</ele>
        <time>2014-06-09T06:55:25Z</time>
      </trkpt>
      <trkpt lat="46.11158" lon="6.59197">
        <ele>682.19</ele>
        <time>2014-06-09T06:55:40Z</time>
      </trkpt>
      <trkpt lat="46.11173" lon="6.59199">
        <ele>683.15</ele>
        <time>2014-06-09T06:55:56Z</time>
      </trkpt>
      <trkpt lat="46.11198" lon="6.59197">
        <ele>684.6</ele>
        <time>2014-06-09T06:56:16Z</time>
      </trkpt>
      <trkpt lat="46.1122" lon="6.59207">
        <ele>689.88</ele>
        <time>2014-06-09T06:56:35Z</time>
      </trkpt>
      <trkpt lat="46.11234" lon="6.59213">
        <ele>693.73</ele>
        <time>2014-06-09T06:56:49Z</time>
      </trkpt>
      <trkpt lat="46.11246" lon="6.59224">
        <ele>697.09</ele>
        <time>2014-06-09T06:57:02Z</time>
      </trkpt>
      <trkpt lat="46.1126" lon="6.59231">
        <ele>700.46</ele>
        <time>2014-06-09T06:57:16Z</time>
      </trkpt>
      <trkpt lat="46.11271" lon="6.59238">
        <ele>704.78</ele>
        <time>2014-06-09T06:57:26Z</time>
      </trkpt>
      <trkpt lat="46.11277" lon="6.59242">
        <ele>708.63</ele>
        <time>2014-06-09T06:57:34Z</time>
      </trkpt>
      <trkpt lat="46.11278" lon="6.59243">
        <ele>709.11</ele>
        <time>2014-06-09T06:57:35Z</time>
      </trkpt>
      <trkpt lat="46.11279" lon="6.59244">
        <ele>709.59</ele>
        <time>2014-06-09T06:57:36Z</time>
      </trkpt>
      <trkpt lat="46.11288" lon="6.59261">
        <ele>714.4</ele>
        <time>2014-06-09T06:57:50Z</time>
      </trkpt>
      <trkpt lat="46.11291" lon="6.59273">
        <ele>720.16</ele>
        <time>2014-06-09T06:58:08Z</time>
      </trkpt>
      <trkpt lat="46.11298" lon="6.5929">
        <ele>724.97</ele>
        <time>2014-06-09T06:58:26Z</time>
      </trkpt>
      <trkpt lat="46.11307" lon="6.59304">
        <ele>729.78</ele>
        <time>2014-06-09T06:58:39Z</time>
      </trkpt>
      <trkpt lat="46.11318" lon="6.59317">
        <ele>732.66</ele>
        <time>2014-06-09T06:58:55Z</time>
      </trkpt>
      <trkpt lat="46.1133" lon="6.59319">
        <ele>734.58</ele>
        <time>2014-06-09T06:59:08Z</time>
      </trkpt>
      <trkpt lat="46.1134" lon="6.59326">
        <ele>735.55</ele>
        <time>2014-06-09T06:59:22Z</time>
      </trkpt>
      <trkpt lat="46.11349" lon="6.59329">
        <ele>738.43</ele>
        <time>2014-06-09T06:59:40Z</time>
      </trkpt>
      <trkpt lat="46.11361" lon="6.59334">
        <ele>740.83</ele>
        <time>2014-06-09T06:59:54Z</time>
      </trkpt>
      <trkpt lat="46.11372" lon="6.5934">
        <ele>741.79</ele>
        <time>2014-06-09T07:00:07Z</time>
      </trkpt>
      <trkpt lat="46.11373" lon="6.59341">
        <ele>742.28</ele>
        <time>2014-06-09T07:00:08Z</time>
      </trkpt>
      <trkpt lat="46.11376" lon="6.59349">
        <ele>746.12</ele>
        <time>2014-06-09T07:00:19Z</time>
      </trkpt>
      <trkpt lat="46.11379" lon="6.59356">
        <ele>750.93</ele>
        <time>2014-06-09T07:00:31Z</time>
      </trkpt>
      <trkpt lat="46.11383" lon="6.59363">
        <ele>755.73</ele>
        <time>2014-06-09T07:00:42Z</time>
      </trkpt>
      <trkpt lat="46.11387" lon="6.59368">
        <ele>761.5</ele>
        <time>2014-06-09T07:00:56Z</time>
      </trkpt>
      <trkpt lat="46.11394" lon="6.59371">
        <ele>767.75</ele>
        <time>2014-06-09T07:01:11Z</time>
      </trkpt>
      <trkpt lat="46.114" lon="6.59378">
        <ele>774</ele>
        <time>2014-06-09T07:01:27Z</time>
      </trkpt>
      <trkpt lat="46.11408" lon="6.59386">
        <ele>778.81</ele>
        <time>2014-06-09T07:01:44Z</time>
      </trkpt>
      <trkpt lat="46.11419" lon="6.59401">
        <ele>779.77</ele>
        <time>2014-06-09T07:01:58Z</time>
      </trkpt>
      <trkpt lat="46.11428" lon="6.59413">
        <ele>781.69</ele>
        <time>2014-06-09T07:02:11Z</time>
      </trkpt>
      <trkpt lat="46.11435" lon="6.5942">
        <ele>782.65</ele>
        <time>2014-06-09T07:02:24Z</time>
      </trkpt>
      <trkpt lat="46.11438" lon="6.5943">
        <ele>783.13</ele>
        <time>2014-06-09T07:02:37Z</time>
      </trkpt>
      <trkpt lat="46.11445" lon="6.59436">
        <ele>785.53</ele>
        <time>2014-06-09T07:02:51Z</time>
      </trkpt>
      <trkpt lat="46.1145" lon="6.59443">
        <ele>787.46</ele>
        <time>2014-06-09T07:02:59Z</time>
      </trkpt>
      <trkpt lat="46.11456" lon="6.59447">
        <ele>790.34</ele>
        <time>2014-06-09T07:03:12Z</time>
      </trkpt>
      <trkpt lat="46.11464" lon="6.59454">
        <ele>792.74</ele>
        <time>2014-06-09T07:03:25Z</time>
      </trkpt>
      <trkpt lat="46.11471" lon="6.59464">
        <ele>793.22</ele>
        <time>2014-06-09T07:03:37Z</time>
      </trkpt>
      <trkpt lat="46.11477" lon="6.59471">
        <ele>795.15</ele>
        <time>2014-06-09T07:03:48Z</time>
      </trkpt>
      <trkpt lat="46.1148" lon="6.59478">
        <ele>797.55</ele>
        <time>2014-06-09T07:03:56Z</time>
      </trkpt>
      <trkpt lat="46.11481" lon="6.5948">
        <ele>798.03</ele>
        <time>2014-06-09T07:03:57Z</time>
      </trkpt>
      <trkpt lat="46.11491" lon="6.59503">
        <ele>795.63</ele>
        <time>2014-06-09T07:04:13Z</time>
      </trkpt>
      <trkpt lat="46.11501" lon="6.59518">
        <ele>795.63</ele>
        <time>2014-06-09T07:04:24Z</time>
      </trkpt>
      <trkpt lat="46.11512" lon="6.59535">
        <ele>797.55</ele>
        <time>2014-06-09T07:04:37Z</time>
      </trkpt>
      <trkpt lat="46.11525" lon="6.59547">
        <ele>798.99</ele>
        <time>2014-06-09T07:04:51Z</time>
      </trkpt>
      <trkpt lat="46.11539" lon="6.59553">
        <ele>805.24</ele>
        <time>2014-06-09T07:05:04Z</time>
      </trkpt>
      <trkpt lat="46.1156" lon="6.59558">
        <ele>807.16</ele>
        <time>2014-06-09T07:05:18Z</time>
      </trkpt>
      <trkpt lat="46.11579" lon="6.5955">
        <ele>805.72</ele>
        <time>2014-06-09T07:05:33Z</time>
      </trkpt>
      <trkpt lat="46.11596" lon="6.59548">
        <ele>807.16</ele>
        <time>2014-06-09T07:05:47Z</time>
      </trkpt>
      <trkpt lat="46.11615" lon="6.5954">
        <ele>807.64</ele>
        <time>2014-06-09T07:05:59Z</time>
      </trkpt>
      <trkpt lat="46.11626" lon="6.59537">
        <ele>810.53</ele>
        <time>2014-06-09T07:06:12Z</time>
      </trkpt>
      <trkpt lat="46.11646" lon="6.59529">
        <ele>811.97</ele>
        <time>2014-06-09T07:06:28Z</time>
      </trkpt>
      <trkpt lat="46.11662" lon="6.59528">
        <ele>811.97</ele>
        <time>2014-06-09T07:06:45Z</time>
      </trkpt>
      <trkpt lat="46.11665" lon="6.59529">
        <ele>812.45</ele>
        <time>2014-06-09T07:06:48Z</time>
      </trkpt>
      <trkpt lat="46.1168" lon="6.59542">
        <ele>816.78</ele>
        <time>2014-06-09T07:07:03Z</time>
      </trkpt>
      <trkpt lat="46.11692" lon="6.59554">
        <ele>821.1</ele>
        <time>2014-06-09T07:07:16Z</time>
      </trkpt>
      <trkpt lat="46.1171" lon="6.59549">
        <ele>825.43</ele>
        <time>2014-06-09T07:07:30Z</time>
      </trkpt>
      <trkpt lat="46.11716" lon="6.59544">
        <ele>828.31</ele>
        <time>2014-06-09T07:07:37Z</time>
      </trkpt>
      <trkpt lat="46.11717" lon="6.59544">
        <ele>828.79</ele>
        <time>2014-06-09T07:07:38Z</time>
      </trkpt>
      <trkpt lat="46.11718" lon="6.59542">
        <ele>828.79</ele>
        <time>2014-06-09T07:07:39Z</time>
      </trkpt>
      <trkpt lat="46.1172" lon="6.59541">
        <ele>829.27</ele>
        <time>2014-06-09T07:07:40Z</time>
      </trkpt>
      <trkpt lat="46.11721" lon="6.5954">
        <ele>829.76</ele>
        <time>2014-06-09T07:07:41Z</time>
      </trkpt>
      <trkpt lat="46.11722" lon="6.59539">
        <ele>829.76</ele>
        <time>2014-06-09T07:07:42Z</time>
      </trkpt>
      <trkpt lat="46.1173" lon="6.59538">
        <ele>832.16</ele>
        <time>2014-06-09T07:07:50Z</time>
      </trkpt>
      <trkpt lat="46.11731" lon="6.59538">
        <ele>832.64</ele>
        <time>2014-06-09T07:07:51Z</time>
      </trkpt>
      <trkpt lat="46.11733" lon="6.59538">
        <ele>833.12</ele>
        <time>2014-06-09T07:07:52Z</time>
      </trkpt>
      <trkpt lat="46.1174" lon="6.59543">
        <ele>833.12</ele>
        <time>2014-06-09T07:08:00Z</time>
      </trkpt>
      <trkpt lat="46.11742" lon="6.59543">
        <ele>833.12</ele>
        <time>2014-06-09T07:08:01Z</time>
      </trkpt>
      <trkpt lat="46.11743" lon="6.59543">
        <ele>833.12</ele>
        <time>2014-06-09T07:08:02Z</time>
      </trkpt>
      <trkpt lat="46.11745" lon="6.59543">
        <ele>833.12</ele>
        <time>2014-06-09T07:08:03Z</time>
      </trkpt>
      <trkpt lat="46.11748" lon="6.59547">
        <ele>835.52</ele>
        <time>2014-06-09T07:08:15Z</time>
      </trkpt>
      <trkpt lat="46.1175" lon="6.59554">
        <ele>836.48</ele>
        <time>2014-06-09T07:08:22Z</time>
      </trkpt>
      <trkpt lat="46.11752" lon="6.59567">
        <ele>837.93</ele>
        <time>2014-06-09T07:08:34Z</time>
      </trkpt>
      <trkpt lat="46.11755" lon="6.59584">
        <ele>838.89</ele>
        <time>2014-06-09T07:08:49Z</time>
      </trkpt>
      <trkpt lat="46.11752" lon="6.59596">
        <ele>840.81</ele>
        <time>2014-06-09T07:09:03Z</time>
      </trkpt>
      <trkpt lat="46.11755" lon="6.59611">
        <ele>844.18</ele>
        <time>2014-06-09T07:09:19Z</time>
      </trkpt>
      <trkpt lat="46.1176" lon="6.59622">
        <ele>848.02</ele>
        <time>2014-06-09T07:09:32Z</time>
      </trkpt>
      <trkpt lat="46.11763" lon="6.59638">
        <ele>850.9</ele>
        <time>2014-06-09T07:09:44Z</time>
      </trkpt>
      <trkpt lat="46.11776" lon="6.59649">
        <ele>852.35</ele>
        <time>2014-06-09T07:09:57Z</time>
      </trkpt>
      <trkpt lat="46.11783" lon="6.59648">
        <ele>857.63</ele>
        <time>2014-06-09T07:10:13Z</time>
      </trkpt>
      <trkpt lat="46.11793" lon="6.59654">
        <ele>863.88</ele>
        <time>2014-06-09T07:10:26Z</time>
      </trkpt>
      <trkpt lat="46.11802" lon="6.59666">
        <ele>870.13</ele>
        <time>2014-06-09T07:10:41Z</time>
      </trkpt>
      <trkpt lat="46.11815" lon="6.59682">
        <ele>873.5</ele>
        <time>2014-06-09T07:10:55Z</time>
      </trkpt>
      <trkpt lat="46.11823" lon="6.59692">
        <ele>877.34</ele>
        <time>2014-06-09T07:11:13Z</time>
      </trkpt>
      <trkpt lat="46.11832" lon="6.59707">
        <ele>880.71</ele>
        <time>2014-06-09T07:11:29Z</time>
      </trkpt>
      <trkpt lat="46.11848" lon="6.59714">
        <ele>879.74</ele>
        <time>2014-06-09T07:11:42Z</time>
      </trkpt>
      <trkpt lat="46.11857" lon="6.59724">
        <ele>884.55</ele>
        <time>2014-06-09T07:11:57Z</time>
      </trkpt>
      <trkpt lat="46.11867" lon="6.59738">
        <ele>883.59</ele>
        <time>2014-06-09T07:12:12Z</time>
      </trkpt>
      <trkpt lat="46.11869" lon="6.59748">
        <ele>885.99</ele>
        <time>2014-06-09T07:12:26Z</time>
      </trkpt>
      <trkpt lat="46.1187" lon="6.59759">
        <ele>891.76</ele>
        <time>2014-06-09T07:12:40Z</time>
      </trkpt>
      <trkpt lat="46.11872" lon="6.59772">
        <ele>896.09</ele>
        <time>2014-06-09T07:12:56Z</time>
      </trkpt>
      <trkpt lat="46.11887" lon="6.59794">
        <ele>898.01</ele>
        <time>2014-06-09T07:13:12Z</time>
      </trkpt>
      <trkpt lat="46.11894" lon="6.59801">
        <ele>897.53</ele>
        <time>2014-06-09T07:13:16Z</time>
      </trkpt>
      <trkpt lat="46.119" lon="6.59803">
        <ele>897.05</ele>
        <time>2014-06-09T07:13:23Z</time>
      </trkpt>
      <trkpt lat="46.11902" lon="6.59804">
        <ele>897.05</ele>
        <time>2014-06-09T07:13:24Z</time>
      </trkpt>
      <trkpt lat="46.11903" lon="6.59804">
        <ele>897.05</ele>
        <time>2014-06-09T07:13:25Z</time>
      </trkpt>
      <trkpt lat="46.11913" lon="6.59811">
        <ele>900.41</ele>
        <time>2014-06-09T07:13:37Z</time>
      </trkpt>
      <trkpt lat="46.1192" lon="6.59816">
        <ele>903.78</ele>
        <time>2014-06-09T07:13:48Z</time>
      </trkpt>
      <trkpt lat="46.11928" lon="6.59818">
        <ele>907.14</ele>
        <time>2014-06-09T07:13:59Z</time>
      </trkpt>
      <trkpt lat="46.11936" lon="6.59819">
        <ele>910.03</ele>
        <time>2014-06-09T07:14:08Z</time>
      </trkpt>
      <trkpt lat="46.11942" lon="6.59823">
        <ele>913.39</ele>
        <time>2014-06-09T07:14:16Z</time>
      </trkpt>
      <trkpt lat="46.11949" lon="6.59831">
        <ele>918.68</ele>
        <time>2014-06-09T07:14:28Z</time>
      </trkpt>
      <trkpt lat="46.11962" lon="6.59838">
        <ele>922.04</ele>
        <time>2014-06-09T07:14:44Z</time>
      </trkpt>
      <trkpt lat="46.1197" lon="6.59848">
        <ele>924.93</ele>
        <time>2014-06-09T07:14:59Z</time>
      </trkpt>
      <trkpt lat="46.11971" lon="6.59849">
        <ele>925.41</ele>
        <time>2014-06-09T07:15:00Z</time>
      </trkpt>
      <trkpt lat="46.1198" lon="6.5986">
        <ele>927.81</ele>
        <time>2014-06-09T07:15:13Z</time>
      </trkpt>
      <trkpt lat="46.11986" lon="6.59876">
        <ele>929.73</ele>
        <time>2014-06-09T07:15:27Z</time>
      </trkpt>
      <trkpt lat="46.11996" lon="6.59891">
        <ele>933.1</ele>
        <time>2014-06-09T07:15:40Z</time>
      </trkpt>
      <trkpt lat="46.12006" lon="6.59906">
        <ele>933.58</ele>
        <time>2014-06-09T07:15:55Z</time>
      </trkpt>
      <trkpt lat="46.1201" lon="6.59911">
        <ele>938.38</ele>
        <time>2014-06-09T07:16:09Z</time>
      </trkpt>
      <trkpt lat="46.12022" lon="6.59916">
        <ele>943.19</ele>
        <time>2014-06-09T07:16:23Z</time>
      </trkpt>
      <trkpt lat="46.12034" lon="6.59923">
        <ele>944.15</ele>
        <time>2014-06-09T07:16:36Z</time>
      </trkpt>
      <trkpt lat="46.12043" lon="6.59932">
        <ele>948.96</ele>
        <time>2014-06-09T07:16:52Z</time>
      </trkpt>
      <trkpt lat="46.12059" lon="6.59939">
        <ele>946.07</ele>
        <time>2014-06-09T07:17:09Z</time>
      </trkpt>
      <trkpt lat="46.12066" lon="6.59951">
        <ele>947.52</ele>
        <time>2014-06-09T07:17:24Z</time>
      </trkpt>
      <trkpt lat="46.1207" lon="6.59959">
        <ele>949.92</ele>
        <time>2014-06-09T07:17:41Z</time>
      </trkpt>
      <trkpt lat="46.12073" lon="6.59963">
        <ele>951.84</ele>
        <time>2014-06-09T07:17:46Z</time>
      </trkpt>
      <trkpt lat="46.1208" lon="6.59978">
        <ele>958.09</ele>
        <time>2014-06-09T07:18:01Z</time>
      </trkpt>
      <trkpt lat="46.12088" lon="6.5999">
        <ele>965.78</ele>
        <time>2014-06-09T07:18:15Z</time>
      </trkpt>
      <trkpt lat="46.12093" lon="6.6">
        <ele>974.91</ele>
        <time>2014-06-09T07:18:30Z</time>
      </trkpt>
      <trkpt lat="46.12096" lon="6.6002">
        <ele>983.09</ele>
        <time>2014-06-09T07:18:45Z</time>
      </trkpt>
      <trkpt lat="46.12098" lon="6.60029">
        <ele>985.01</ele>
        <time>2014-06-09T07:18:49Z</time>
      </trkpt>
      <trkpt lat="46.12099" lon="6.60033">
        <ele>985.49</ele>
        <time>2014-06-09T07:18:50Z</time>
      </trkpt>
      <trkpt lat="46.12107" lon="6.60051">
        <ele>980.68</ele>
        <time>2014-06-09T07:19:02Z</time>
      </trkpt>
      <trkpt lat="46.12115" lon="6.60071">
        <ele>975.88</ele>
        <time>2014-06-09T07:19:17Z</time>
      </trkpt>
      <trkpt lat="46.1213" lon="6.60087">
        <ele>978.28</ele>
        <time>2014-06-09T07:19:33Z</time>
      </trkpt>
      <trkpt lat="46.12142" lon="6.60098">
        <ele>978.76</ele>
        <time>2014-06-09T07:19:48Z</time>
      </trkpt>
      <trkpt lat="46.12146" lon="6.60113">
        <ele>976.84</ele>
        <time>2014-06-09T07:20:05Z</time>
      </trkpt>
      <trkpt lat="46.12157" lon="6.6013">
        <ele>981.16</ele>
        <time>2014-06-09T07:20:20Z</time>
      </trkpt>
      <trkpt lat="46.12164" lon="6.60144">
        <ele>985.01</ele>
        <time>2014-06-09T07:20:35Z</time>
      </trkpt>
      <trkpt lat="46.12173" lon="6.60156">
        <ele>989.81</ele>
        <time>2014-06-09T07:20:52Z</time>
      </trkpt>
      <trkpt lat="46.12186" lon="6.6017">
        <ele>996.06</ele>
        <time>2014-06-09T07:21:10Z</time>
      </trkpt>
      <trkpt lat="46.12196" lon="6.60175">
        <ele>1003.75</ele>
        <time>2014-06-09T07:21:27Z</time>
      </trkpt>
      <trkpt lat="46.122" lon="6.60182">
        <ele>1009.52</ele>
        <time>2014-06-09T07:21:42Z</time>
      </trkpt>
      <trkpt lat="46.12206" lon="6.60191">
        <ele>1010.48</ele>
        <time>2014-06-09T07:21:58Z</time>
      </trkpt>
      <trkpt lat="46.12218" lon="6.6021">
        <ele>1010.48</ele>
        <time>2014-06-09T07:22:14Z</time>
      </trkpt>
      <trkpt lat="46.12229" lon="6.60227">
        <ele>1014.33</ele>
        <time>2014-06-09T07:22:28Z</time>
      </trkpt>
      <trkpt lat="46.12237" lon="6.6024">
        <ele>1019.13</ele>
        <time>2014-06-09T07:22:44Z</time>
      </trkpt>
      <trkpt lat="46.12245" lon="6.60253">
        <ele>1018.65</ele>
        <time>2014-06-09T07:22:59Z</time>
      </trkpt>
      <trkpt lat="46.12253" lon="6.60264">
        <ele>1020.58</ele>
        <time>2014-06-09T07:23:10Z</time>
      </trkpt>
      <trkpt lat="46.12262" lon="6.60278">
        <ele>1022.98</ele>
        <time>2014-06-09T07:23:22Z</time>
      </trkpt>
      <trkpt lat="46.12268" lon="6.60286">
        <ele>1024.42</ele>
        <time>2014-06-09T07:23:34Z</time>
      </trkpt>
      <trkpt lat="46.12273" lon="6.60299">
        <ele>1025.38</ele>
        <time>2014-06-09T07:23:48Z</time>
      </trkpt>
      <trkpt lat="46.12279" lon="6.6031">
        <ele>1027.31</ele>
        <time>2014-06-09T07:24:01Z</time>
      </trkpt>
      <trkpt lat="46.12284" lon="6.60322">
        <ele>1025.86</ele>
        <time>2014-06-09T07:24:15Z</time>
      </trkpt>
      <trkpt lat="46.12293" lon="6.60336">
        <ele>1027.31</ele>
        <time>2014-06-09T07:24:32Z</time>
      </trkpt>
      <trkpt lat="46.12307" lon="6.6035">
        <ele>1030.67</ele>
        <time>2014-06-09T07:24:49Z</time>
      </trkpt>
      <trkpt lat="46.12325" lon="6.60372">
        <ele>1029.23</ele>
        <time>2014-06-09T07:25:07Z</time>
      </trkpt>
      <trkpt lat="46.12337" lon="6.60376">
        <ele>1029.71</ele>
        <time>2014-06-09T07:25:25Z</time>
      </trkpt>
      <trkpt lat="46.12353" lon="6.60368">
        <ele>1030.19</ele>
        <time>2014-06-09T07:25:43Z</time>
      </trkpt>
      <trkpt lat="46.12361" lon="6.6038">
        <ele>1041.25</ele>
        <time>2014-06-09T07:26:00Z</time>
      </trkpt>
      <trkpt lat="46.12373" lon="6.60392">
        <ele>1050.86</ele>
        <time>2014-06-09T07:26:16Z</time>
      </trkpt>
      <trkpt lat="46.12383" lon="6.60395">
        <ele>1054.7</ele>
        <time>2014-06-09T07:26:35Z</time>
      </trkpt>
      <trkpt lat="46.12398" lon="6.60409">
        <ele>1059.51</ele>
        <time>2014-06-09T07:26:54Z</time>
      </trkpt>
      <trkpt lat="46.12406" lon="6.60422">
        <ele>1064.8</ele>
        <time>2014-06-09T07:27:07Z</time>
      </trkpt>
      <trkpt lat="46.12409" lon="6.60432">
        <ele>1071.53</ele>
        <time>2014-06-09T07:27:23Z</time>
      </trkpt>
      <trkpt lat="46.12423" lon="6.60443">
        <ele>1074.41</ele>
        <time>2014-06-09T07:27:40Z</time>
      </trkpt>
      <trkpt lat="46.12434" lon="6.60452">
        <ele>1072.49</ele>
        <time>2014-06-09T07:27:55Z</time>
      </trkpt>
      <trkpt lat="46.12436" lon="6.60462">
        <ele>1074.41</ele>
        <time>2014-06-09T07:28:10Z</time>
      </trkpt>
      <trkpt lat="46.12446" lon="6.60471">
        <ele>1076.81</ele>
        <time>2014-06-09T07:28:27Z</time>
      </trkpt>
      <trkpt lat="46.12459" lon="6.60486">
        <ele>1076.33</ele>
        <time>2014-06-09T07:28:42Z</time>
      </trkpt>
      <trkpt lat="46.12472" lon="6.6049">
        <ele>1079.7</ele>
        <time>2014-06-09T07:28:59Z</time>
      </trkpt>
      <trkpt lat="46.1248" lon="6.60494">
        <ele>1087.39</ele>
        <time>2014-06-09T07:29:16Z</time>
      </trkpt>
      <trkpt lat="46.12501" lon="6.60506">
        <ele>1090.27</ele>
        <time>2014-06-09T07:29:34Z</time>
      </trkpt>
      <trkpt lat="46.12509" lon="6.60509">
        <ele>1089.79</ele>
        <time>2014-06-09T07:29:50Z</time>
      </trkpt>
      <trkpt lat="46.12525" lon="6.60508">
        <ele>1090.75</ele>
        <time>2014-06-09T07:30:07Z</time>
      </trkpt>
      <trkpt lat="46.12532" lon="6.60509">
        <ele>1088.83</ele>
        <time>2014-06-09T07:30:22Z</time>
      </trkpt>
      <trkpt lat="46.12543" lon="6.60508">
        <ele>1093.64</ele>
        <time>2014-06-09T07:30:35Z</time>
      </trkpt>
      <trkpt lat="46.12549" lon="6.60507">
        <ele>1097.96</ele>
        <time>2014-06-09T07:30:49Z</time>
      </trkpt>
      <trkpt lat="46.12558" lon="6.60495">
        <ele>1099.89</ele>
        <time>2014-06-09T07:31:02Z</time>
      </trkpt>
      <trkpt lat="46.12565" lon="6.60495">
        <ele>1098.44</ele>
        <time>2014-06-09T07:31:16Z</time>
      </trkpt>
      <trkpt lat="46.12575" lon="6.6049">
        <ele>1100.37</ele>
        <time>2014-06-09T07:31:32Z</time>
      </trkpt>
      <trkpt lat="46.12587" lon="6.6049">
        <ele>1101.81</ele>
        <time>2014-06-09T07:31:46Z</time>
      </trkpt>
      <trkpt lat="46.12592" lon="6.60487">
        <ele>1101.33</ele>
        <time>2014-06-09T07:31:58Z</time>
      </trkpt>
      <trkpt lat="46.12601" lon="6.60481">
        <ele>1107.58</ele>
        <time>2014-06-09T07:32:10Z</time>
      </trkpt>
      <trkpt lat="46.12609" lon="6.60476">
        <ele>1107.58</ele>
        <time>2014-06-09T07:32:21Z</time>
      </trkpt>
      <trkpt lat="46.12622" lon="6.60469">
        <ele>1109.02</ele>
        <time>2014-06-09T07:32:34Z</time>
      </trkpt>
      <trkpt lat="46.12633" lon="6.6046">
        <ele>1111.9</ele>
        <time>2014-06-09T07:32:47Z</time>
      </trkpt>
      <trkpt lat="46.12645" lon="6.60452">
        <ele>1119.11</ele>
        <time>2014-06-09T07:33:02Z</time>
      </trkpt>
      <trkpt lat="46.12661" lon="6.60445">
        <ele>1125.84</ele>
        <time>2014-06-09T07:33:16Z</time>
      </trkpt>
      <trkpt lat="46.12668" lon="6.60452">
        <ele>1127.28</ele>
        <time>2014-06-09T07:33:30Z</time>
      </trkpt>
      <trkpt lat="46.12676" lon="6.60457">
        <ele>1126.8</ele>
        <time>2014-06-09T07:33:40Z</time>
      </trkpt>
      <trkpt lat="46.12685" lon="6.60464">
        <ele>1125.84</ele>
        <time>2014-06-09T07:33:53Z</time>
      </trkpt>
      <trkpt lat="46.12695" lon="6.60469">
        <ele>1127.28</ele>
        <time>2014-06-09T07:34:06Z</time>
      </trkpt>
      <trkpt lat="46.12702" lon="6.60469">
        <ele>1130.17</ele>
        <time>2014-06-09T07:34:20Z</time>
      </trkpt>
      <trkpt lat="46.12712" lon="6.6047">
        <ele>1131.13</ele>
        <time>2014-06-09T07:34:36Z</time>
      </trkpt>
      <trkpt lat="46.12714" lon="6.6047">
        <ele>1131.13</ele>
        <time>2014-06-09T07:34:39Z</time>
      </trkpt>
      <trkpt lat="46.12722" lon="6.60468">
        <ele>1129.69</ele>
        <time>2014-06-09T07:34:50Z</time>
      </trkpt>
      <trkpt lat="46.12725" lon="6.60476">
        <ele>1133.53</ele>
        <time>2014-06-09T07:35:05Z</time>
      </trkpt>
      <trkpt lat="46.12728" lon="6.60476">
        <ele>1131.61</ele>
        <time>2014-06-09T07:35:25Z</time>
      </trkpt>
      <trkpt lat="46.12739" lon="6.60474">
        <ele>1131.13</ele>
        <time>2014-06-09T07:35:38Z</time>
      </trkpt>
      <trkpt lat="46.12751" lon="6.6047">
        <ele>1130.17</ele>
        <time>2014-06-09T07:35:52Z</time>
      </trkpt>
      <trkpt lat="46.12763" lon="6.6047">
        <ele>1128.73</ele>
        <time>2014-06-09T07:36:07Z</time>
      </trkpt>
      <trkpt lat="46.12769" lon="6.60469">
        <ele>1131.13</ele>
        <time>2014-06-09T07:36:20Z</time>
      </trkpt>
      <trkpt lat="46.12777" lon="6.60468">
        <ele>1129.21</ele>
        <time>2014-06-09T07:36:32Z</time>
      </trkpt>
      <trkpt lat="46.12786" lon="6.6047">
        <ele>1134.97</ele>
        <time>2014-06-09T07:36:48Z</time>
      </trkpt>
      <trkpt lat="46.12793" lon="6.60472">
        <ele>1136.42</ele>
        <time>2014-06-09T07:37:00Z</time>
      </trkpt>
      <trkpt lat="46.12809" lon="6.60463">
        <ele>1137.86</ele>
        <time>2014-06-09T07:37:16Z</time>
      </trkpt>
      <trkpt lat="46.12815" lon="6.60467">
        <ele>1138.34</ele>
        <time>2014-06-09T07:37:29Z</time>
      </trkpt>
      <trkpt lat="46.12828" lon="6.60465">
        <ele>1139.78</ele>
        <time>2014-06-09T07:37:43Z</time>
      </trkpt>
      <trkpt lat="46.12835" lon="6.60468">
        <ele>1141.22</ele>
        <time>2014-06-09T07:37:57Z</time>
      </trkpt>
      <trkpt lat="46.12842" lon="6.60455">
        <ele>1143.63</ele>
        <time>2014-06-09T07:38:14Z</time>
      </trkpt>
      <trkpt lat="46.12849" lon="6.60453">
        <ele>1150.35</ele>
        <time>2014-06-09T07:38:28Z</time>
      </trkpt>
      <trkpt lat="46.12859" lon="6.60462">
        <ele>1151.32</ele>
        <time>2014-06-09T07:38:41Z</time>
      </trkpt>
      <trkpt lat="46.12867" lon="6.60469">
        <ele>1152.28</ele>
        <time>2014-06-09T07:38:56Z</time>
      </trkpt>
      <trkpt lat="46.12881" lon="6.60447">
        <ele>1154.68</ele>
        <time>2014-06-09T07:39:11Z</time>
      </trkpt>
      <trkpt lat="46.12884" lon="6.60446">
        <ele>1154.68</ele>
        <time>2014-06-09T07:39:19Z</time>
      </trkpt>
      <trkpt lat="46.12892" lon="6.60446">
        <ele>1154.68</ele>
        <time>2014-06-09T07:39:32Z</time>
      </trkpt>
      <trkpt lat="46.12897" lon="6.60444">
        <ele>1159.97</ele>
        <time>2014-06-09T07:39:46Z</time>
      </trkpt>
      <trkpt lat="46.12904" lon="6.60444">
        <ele>1165.26</ele>
        <time>2014-06-09T07:39:58Z</time>
      </trkpt>
      <trkpt lat="46.12914" lon="6.60441">
        <ele>1165.74</ele>
        <time>2014-06-09T07:40:10Z</time>
      </trkpt>
      <trkpt lat="46.12914" lon="6.60443">
        <ele>1165.74</ele>
        <time>2014-06-09T07:40:34Z</time>
      </trkpt>
      <trkpt lat="46.12924" lon="6.60436">
        <ele>1168.14</ele>
        <time>2014-06-09T07:40:50Z</time>
      </trkpt>
      <trkpt lat="46.12937" lon="6.60421">
        <ele>1170.54</ele>
        <time>2014-06-09T07:41:04Z</time>
      </trkpt>
      <trkpt lat="46.12943" lon="6.60425">
        <ele>1170.06</ele>
        <time>2014-06-09T07:41:17Z</time>
      </trkpt>
      <trkpt lat="46.12947" lon="6.60425">
        <ele>1171.5</ele>
        <time>2014-06-09T07:41:27Z</time>
      </trkpt>
      <trkpt lat="46.12953" lon="6.60425">
        <ele>1174.39</ele>
        <time>2014-06-09T07:41:38Z</time>
      </trkpt>
      <trkpt lat="46.12959" lon="6.60425">
        <ele>1181.12</ele>
        <time>2014-06-09T07:41:49Z</time>
      </trkpt>
      <trkpt lat="46.12958" lon="6.60407">
        <ele>1183.52</ele>
        <time>2014-06-09T07:42:02Z</time>
      </trkpt>
      <trkpt lat="46.12956" lon="6.60402">
        <ele>1186.4</ele>
        <time>2014-06-09T07:42:17Z</time>
      </trkpt>
      <trkpt lat="46.12948" lon="6.60396">
        <ele>1189.29</ele>
        <time>2014-06-09T07:42:27Z</time>
      </trkpt>
      <trkpt lat="46.12943" lon="6.60396">
        <ele>1188.81</ele>
        <time>2014-06-09T07:42:35Z</time>
      </trkpt>
      <trkpt lat="46.12932" lon="6.60391">
        <ele>1197.94</ele>
        <time>2014-06-09T07:42:47Z</time>
      </trkpt>
      <trkpt lat="46.1293" lon="6.60386">
        <ele>1200.34</ele>
        <time>2014-06-09T07:43:00Z</time>
      </trkpt>
      <trkpt lat="46.1292" lon="6.6038">
        <ele>1202.75</ele>
        <time>2014-06-09T07:43:16Z</time>
      </trkpt>
      <trkpt lat="46.12914" lon="6.6037">
        <ele>1206.11</ele>
        <time>2014-06-09T07:43:31Z</time>
      </trkpt>
      <trkpt lat="46.12907" lon="6.6036">
        <ele>1209.48</ele>
        <time>2014-06-09T07:43:46Z</time>
      </trkpt>
      <trkpt lat="46.12895" lon="6.60361">
        <ele>1208.51</ele>
        <time>2014-06-09T07:44:00Z</time>
      </trkpt>
      <trkpt lat="46.12905" lon="6.60362">
        <ele>1206.59</ele>
        <time>2014-06-09T07:44:16Z</time>
      </trkpt>
      <trkpt lat="46.12912" lon="6.60357">
        <ele>1212.36</ele>
        <time>2014-06-09T07:44:34Z</time>
      </trkpt>
      <trkpt lat="46.12923" lon="6.60359">
        <ele>1217.65</ele>
        <time>2014-06-09T07:44:54Z</time>
      </trkpt>
      <trkpt lat="46.12933" lon="6.6036">
        <ele>1221.97</ele>
        <time>2014-06-09T07:45:09Z</time>
      </trkpt>
      <trkpt lat="46.12944" lon="6.60358">
        <ele>1220.05</ele>
        <time>2014-06-09T07:45:22Z</time>
      </trkpt>
      <trkpt lat="46.12952" lon="6.60362">
        <ele>1222.93</ele>
        <time>2014-06-09T07:45:38Z</time>
      </trkpt>
      <trkpt lat="46.12961" lon="6.60353">
        <ele>1224.86</ele>
        <time>2014-06-09T07:45:49Z</time>
      </trkpt>
      <trkpt lat="46.12968" lon="6.60344">
        <ele>1230.62</ele>
        <time>2014-06-09T07:46:02Z</time>
      </trkpt>
      <trkpt lat="46.12976" lon="6.60343">
        <ele>1237.83</ele>
        <time>2014-06-09T07:46:19Z</time>
      </trkpt>
      <trkpt lat="46.12987" lon="6.60343">
        <ele>1240.24</ele>
        <time>2014-06-09T07:46:33Z</time>
      </trkpt>
      <trkpt lat="46.12996" lon="6.60351">
        <ele>1242.16</ele>
        <time>2014-06-09T07:46:47Z</time>
      </trkpt>
      <trkpt lat="46.13008" lon="6.6034">
        <ele>1248.41</ele>
        <time>2014-06-09T07:47:04Z</time>
      </trkpt>
      <trkpt lat="46.13018" lon="6.60341">
        <ele>1252.25</ele>
        <time>2014-06-09T07:47:18Z</time>
      </trkpt>
      <trkpt lat="46.1303" lon="6.60337">
        <ele>1250.33</ele>
        <time>2014-06-09T07:47:32Z</time>
      </trkpt>
      <trkpt lat="46.1304" lon="6.60341">
        <ele>1254.18</ele>
        <time>2014-06-09T07:47:47Z</time>
      </trkpt>
      <trkpt lat="46.13045" lon="6.60347">
        <ele>1257.06</ele>
        <time>2014-06-09T07:47:58Z</time>
      </trkpt>
      <trkpt lat="46.1305" lon="6.60353">
        <ele>1260.91</ele>
        <time>2014-06-09T07:48:08Z</time>
      </trkpt>
      <trkpt lat="46.13059" lon="6.60358">
        <ele>1259.46</ele>
        <time>2014-06-09T07:48:16Z</time>
      </trkpt>
      <trkpt lat="46.13065" lon="6.60358">
        <ele>1257.54</ele>
        <time>2014-06-09T07:48:21Z</time>
      </trkpt>
      <trkpt lat="46.13078" lon="6.60351">
        <ele>1255.14</ele>
        <time>2014-06-09T07:48:32Z</time>
      </trkpt>
      <trkpt lat="46.13086" lon="6.60343">
        <ele>1254.18</ele>
        <time>2014-06-09T07:48:44Z</time>
      </trkpt>
      <trkpt lat="46.13089" lon="6.60321">
        <ele>1255.62</ele>
        <time>2014-06-09T07:48:54Z</time>
      </trkpt>
      <trkpt lat="46.13097" lon="6.60315">
        <ele>1260.91</ele>
        <time>2014-06-09T07:49:06Z</time>
      </trkpt>
      <trkpt lat="46.13103" lon="6.60322">
        <ele>1261.87</ele>
        <time>2014-06-09T07:49:17Z</time>
      </trkpt>
      <trkpt lat="46.13109" lon="6.60325">
        <ele>1261.87</ele>
        <time>2014-06-09T07:49:27Z</time>
      </trkpt>
      <trkpt lat="46.13117" lon="6.60318">
        <ele>1261.39</ele>
        <time>2014-06-09T07:49:39Z</time>
      </trkpt>
      <trkpt lat="46.13119" lon="6.60317">
        <ele>1260.91</ele>
        <time>2014-06-09T07:49:41Z</time>
      </trkpt>
      <trkpt lat="46.13128" lon="6.60312">
        <ele>1261.39</ele>
        <time>2014-06-09T07:49:52Z</time>
      </trkpt>
      <trkpt lat="46.13133" lon="6.6031">
        <ele>1262.35</ele>
        <time>2014-06-09T07:50:02Z</time>
      </trkpt>
      <trkpt lat="46.13138" lon="6.60307">
        <ele>1262.35</ele>
        <time>2014-06-09T07:50:11Z</time>
      </trkpt>
      <trkpt lat="46.13146" lon="6.60299">
        <ele>1264.27</ele>
        <time>2014-06-09T07:50:22Z</time>
      </trkpt>
      <trkpt lat="46.13151" lon="6.60296">
        <ele>1266.67</ele>
        <time>2014-06-09T07:50:31Z</time>
      </trkpt>
      <trkpt lat="46.13155" lon="6.60291">
        <ele>1272.44</ele>
        <time>2014-06-09T07:50:46Z</time>
      </trkpt>
      <trkpt lat="46.13159" lon="6.60286">
        <ele>1275.81</ele>
        <time>2014-06-09T07:50:56Z</time>
      </trkpt>
      <trkpt lat="46.13168" lon="6.60283">
        <ele>1278.21</ele>
        <time>2014-06-09T07:51:07Z</time>
      </trkpt>
      <trkpt lat="46.13178" lon="6.60262">
        <ele>1282.54</ele>
        <time>2014-06-09T07:51:21Z</time>
      </trkpt>
      <trkpt lat="46.13191" lon="6.60257">
        <ele>1283.5</ele>
        <time>2014-06-09T07:51:36Z</time>
      </trkpt>
      <trkpt lat="46.13201" lon="6.6025">
        <ele>1285.42</ele>
        <time>2014-06-09T07:51:50Z</time>
      </trkpt>
      <trkpt lat="46.13211" lon="6.6024">
        <ele>1286.86</ele>
        <time>2014-06-09T07:52:01Z</time>
      </trkpt>
      <trkpt lat="46.13222" lon="6.60235">
        <ele>1293.59</ele>
        <time>2014-06-09T07:52:15Z</time>
      </trkpt>
      <trkpt lat="46.13229" lon="6.60225">
        <ele>1297.44</ele>
        <time>2014-06-09T07:52:24Z</time>
      </trkpt>
      <trkpt lat="46.13239" lon="6.60216">
        <ele>1299.84</ele>
        <time>2014-06-09T07:52:35Z</time>
      </trkpt>
      <trkpt lat="46.13246" lon="6.60211">
        <ele>1298.4</ele>
        <time>2014-06-09T07:52:47Z</time>
      </trkpt>
      <trkpt lat="46.13253" lon="6.60207">
        <ele>1299.36</ele>
        <time>2014-06-09T07:52:52Z</time>
      </trkpt>
      <trkpt lat="46.13264" lon="6.60186">
        <ele>1301.28</ele>
        <time>2014-06-09T07:53:06Z</time>
      </trkpt>
      <trkpt lat="46.13277" lon="6.60179">
        <ele>1305.13</ele>
        <time>2014-06-09T07:53:19Z</time>
      </trkpt>
      <trkpt lat="46.13292" lon="6.60163">
        <ele>1306.09</ele>
        <time>2014-06-09T07:53:33Z</time>
      </trkpt>
      <trkpt lat="46.1331" lon="6.60148">
        <ele>1308.01</ele>
        <time>2014-06-09T07:53:45Z</time>
      </trkpt>
      <trkpt lat="46.13321" lon="6.60138">
        <ele>1308.49</ele>
        <time>2014-06-09T07:53:59Z</time>
      </trkpt>
      <trkpt lat="46.13324" lon="6.60131">
        <ele>1309.45</ele>
        <time>2014-06-09T07:54:16Z</time>
      </trkpt>
      <trkpt lat="46.13324" lon="6.60131">
        <ele>1310.41</ele>
        <time>2014-06-09T07:54:38Z</time>
      </trkpt>
      <trkpt lat="46.13321" lon="6.60136">
        <ele>1310.41</ele>
        <time>2014-06-09T07:55:15Z</time>
      </trkpt>
      <trkpt lat="46.13331" lon="6.60135">
        <ele>1310.9</ele>
        <time>2014-06-09T07:55:27Z</time>
      </trkpt>
      <trkpt lat="46.13348" lon="6.60129">
        <ele>1310.9</ele>
        <time>2014-06-09T07:55:39Z</time>
      </trkpt>
      <trkpt lat="46.1336" lon="6.60117">
        <ele>1308.97</ele>
        <time>2014-06-09T07:55:52Z</time>
      </trkpt>
      <trkpt lat="46.13369" lon="6.60099">
        <ele>1308.97</ele>
        <time>2014-06-09T07:56:03Z</time>
      </trkpt>
      <trkpt lat="46.13373" lon="6.60084">
        <ele>1311.86</ele>
        <time>2014-06-09T07:56:10Z</time>
      </trkpt>
      <trkpt lat="46.13384" lon="6.60075">
        <ele>1313.3</ele>
        <time>2014-06-09T07:56:21Z</time>
      </trkpt>
      <trkpt lat="46.13395" lon="6.6006">
        <ele>1313.3</ele>
        <time>2014-06-09T07:56:32Z</time>
      </trkpt>
      <trkpt lat="46.13406" lon="6.60046">
        <ele>1313.3</ele>
        <time>2014-06-09T07:56:45Z</time>
      </trkpt>
      <trkpt lat="46.13408" lon="6.6004">
        <ele>1313.3</ele>
        <time>2014-06-09T07:56:49Z</time>
      </trkpt>
      <trkpt lat="46.13409" lon="6.60038">
        <ele>1313.3</ele>
        <time>2014-06-09T07:56:50Z</time>
      </trkpt>
      <trkpt lat="46.1341" lon="6.60035">
        <ele>1313.3</ele>
        <time>2014-06-09T07:56:51Z</time>
      </trkpt>
      <trkpt lat="46.13414" lon="6.60016">
        <ele>1313.78</ele>
        <time>2014-06-09T07:57:03Z</time>
      </trkpt>
      <trkpt lat="46.13415" lon="6.60015">
        <ele>1313.3</ele>
        <time>2014-06-09T07:57:06Z</time>
      </trkpt>
      <trkpt lat="46.13421" lon="6.60007">
        <ele>1313.78</ele>
        <time>2014-06-09T07:57:15Z</time>
      </trkpt>
      <trkpt lat="46.13422" lon="6.60006">
        <ele>1313.78</ele>
        <time>2014-06-09T07:57:16Z</time>
      </trkpt>
      <trkpt lat="46.13423" lon="6.60004">
        <ele>1313.78</ele>
        <time>2014-06-09T07:57:17Z</time>
      </trkpt>
      <trkpt lat="46.13424" lon="6.60002">
        <ele>1313.3</ele>
        <time>2014-06-09T07:57:18Z</time>
      </trkpt>
      <trkpt lat="46.13426" lon="6.60001">
        <ele>1313.3</ele>
        <time>2014-06-09T07:57:19Z</time>
      </trkpt>
      <trkpt lat="46.13427" lon="6.59999">
        <ele>1313.3</ele>
        <time>2014-06-09T07:57:20Z</time>
      </trkpt>
      <trkpt lat="46.13429" lon="6.59997">
        <ele>1313.3</ele>
        <time>2014-06-09T07:57:21Z</time>
      </trkpt>
      <trkpt lat="46.13442" lon="6.59984">
        <ele>1313.78</ele>
        <time>2014-06-09T07:57:33Z</time>
      </trkpt>
      <trkpt lat="46.13457" lon="6.59962">
        <ele>1314.74</ele>
        <time>2014-06-09T07:57:47Z</time>
      </trkpt>
      <trkpt lat="46.13465" lon="6.59949">
        <ele>1315.22</ele>
        <time>2014-06-09T07:57:58Z</time>
      </trkpt>
      <trkpt lat="46.13467" lon="6.59948">
        <ele>1315.22</ele>
        <time>2014-06-09T07:57:59Z</time>
      </trkpt>
      <trkpt lat="46.1348" lon="6.59934">
        <ele>1316.18</ele>
        <time>2014-06-09T07:58:11Z</time>
      </trkpt>
      <trkpt lat="46.13481" lon="6.59934">
        <ele>1317.14</ele>
        <time>2014-06-09T07:58:18Z</time>
      </trkpt>
      <trkpt lat="46.13482" lon="6.59933">
        <ele>1317.14</ele>
        <time>2014-06-09T07:58:19Z</time>
      </trkpt>
      <trkpt lat="46.13482" lon="6.59931">
        <ele>1317.14</ele>
        <time>2014-06-09T07:58:20Z</time>
      </trkpt>
      <trkpt lat="46.1349" lon="6.59917">
        <ele>1316.66</ele>
        <time>2014-06-09T07:58:31Z</time>
      </trkpt>
      <trkpt lat="46.13498" lon="6.599">
        <ele>1316.18</ele>
        <time>2014-06-09T07:58:43Z</time>
      </trkpt>
      <trkpt lat="46.13506" lon="6.59877">
        <ele>1318.1</ele>
        <time>2014-06-09T07:58:55Z</time>
      </trkpt>
      <trkpt lat="46.13511" lon="6.5986">
        <ele>1320.99</ele>
        <time>2014-06-09T07:59:06Z</time>
      </trkpt>
      <trkpt lat="46.13519" lon="6.59847">
        <ele>1324.83</ele>
        <time>2014-06-09T07:59:16Z</time>
      </trkpt>
      <trkpt lat="46.13525" lon="6.59839">
        <ele>1324.83</ele>
        <time>2014-06-09T07:59:31Z</time>
      </trkpt>
      <trkpt lat="46.13533" lon="6.59819">
        <ele>1324.35</ele>
        <time>2014-06-09T07:59:43Z</time>
      </trkpt>
      <trkpt lat="46.1354" lon="6.59802">
        <ele>1325.31</ele>
        <time>2014-06-09T07:59:54Z</time>
      </trkpt>
      <trkpt lat="46.13541" lon="6.598">
        <ele>1326.28</ele>
        <time>2014-06-09T07:59:57Z</time>
      </trkpt>
      <trkpt lat="46.13543" lon="6.59797">
        <ele>1326.76</ele>
        <time>2014-06-09T07:59:59Z</time>
      </trkpt>
      <trkpt lat="46.13544" lon="6.59795">
        <ele>1327.24</ele>
        <time>2014-06-09T08:00:00Z</time>
      </trkpt>
      <trkpt lat="46.13545" lon="6.59793">
        <ele>1327.72</ele>
        <time>2014-06-09T08:00:01Z</time>
      </trkpt>
      <trkpt lat="46.13546" lon="6.5979">
        <ele>1328.2</ele>
        <time>2014-06-09T08:00:02Z</time>
      </trkpt>
      <trkpt lat="46.13548" lon="6.59788">
        <ele>1328.68</ele>
        <time>2014-06-09T08:00:03Z</time>
      </trkpt>
      <trkpt lat="46.13549" lon="6.59785">
        <ele>1328.68</ele>
        <time>2014-06-09T08:00:04Z</time>
      </trkpt>
      <trkpt lat="46.13556" lon="6.59769">
        <ele>1331.56</ele>
        <time>2014-06-09T08:00:16Z</time>
      </trkpt>
      <trkpt lat="46.13565" lon="6.59748">
        <ele>1333.97</ele>
        <time>2014-06-09T08:00:29Z</time>
      </trkpt>
      <trkpt lat="46.13571" lon="6.59733">
        <ele>1334.93</ele>
        <time>2014-06-09T08:00:39Z</time>
      </trkpt>
      <trkpt lat="46.13576" lon="6.59716">
        <ele>1334.45</ele>
        <time>2014-06-09T08:00:50Z</time>
      </trkpt>
      <trkpt lat="46.13577" lon="6.59709">
        <ele>1334.93</ele>
        <time>2014-06-09T08:01:01Z</time>
      </trkpt>
      <trkpt lat="46.13597" lon="6.59676">
        <ele>1336.37</ele>
        <time>2014-06-09T08:01:30Z</time>
      </trkpt>
      <trkpt lat="46.13606" lon="6.59657">
        <ele>1337.81</ele>
        <time>2014-06-09T08:01:42Z</time>
      </trkpt>
      <trkpt lat="46.1361" lon="6.59646">
        <ele>1339.73</ele>
        <time>2014-06-09T08:01:54Z</time>
      </trkpt>
      <trkpt lat="46.13615" lon="6.59637">
        <ele>1342.14</ele>
        <time>2014-06-09T08:02:14Z</time>
      </trkpt>
      <trkpt lat="46.13619" lon="6.59615">
        <ele>1344.06</ele>
        <time>2014-06-09T08:02:29Z</time>
      </trkpt>
      <trkpt lat="46.13622" lon="6.59602">
        <ele>1345.5</ele>
        <time>2014-06-09T08:02:41Z</time>
      </trkpt>
      <trkpt lat="46.13627" lon="6.59606">
        <ele>1346.46</ele>
        <time>2014-06-09T08:03:01Z</time>
      </trkpt>
      <trkpt lat="46.1363" lon="6.59602">
        <ele>1344.54</ele>
        <time>2014-06-09T08:03:29Z</time>
      </trkpt>
      <trkpt lat="46.13628" lon="6.59597">
        <ele>1347.43</ele>
        <time>2014-06-09T08:03:44Z</time>
      </trkpt>
      <trkpt lat="46.13626" lon="6.59595">
        <ele>1348.39</ele>
        <time>2014-06-09T08:03:58Z</time>
      </trkpt>
      <trkpt lat="46.13626" lon="6.59581">
        <ele>1350.31</ele>
        <time>2014-06-09T08:04:09Z</time>
      </trkpt>
      <trkpt lat="46.13624" lon="6.59579">
        <ele>1351.75</ele>
        <time>2014-06-09T08:04:30Z</time>
      </trkpt>
      <trkpt lat="46.13623" lon="6.59579">
        <ele>1350.31</ele>
        <time>2014-06-09T08:04:55Z</time>
      </trkpt>
      <trkpt lat="46.13623" lon="6.59582">
        <ele>1352.23</ele>
        <time>2014-06-09T08:05:30Z</time>
      </trkpt>
      <trkpt lat="46.13623" lon="6.59583">
        <ele>1352.71</ele>
        <time>2014-06-09T08:06:03Z</time>
      </trkpt>
      <trkpt lat="46.13621" lon="6.59582">
        <ele>1353.67</ele>
        <time>2014-06-09T08:06:28Z</time>
      </trkpt>
      <trkpt lat="46.13622" lon="6.59581">
        <ele>1351.27</ele>
        <time>2014-06-09T08:06:56Z</time>
      </trkpt>
      <trkpt lat="46.13622" lon="6.59579">
        <ele>1351.27</ele>
        <time>2014-06-09T08:07:32Z</time>
      </trkpt>
      <trkpt lat="46.13623" lon="6.5958">
        <ele>1353.67</ele>
        <time>2014-06-09T08:07:52Z</time>
      </trkpt>
      <trkpt lat="46.1362" lon="6.59582">
        <ele>1355.6</ele>
        <time>2014-06-09T08:08:22Z</time>
      </trkpt>
      <trkpt lat="46.13619" lon="6.5958">
        <ele>1356.56</ele>
        <time>2014-06-09T08:08:54Z</time>
      </trkpt>
      <trkpt lat="46.13626" lon="6.59583">
        <ele>1352.23</ele>
        <time>2014-06-09T08:09:35Z</time>
      </trkpt>
      <trkpt lat="46.13628" lon="6.59584">
        <ele>1349.83</ele>
        <time>2014-06-09T08:10:15Z</time>
      </trkpt>
      <trkpt lat="46.13624" lon="6.59584">
        <ele>1354.15</ele>
        <time>2014-06-09T08:10:46Z</time>
      </trkpt>
      <trkpt lat="46.13624" lon="6.59583">
        <ele>1357.52</ele>
        <time>2014-06-09T08:11:12Z</time>
      </trkpt>
      <trkpt lat="46.13622" lon="6.59581">
        <ele>1352.71</ele>
        <time>2014-06-09T08:11:47Z</time>
      </trkpt>
      <trkpt lat="46.13623" lon="6.59581">
        <ele>1348.87</ele>
        <time>2014-06-09T08:12:16Z</time>
      </trkpt>
      <trkpt lat="46.13622" lon="6.59582">
        <ele>1349.83</ele>
        <time>2014-06-09T08:12:57Z</time>
      </trkpt>
      <trkpt lat="46.13622" lon="6.59581">
        <ele>1349.35</ele>
        <time>2014-06-09T08:13:32Z</time>
      </trkpt>
      <trkpt lat="46.13624" lon="6.59585">
        <ele>1350.79</ele>
        <time>2014-06-09T08:14:05Z</time>
      </trkpt>
      <trkpt lat="46.13623" lon="6.59583">
        <ele>1350.31</ele>
        <time>2014-06-09T08:14:41Z</time>
      </trkpt>
      <trkpt lat="46.13624" lon="6.59584">
        <ele>1345.98</ele>
        <time>2014-06-09T08:15:19Z</time>
      </trkpt>
      <trkpt lat="46.13625" lon="6.5958">
        <ele>1344.54</ele>
        <time>2014-06-09T08:15:43Z</time>
      </trkpt>
      <trkpt lat="46.13632" lon="6.59582">
        <ele>1345.5</ele>
        <time>2014-06-09T08:15:57Z</time>
      </trkpt>
      <trkpt lat="46.13635" lon="6.59573">
        <ele>1349.35</ele>
        <time>2014-06-09T08:16:18Z</time>
      </trkpt>
      <trkpt lat="46.13636" lon="6.5957">
        <ele>1349.83</ele>
        <time>2014-06-09T08:16:21Z</time>
      </trkpt>
      <trkpt lat="46.13638" lon="6.5956">
        <ele>1353.19</ele>
        <time>2014-06-09T08:16:32Z</time>
      </trkpt>
      <trkpt lat="46.13644" lon="6.59552">
        <ele>1355.12</ele>
        <time>2014-06-09T08:16:44Z</time>
      </trkpt>
      <trkpt lat="46.13648" lon="6.59544">
        <ele>1358</ele>
        <time>2014-06-09T08:16:56Z</time>
      </trkpt>
      <trkpt lat="46.13653" lon="6.59536">
        <ele>1360.4</ele>
        <time>2014-06-09T08:17:09Z</time>
      </trkpt>
      <trkpt lat="46.13658" lon="6.59526">
        <ele>1363.29</ele>
        <time>2014-06-09T08:17:23Z</time>
      </trkpt>
      <trkpt lat="46.13662" lon="6.59518">
        <ele>1365.21</ele>
        <time>2014-06-09T08:17:35Z</time>
      </trkpt>
      <trkpt lat="46.13666" lon="6.59507">
        <ele>1369.05</ele>
        <time>2014-06-09T08:17:50Z</time>
      </trkpt>
      <trkpt lat="46.13671" lon="6.59497">
        <ele>1372.9</ele>
        <time>2014-06-09T08:18:04Z</time>
      </trkpt>
      <trkpt lat="46.13675" lon="6.59485">
        <ele>1377.71</ele>
        <time>2014-06-09T08:18:22Z</time>
      </trkpt>
      <trkpt lat="46.13681" lon="6.59476">
        <ele>1380.11</ele>
        <time>2014-06-09T08:18:34Z</time>
      </trkpt>
      <trkpt lat="46.13685" lon="6.59469">
        <ele>1384.44</ele>
        <time>2014-06-09T08:18:48Z</time>
      </trkpt>
      <trkpt lat="46.13691" lon="6.5946">
        <ele>1387.8</ele>
        <time>2014-06-09T08:19:01Z</time>
      </trkpt>
      <trkpt lat="46.13699" lon="6.59447">
        <ele>1388.76</ele>
        <time>2014-06-09T08:19:14Z</time>
      </trkpt>
      <trkpt lat="46.13704" lon="6.59434">
        <ele>1389.24</ele>
        <time>2014-06-09T08:19:25Z</time>
      </trkpt>
      <trkpt lat="46.13707" lon="6.59426">
        <ele>1390.2</ele>
        <time>2014-06-09T08:19:35Z</time>
      </trkpt>
      <trkpt lat="46.13712" lon="6.59412">
        <ele>1391.65</ele>
        <time>2014-06-09T08:19:50Z</time>
      </trkpt>
      <trkpt lat="46.13718" lon="6.59403">
        <ele>1393.09</ele>
        <time>2014-06-09T08:20:02Z</time>
      </trkpt>
      <trkpt lat="46.13724" lon="6.59393">
        <ele>1394.53</ele>
        <time>2014-06-09T08:20:12Z</time>
      </trkpt>
      <trkpt lat="46.1373" lon="6.59384">
        <ele>1395.97</ele>
        <time>2014-06-09T08:20:22Z</time>
      </trkpt>
      <trkpt lat="46.13732" lon="6.59381">
        <ele>1395.97</ele>
        <time>2014-06-09T08:20:25Z</time>
      </trkpt>
      <trkpt lat="46.13742" lon="6.5937">
        <ele>1403.66</ele>
        <time>2014-06-09T08:20:38Z</time>
      </trkpt>
      <trkpt lat="46.13744" lon="6.59367">
        <ele>1405.58</ele>
        <time>2014-06-09T08:20:41Z</time>
      </trkpt>
      <trkpt lat="46.13757" lon="6.5936">
        <ele>1406.55</ele>
        <time>2014-06-09T08:20:54Z</time>
      </trkpt>
      <trkpt lat="46.1376" lon="6.59358">
        <ele>1406.07</ele>
        <time>2014-06-09T08:20:58Z</time>
      </trkpt>
      <trkpt lat="46.13761" lon="6.59357">
        <ele>1406.07</ele>
        <time>2014-06-09T08:20:59Z</time>
      </trkpt>
      <trkpt lat="46.13771" lon="6.59348">
        <ele>1406.55</ele>
        <time>2014-06-09T08:21:09Z</time>
      </trkpt>
      <trkpt lat="46.1378" lon="6.59339">
        <ele>1407.99</ele>
        <time>2014-06-09T08:21:19Z</time>
      </trkpt>
      <trkpt lat="46.13791" lon="6.59327">
        <ele>1411.35</ele>
        <time>2014-06-09T08:21:33Z</time>
      </trkpt>
      <trkpt lat="46.13799" lon="6.59313">
        <ele>1414.24</ele>
        <time>2014-06-09T08:21:45Z</time>
      </trkpt>
      <trkpt lat="46.13809" lon="6.593">
        <ele>1417.12</ele>
        <time>2014-06-09T08:21:55Z</time>
      </trkpt>
      <trkpt lat="46.13817" lon="6.59293">
        <ele>1420</ele>
        <time>2014-06-09T08:22:06Z</time>
      </trkpt>
      <trkpt lat="46.13818" lon="6.59292">
        <ele>1420</ele>
        <time>2014-06-09T08:22:07Z</time>
      </trkpt>
      <trkpt lat="46.1382" lon="6.59289">
        <ele>1420</ele>
        <time>2014-06-09T08:22:09Z</time>
      </trkpt>
      <trkpt lat="46.13827" lon="6.59283">
        <ele>1420.49</ele>
        <time>2014-06-09T08:22:20Z</time>
      </trkpt>
      <trkpt lat="46.13838" lon="6.59277">
        <ele>1420</ele>
        <time>2014-06-09T08:22:33Z</time>
      </trkpt>
      <trkpt lat="46.1384" lon="6.59276">
        <ele>1420</ele>
        <time>2014-06-09T08:22:34Z</time>
      </trkpt>
      <trkpt lat="46.13841" lon="6.59276">
        <ele>1419.52</ele>
        <time>2014-06-09T08:22:35Z</time>
      </trkpt>
      <trkpt lat="46.13854" lon="6.59261">
        <ele>1418.08</ele>
        <time>2014-06-09T08:22:48Z</time>
      </trkpt>
      <trkpt lat="46.13863" lon="6.59249">
        <ele>1417.6</ele>
        <time>2014-06-09T08:22:59Z</time>
      </trkpt>
      <trkpt lat="46.13873" lon="6.59234">
        <ele>1417.12</ele>
        <time>2014-06-09T08:23:12Z</time>
      </trkpt>
      <trkpt lat="46.13883" lon="6.59223">
        <ele>1417.12</ele>
        <time>2014-06-09T08:23:23Z</time>
      </trkpt>
      <trkpt lat="46.1389" lon="6.59216">
        <ele>1420.97</ele>
        <time>2014-06-09T08:23:33Z</time>
      </trkpt>
      <trkpt lat="46.13899" lon="6.59207">
        <ele>1421.93</ele>
        <time>2014-06-09T08:23:43Z</time>
      </trkpt>
      <trkpt lat="46.13913" lon="6.59194">
        <ele>1423.85</ele>
        <time>2014-06-09T08:23:56Z</time>
      </trkpt>
      <trkpt lat="46.13924" lon="6.59184">
        <ele>1426.25</ele>
        <time>2014-06-09T08:24:07Z</time>
      </trkpt>
      <trkpt lat="46.13935" lon="6.5917">
        <ele>1427.7</ele>
        <time>2014-06-09T08:24:18Z</time>
      </trkpt>
      <trkpt lat="46.13947" lon="6.59155">
        <ele>1430.58</ele>
        <time>2014-06-09T08:24:32Z</time>
      </trkpt>
      <trkpt lat="46.13957" lon="6.59142">
        <ele>1432.98</ele>
        <time>2014-06-09T08:24:45Z</time>
      </trkpt>
      <trkpt lat="46.13965" lon="6.59131">
        <ele>1434.91</ele>
        <time>2014-06-09T08:24:56Z</time>
      </trkpt>
      <trkpt lat="46.13974" lon="6.59121">
        <ele>1438.27</ele>
        <time>2014-06-09T08:25:07Z</time>
      </trkpt>
      <trkpt lat="46.13976" lon="6.59119">
        <ele>1438.75</ele>
        <time>2014-06-09T08:25:08Z</time>
      </trkpt>
      <trkpt lat="46.13977" lon="6.59118">
        <ele>1439.23</ele>
        <time>2014-06-09T08:25:09Z</time>
      </trkpt>
      <trkpt lat="46.13988" lon="6.59101">
        <ele>1442.6</ele>
        <time>2014-06-09T08:25:22Z</time>
      </trkpt>
      <trkpt lat="46.14" lon="6.59085">
        <ele>1445</ele>
        <time>2014-06-09T08:25:35Z</time>
      </trkpt>
      <trkpt lat="46.14015" lon="6.59068">
        <ele>1447.88</ele>
        <time>2014-06-09T08:25:48Z</time>
      </trkpt>
      <trkpt lat="46.14026" lon="6.59057">
        <ele>1449.32</ele>
        <time>2014-06-09T08:26:01Z</time>
      </trkpt>
      <trkpt lat="46.14036" lon="6.59045">
        <ele>1451.25</ele>
        <time>2014-06-09T08:26:13Z</time>
      </trkpt>
      <trkpt lat="46.1405" lon="6.59033">
        <ele>1454.13</ele>
        <time>2014-06-09T08:26:26Z</time>
      </trkpt>
      <trkpt lat="46.14053" lon="6.59031">
        <ele>1455.57</ele>
        <time>2014-06-09T08:26:31Z</time>
      </trkpt>
      <trkpt lat="46.14054" lon="6.59029">
        <ele>1455.57</ele>
        <time>2014-06-09T08:26:32Z</time>
      </trkpt>
      <trkpt lat="46.14064" lon="6.5902">
        <ele>1457.02</ele>
        <time>2014-06-09T08:26:42Z</time>
      </trkpt>
      <trkpt lat="46.14073" lon="6.59011">
        <ele>1458.46</ele>
        <time>2014-06-09T08:26:53Z</time>
      </trkpt>
      <trkpt lat="46.14084" lon="6.59003">
        <ele>1460.86</ele>
        <time>2014-06-09T08:27:03Z</time>
      </trkpt>
      <trkpt lat="46.14096" lon="6.58995">
        <ele>1463.74</ele>
        <time>2014-06-09T08:27:15Z</time>
      </trkpt>
      <trkpt lat="46.14093" lon="6.58996">
        <ele>1463.74</ele>
        <time>2014-06-09T08:27:30Z</time>
      </trkpt>
      <trkpt lat="46.14092" lon="6.58997">
        <ele>1463.74</ele>
        <time>2014-06-09T08:27:32Z</time>
      </trkpt>
      <trkpt lat="46.14074" lon="6.59013">
        <ele>1462.78</ele>
        <time>2014-06-09T08:27:48Z</time>
      </trkpt>
      <trkpt lat="46.14052" lon="6.59019">
        <ele>1458.46</ele>
        <time>2014-06-09T08:28:04Z</time>
      </trkpt>
      <trkpt lat="46.14033" lon="6.59024">
        <ele>1456.53</ele>
        <time>2014-06-09T08:28:18Z</time>
      </trkpt>
      <trkpt lat="46.14011" lon="6.59028">
        <ele>1452.69</ele>
        <time>2014-06-09T08:28:37Z</time>
      </trkpt>
      <trkpt lat="46.14007" lon="6.59028">
        <ele>1451.73</ele>
        <time>2014-06-09T08:28:41Z</time>
      </trkpt>
      <trkpt lat="46.14005" lon="6.59026">
        <ele>1450.77</ele>
        <time>2014-06-09T08:28:43Z</time>
      </trkpt>
      <trkpt lat="46.13996" lon="6.59024">
        <ele>1449.32</ele>
        <time>2014-06-09T08:28:50Z</time>
      </trkpt>
      <trkpt lat="46.13987" lon="6.59022">
        <ele>1448.36</ele>
        <time>2014-06-09T08:28:56Z</time>
      </trkpt>
      <trkpt lat="46.13964" lon="6.59022">
        <ele>1444.52</ele>
        <time>2014-06-09T08:29:12Z</time>
      </trkpt>
      <trkpt lat="46.13943" lon="6.59019">
        <ele>1444.04</ele>
        <time>2014-06-09T08:29:28Z</time>
      </trkpt>
      <trkpt lat="46.1394" lon="6.59016">
        <ele>1443.56</ele>
        <time>2014-06-09T08:29:31Z</time>
      </trkpt>
      <trkpt lat="46.13939" lon="6.59013">
        <ele>1443.08</ele>
        <time>2014-06-09T08:29:33Z</time>
      </trkpt>
      <trkpt lat="46.13942" lon="6.59006">
        <ele>1443.08</ele>
        <time>2014-06-09T08:29:37Z</time>
      </trkpt>
      <trkpt lat="46.13947" lon="6.58995">
        <ele>1444.04</ele>
        <time>2014-06-09T08:29:45Z</time>
      </trkpt>
      <trkpt lat="46.13949" lon="6.58993">
        <ele>1444.52</ele>
        <time>2014-06-09T08:29:48Z</time>
      </trkpt>
      <trkpt lat="46.13956" lon="6.58972">
        <ele>1446.44</ele>
        <time>2014-06-09T08:30:02Z</time>
      </trkpt>
      <trkpt lat="46.13962" lon="6.58954">
        <ele>1449.32</ele>
        <time>2014-06-09T08:30:13Z</time>
      </trkpt>
      <trkpt lat="46.13969" lon="6.58942">
        <ele>1451.25</ele>
        <time>2014-06-09T08:30:24Z</time>
      </trkpt>
      <trkpt lat="46.13974" lon="6.58934">
        <ele>1452.69</ele>
        <time>2014-06-09T08:30:29Z</time>
      </trkpt>
      <trkpt lat="46.13982" lon="6.58916">
        <ele>1455.09</ele>
        <time>2014-06-09T08:30:42Z</time>
      </trkpt>
      <trkpt lat="46.13987" lon="6.58898">
        <ele>1460.86</ele>
        <time>2014-06-09T08:30:54Z</time>
      </trkpt>
      <trkpt lat="46.13989" lon="6.58882">
        <ele>1465.19</ele>
        <time>2014-06-09T08:31:06Z</time>
      </trkpt>
      <trkpt lat="46.13991" lon="6.58872">
        <ele>1466.63</ele>
        <time>2014-06-09T08:31:12Z</time>
      </trkpt>
      <trkpt lat="46.13991" lon="6.5887">
        <ele>1467.11</ele>
        <time>2014-06-09T08:31:13Z</time>
      </trkpt>
      <trkpt lat="46.13996" lon="6.58854">
        <ele>1469.99</ele>
        <time>2014-06-09T08:31:25Z</time>
      </trkpt>
      <trkpt lat="46.14001" lon="6.58839">
        <ele>1471.92</ele>
        <time>2014-06-09T08:31:35Z</time>
      </trkpt>
      <trkpt lat="46.14004" lon="6.58828">
        <ele>1471.92</ele>
        <time>2014-06-09T08:31:42Z</time>
      </trkpt>
      <trkpt lat="46.14005" lon="6.58827">
        <ele>1472.4</ele>
        <time>2014-06-09T08:31:43Z</time>
      </trkpt>
      <trkpt lat="46.14006" lon="6.58823">
        <ele>1472.88</ele>
        <time>2014-06-09T08:31:46Z</time>
      </trkpt>
      <trkpt lat="46.1401" lon="6.58809">
        <ele>1472.88</ele>
        <time>2014-06-09T08:31:55Z</time>
      </trkpt>
      <trkpt lat="46.14011" lon="6.58808">
        <ele>1472.88</ele>
        <time>2014-06-09T08:32:12Z</time>
      </trkpt>
      <trkpt lat="46.14016" lon="6.58789">
        <ele>1474.32</ele>
        <time>2014-06-09T08:32:28Z</time>
      </trkpt>
      <trkpt lat="46.1402" lon="6.58774">
        <ele>1475.76</ele>
        <time>2014-06-09T08:32:41Z</time>
      </trkpt>
      <trkpt lat="46.14022" lon="6.5876">
        <ele>1476.72</ele>
        <time>2014-06-09T08:32:52Z</time>
      </trkpt>
      <trkpt lat="46.14026" lon="6.58745">
        <ele>1478.16</ele>
        <time>2014-06-09T08:33:03Z</time>
      </trkpt>
      <trkpt lat="46.14028" lon="6.58724">
        <ele>1480.09</ele>
        <time>2014-06-09T08:33:15Z</time>
      </trkpt>
      <trkpt lat="46.14032" lon="6.5871">
        <ele>1481.05</ele>
        <time>2014-06-09T08:33:26Z</time>
      </trkpt>
      <trkpt lat="46.14036" lon="6.58692">
        <ele>1483.45</ele>
        <time>2014-06-09T08:33:37Z</time>
      </trkpt>
      <trkpt lat="46.14041" lon="6.58673">
        <ele>1487.3</ele>
        <time>2014-06-09T08:33:49Z</time>
      </trkpt>
      <trkpt lat="46.14046" lon="6.58654">
        <ele>1489.7</ele>
        <time>2014-06-09T08:34:01Z</time>
      </trkpt>
      <trkpt lat="46.14048" lon="6.58645">
        <ele>1490.18</ele>
        <time>2014-06-09T08:34:07Z</time>
      </trkpt>
      <trkpt lat="46.14049" lon="6.58642">
        <ele>1491.14</ele>
        <time>2014-06-09T08:34:21Z</time>
      </trkpt>
      <trkpt lat="46.14052" lon="6.58629">
        <ele>1491.62</ele>
        <time>2014-06-09T08:34:31Z</time>
      </trkpt>
      <trkpt lat="46.14056" lon="6.58616">
        <ele>1493.06</ele>
        <time>2014-06-09T08:34:41Z</time>
      </trkpt>
      <trkpt lat="46.14058" lon="6.58602">
        <ele>1494.99</ele>
        <time>2014-06-09T08:34:50Z</time>
      </trkpt>
      <trkpt lat="46.1406" lon="6.58587">
        <ele>1497.39</ele>
        <time>2014-06-09T08:35:00Z</time>
      </trkpt>
      <trkpt lat="46.14062" lon="6.58576">
        <ele>1498.83</ele>
        <time>2014-06-09T08:35:09Z</time>
      </trkpt>
      <trkpt lat="46.14067" lon="6.58565">
        <ele>1500.27</ele>
        <time>2014-06-09T08:35:19Z</time>
      </trkpt>
      <trkpt lat="46.1407" lon="6.58558">
        <ele>1500.27</ele>
        <time>2014-06-09T08:35:24Z</time>
      </trkpt>
      <trkpt lat="46.14086" lon="6.5853">
        <ele>1502.2</ele>
        <time>2014-06-09T08:35:45Z</time>
      </trkpt>
      <trkpt lat="46.14088" lon="6.58527">
        <ele>1502.68</ele>
        <time>2014-06-09T08:35:47Z</time>
      </trkpt>
      <trkpt lat="46.14087" lon="6.58526">
        <ele>1502.68</ele>
        <time>2014-06-09T08:35:48Z</time>
      </trkpt>
      <trkpt lat="46.14086" lon="6.58525">
        <ele>1502.68</ele>
        <time>2014-06-09T08:35:49Z</time>
      </trkpt>
      <trkpt lat="46.14085" lon="6.58524">
        <ele>1503.16</ele>
        <time>2014-06-09T08:35:50Z</time>
      </trkpt>
      <trkpt lat="46.14083" lon="6.58524">
        <ele>1503.16</ele>
        <time>2014-06-09T08:35:51Z</time>
      </trkpt>
      <trkpt lat="46.14082" lon="6.58524">
        <ele>1503.16</ele>
        <time>2014-06-09T08:35:52Z</time>
      </trkpt>
      <trkpt lat="46.14081" lon="6.58523">
        <ele>1503.16</ele>
        <time>2014-06-09T08:35:53Z</time>
      </trkpt>
      <trkpt lat="46.1408" lon="6.58523">
        <ele>1503.16</ele>
        <time>2014-06-09T08:35:54Z</time>
      </trkpt>
      <trkpt lat="46.14079" lon="6.58522">
        <ele>1503.16</ele>
        <time>2014-06-09T08:35:55Z</time>
      </trkpt>
      <trkpt lat="46.14078" lon="6.58521">
        <ele>1503.16</ele>
        <time>2014-06-09T08:35:56Z</time>
      </trkpt>
      <trkpt lat="46.14077" lon="6.5852">
        <ele>1503.16</ele>
        <time>2014-06-09T08:35:57Z</time>
      </trkpt>
      <trkpt lat="46.14076" lon="6.58519">
        <ele>1504.12</ele>
        <time>2014-06-09T08:36:01Z</time>
      </trkpt>
      <trkpt lat="46.14075" lon="6.58512">
        <ele>1503.64</ele>
        <time>2014-06-09T08:36:07Z</time>
      </trkpt>
      <trkpt lat="46.14076" lon="6.5851">
        <ele>1503.64</ele>
        <time>2014-06-09T08:36:08Z</time>
      </trkpt>
      <trkpt lat="46.14077" lon="6.58509">
        <ele>1504.12</ele>
        <time>2014-06-09T08:36:09Z</time>
      </trkpt>
      <trkpt lat="46.14081" lon="6.58504">
        <ele>1504.6</ele>
        <time>2014-06-09T08:36:14Z</time>
      </trkpt>
      <trkpt lat="46.14083" lon="6.58504">
        <ele>1504.6</ele>
        <time>2014-06-09T08:36:15Z</time>
      </trkpt>
      <trkpt lat="46.14091" lon="6.58503">
        <ele>1505.08</ele>
        <time>2014-06-09T08:36:22Z</time>
      </trkpt>
      <trkpt lat="46.14094" lon="6.58505">
        <ele>1505.08</ele>
        <time>2014-06-09T08:36:24Z</time>
      </trkpt>
      <trkpt lat="46.14097" lon="6.58505">
        <ele>1505.08</ele>
        <time>2014-06-09T08:36:26Z</time>
      </trkpt>
      <trkpt lat="46.14112" lon="6.58501">
        <ele>1506.52</ele>
        <time>2014-06-09T08:36:40Z</time>
      </trkpt>
      <trkpt lat="46.14113" lon="6.585">
        <ele>1506.52</ele>
        <time>2014-06-09T08:36:41Z</time>
      </trkpt>
      <trkpt lat="46.14126" lon="6.58487">
        <ele>1509.89</ele>
        <time>2014-06-09T08:36:54Z</time>
      </trkpt>
      <trkpt lat="46.14142" lon="6.58473">
        <ele>1512.29</ele>
        <time>2014-06-09T08:37:07Z</time>
      </trkpt>
      <trkpt lat="46.14155" lon="6.58462">
        <ele>1514.69</ele>
        <time>2014-06-09T08:37:22Z</time>
      </trkpt>
      <trkpt lat="46.14167" lon="6.58453">
        <ele>1516.14</ele>
        <time>2014-06-09T08:37:32Z</time>
      </trkpt>
      <trkpt lat="46.14184" lon="6.58443">
        <ele>1515.18</ele>
        <time>2014-06-09T08:37:48Z</time>
      </trkpt>
      <trkpt lat="46.1421" lon="6.58431">
        <ele>1517.58</ele>
        <time>2014-06-09T08:38:04Z</time>
      </trkpt>
      <trkpt lat="46.14227" lon="6.58421">
        <ele>1519.5</ele>
        <time>2014-06-09T08:38:21Z</time>
      </trkpt>
      <trkpt lat="46.14252" lon="6.58412">
        <ele>1521.42</ele>
        <time>2014-06-09T08:38:38Z</time>
      </trkpt>
      <trkpt lat="46.14275" lon="6.58403">
        <ele>1524.31</ele>
        <time>2014-06-09T08:38:55Z</time>
      </trkpt>
      <trkpt lat="46.14303" lon="6.58395">
        <ele>1524.31</ele>
        <time>2014-06-09T08:39:15Z</time>
      </trkpt>
      <trkpt lat="46.14323" lon="6.58391">
        <ele>1525.27</ele>
        <time>2014-06-09T08:39:32Z</time>
      </trkpt>
      <trkpt lat="46.14348" lon="6.5838">
        <ele>1527.19</ele>
        <time>2014-06-09T08:39:48Z</time>
      </trkpt>
      <trkpt lat="46.14361" lon="6.58365">
        <ele>1530.08</ele>
        <time>2014-06-09T08:40:04Z</time>
      </trkpt>
      <trkpt lat="46.14381" lon="6.58348">
        <ele>1529.11</ele>
        <time>2014-06-09T08:40:20Z</time>
      </trkpt>
      <trkpt lat="46.14407" lon="6.58334">
        <ele>1525.27</ele>
        <time>2014-06-09T08:40:42Z</time>
      </trkpt>
      <trkpt lat="46.14433" lon="6.58319">
        <ele>1520.94</ele>
        <time>2014-06-09T08:41:03Z</time>
      </trkpt>
      <trkpt lat="46.14458" lon="6.58307">
        <ele>1514.69</ele>
        <time>2014-06-09T08:41:22Z</time>
      </trkpt>
      <trkpt lat="46.14474" lon="6.58296">
        <ele>1509.89</ele>
        <time>2014-06-09T08:41:38Z</time>
      </trkpt>
      <trkpt lat="46.14491" lon="6.58289">
        <ele>1506.52</ele>
        <time>2014-06-09T08:41:54Z</time>
      </trkpt>
      <trkpt lat="46.14511" lon="6.5828">
        <ele>1504.6</ele>
        <time>2014-06-09T08:42:11Z</time>
      </trkpt>
      <trkpt lat="46.14538" lon="6.58272">
        <ele>1507.97</ele>
        <time>2014-06-09T08:42:33Z</time>
      </trkpt>
      <trkpt lat="46.14565" lon="6.58255">
        <ele>1509.89</ele>
        <time>2014-06-09T08:42:54Z</time>
      </trkpt>
      <trkpt lat="46.14566" lon="6.58254">
        <ele>1509.41</ele>
        <time>2014-06-09T08:42:55Z</time>
      </trkpt>
      <trkpt lat="46.1458" lon="6.58241">
        <ele>1507.97</ele>
        <time>2014-06-09T08:43:06Z</time>
      </trkpt>
      <trkpt lat="46.14591" lon="6.58235">
        <ele>1507.97</ele>
        <time>2014-06-09T08:43:12Z</time>
      </trkpt>
      <trkpt lat="46.14593" lon="6.58234">
        <ele>1507.97</ele>
        <time>2014-06-09T08:43:13Z</time>
      </trkpt>
      <trkpt lat="46.14595" lon="6.58233">
        <ele>1508.45</ele>
        <time>2014-06-09T08:43:14Z</time>
      </trkpt>
      <trkpt lat="46.14597" lon="6.58233">
        <ele>1508.45</ele>
        <time>2014-06-09T08:43:15Z</time>
      </trkpt>
      <trkpt lat="46.14599" lon="6.58232">
        <ele>1507.97</ele>
        <time>2014-06-09T08:43:16Z</time>
      </trkpt>
      <trkpt lat="46.14601" lon="6.58232">
        <ele>1507.48</ele>
        <time>2014-06-09T08:43:17Z</time>
      </trkpt>
      <trkpt lat="46.14603" lon="6.58232">
        <ele>1507.48</ele>
        <time>2014-06-09T08:43:18Z</time>
      </trkpt>
      <trkpt lat="46.14604" lon="6.58231">
        <ele>1507.48</ele>
        <time>2014-06-09T08:43:19Z</time>
      </trkpt>
      <trkpt lat="46.14606" lon="6.5823">
        <ele>1507.48</ele>
        <time>2014-06-09T08:43:20Z</time>
      </trkpt>
      <trkpt lat="46.14624" lon="6.5822">
        <ele>1504.6</ele>
        <time>2014-06-09T08:43:34Z</time>
      </trkpt>
      <trkpt lat="46.14625" lon="6.58218">
        <ele>1504.6</ele>
        <time>2014-06-09T08:43:35Z</time>
      </trkpt>
      <trkpt lat="46.14629" lon="6.58192">
        <ele>1504.6</ele>
        <time>2014-06-09T08:43:47Z</time>
      </trkpt>
      <trkpt lat="46.14634" lon="6.58151">
        <ele>1504.6</ele>
        <time>2014-06-09T08:44:08Z</time>
      </trkpt>
      <trkpt lat="46.1464" lon="6.58117">
        <ele>1505.56</ele>
        <time>2014-06-09T08:44:30Z</time>
      </trkpt>
      <trkpt lat="46.14642" lon="6.58105">
        <ele>1506.52</ele>
        <time>2014-06-09T08:44:38Z</time>
      </trkpt>
      <trkpt lat="46.1465" lon="6.58092">
        <ele>1507</ele>
        <time>2014-06-09T08:44:50Z</time>
      </trkpt>
      <trkpt lat="46.14653" lon="6.58088">
        <ele>1507.97</ele>
        <time>2014-06-09T08:44:54Z</time>
      </trkpt>
      <trkpt lat="46.14656" lon="6.5808">
        <ele>1508.45</ele>
        <time>2014-06-09T08:45:07Z</time>
      </trkpt>
      <trkpt lat="46.14656" lon="6.58079">
        <ele>1508.93</ele>
        <time>2014-06-09T08:45:10Z</time>
      </trkpt>
      <trkpt lat="46.14659" lon="6.58076">
        <ele>1510.37</ele>
        <time>2014-06-09T08:45:17Z</time>
      </trkpt>
      <trkpt lat="46.14663" lon="6.5807">
        <ele>1512.29</ele>
        <time>2014-06-09T08:45:26Z</time>
      </trkpt>
      <trkpt lat="46.14667" lon="6.58061">
        <ele>1514.69</ele>
        <time>2014-06-09T08:45:36Z</time>
      </trkpt>
      <trkpt lat="46.14671" lon="6.58055">
        <ele>1518.06</ele>
        <time>2014-06-09T08:45:46Z</time>
      </trkpt>
      <trkpt lat="46.14677" lon="6.58043">
        <ele>1520.46</ele>
        <time>2014-06-09T08:46:00Z</time>
      </trkpt>
      <trkpt lat="46.1468" lon="6.58029">
        <ele>1523.83</ele>
        <time>2014-06-09T08:46:16Z</time>
      </trkpt>
      <trkpt lat="46.14678" lon="6.58021">
        <ele>1525.27</ele>
        <time>2014-06-09T08:46:24Z</time>
      </trkpt>
      <trkpt lat="46.14678" lon="6.58014">
        <ele>1525.75</ele>
        <time>2014-06-09T08:46:31Z</time>
      </trkpt>
      <trkpt lat="46.14679" lon="6.58002">
        <ele>1529.59</ele>
        <time>2014-06-09T08:46:43Z</time>
      </trkpt>
      <trkpt lat="46.14674" lon="6.57994">
        <ele>1531.04</ele>
        <time>2014-06-09T08:46:57Z</time>
      </trkpt>
      <trkpt lat="46.14667" lon="6.57993">
        <ele>1533.44</ele>
        <time>2014-06-09T08:47:08Z</time>
      </trkpt>
      <trkpt lat="46.14659" lon="6.57989">
        <ele>1533.44</ele>
        <time>2014-06-09T08:47:19Z</time>
      </trkpt>
      <trkpt lat="46.14653" lon="6.57983">
        <ele>1536.8</ele>
        <time>2014-06-09T08:47:32Z</time>
      </trkpt>
      <trkpt lat="46.14649" lon="6.57974">
        <ele>1538.73</ele>
        <time>2014-06-09T08:47:47Z</time>
      </trkpt>
      <trkpt lat="46.14646" lon="6.57969">
        <ele>1540.17</ele>
        <time>2014-06-09T08:47:55Z</time>
      </trkpt>
      <trkpt lat="46.14644" lon="6.57964">
        <ele>1540.65</ele>
        <time>2014-06-09T08:48:00Z</time>
      </trkpt>
      <trkpt lat="46.14643" lon="6.57958">
        <ele>1541.61</ele>
        <time>2014-06-09T08:48:10Z</time>
      </trkpt>
      <trkpt lat="46.14642" lon="6.5795">
        <ele>1543.05</ele>
        <time>2014-06-09T08:48:21Z</time>
      </trkpt>
      <trkpt lat="46.14637" lon="6.57943">
        <ele>1545.94</ele>
        <time>2014-06-09T08:48:31Z</time>
      </trkpt>
      <trkpt lat="46.14628" lon="6.57936">
        <ele>1548.82</ele>
        <time>2014-06-09T08:48:44Z</time>
      </trkpt>
      <trkpt lat="46.14618" lon="6.5793">
        <ele>1551.22</ele>
        <time>2014-06-09T08:48:57Z</time>
      </trkpt>
      <trkpt lat="46.14613" lon="6.57926">
        <ele>1552.67</ele>
        <time>2014-06-09T08:49:07Z</time>
      </trkpt>
      <trkpt lat="46.14605" lon="6.57919">
        <ele>1554.59</ele>
        <time>2014-06-09T08:49:18Z</time>
      </trkpt>
      <trkpt lat="46.14591" lon="6.57913">
        <ele>1556.51</ele>
        <time>2014-06-09T08:49:33Z</time>
      </trkpt>
      <trkpt lat="46.14574" lon="6.57912">
        <ele>1558.43</ele>
        <time>2014-06-09T08:49:49Z</time>
      </trkpt>
      <trkpt lat="46.14566" lon="6.57909">
        <ele>1560.36</ele>
        <time>2014-06-09T08:50:03Z</time>
      </trkpt>
      <trkpt lat="46.14567" lon="6.57908">
        <ele>1560.84</ele>
        <time>2014-06-09T08:50:12Z</time>
      </trkpt>
      <trkpt lat="46.1457" lon="6.57904">
        <ele>1559.88</ele>
        <time>2014-06-09T08:50:16Z</time>
      </trkpt>
      <trkpt lat="46.14572" lon="6.57903">
        <ele>1559.88</ele>
        <time>2014-06-09T08:50:18Z</time>
      </trkpt>
      <trkpt lat="46.14577" lon="6.57892">
        <ele>1558.43</ele>
        <time>2014-06-09T08:50:27Z</time>
      </trkpt>
      <trkpt lat="46.14584" lon="6.57883">
        <ele>1557.95</ele>
        <time>2014-06-09T08:50:36Z</time>
      </trkpt>
      <trkpt lat="46.14587" lon="6.5787">
        <ele>1559.88</ele>
        <time>2014-06-09T08:50:48Z</time>
      </trkpt>
      <trkpt lat="46.14588" lon="6.57865">
        <ele>1560.36</ele>
        <time>2014-06-09T08:50:52Z</time>
      </trkpt>
      <trkpt lat="46.14594" lon="6.57857">
        <ele>1562.28</ele>
        <time>2014-06-09T08:51:00Z</time>
      </trkpt>
      <trkpt lat="46.14596" lon="6.57853">
        <ele>1563.72</ele>
        <time>2014-06-09T08:51:12Z</time>
      </trkpt>
      <trkpt lat="46.14597" lon="6.57848">
        <ele>1565.16</ele>
        <time>2014-06-09T08:51:25Z</time>
      </trkpt>
      <trkpt lat="46.14597" lon="6.5785">
        <ele>1564.2</ele>
        <time>2014-06-09T08:51:47Z</time>
      </trkpt>
      <trkpt lat="46.14595" lon="6.5784">
        <ele>1566.12</ele>
        <time>2014-06-09T08:52:02Z</time>
      </trkpt>
      <trkpt lat="46.14593" lon="6.57832">
        <ele>1568.05</ele>
        <time>2014-06-09T08:52:13Z</time>
      </trkpt>
      <trkpt lat="46.14591" lon="6.57826">
        <ele>1569.97</ele>
        <time>2014-06-09T08:52:23Z</time>
      </trkpt>
      <trkpt lat="46.14588" lon="6.57819">
        <ele>1572.37</ele>
        <time>2014-06-09T08:52:34Z</time>
      </trkpt>
      <trkpt lat="46.14586" lon="6.57811">
        <ele>1572.85</ele>
        <time>2014-06-09T08:52:44Z</time>
      </trkpt>
      <trkpt lat="46.14589" lon="6.57805">
        <ele>1575.74</ele>
        <time>2014-06-09T08:52:56Z</time>
      </trkpt>
      <trkpt lat="46.14589" lon="6.57798">
        <ele>1578.62</ele>
        <time>2014-06-09T08:53:08Z</time>
      </trkpt>
      <trkpt lat="46.1459" lon="6.57786">
        <ele>1581.99</ele>
        <time>2014-06-09T08:53:22Z</time>
      </trkpt>
      <trkpt lat="46.14589" lon="6.57778">
        <ele>1583.91</ele>
        <time>2014-06-09T08:53:34Z</time>
      </trkpt>
      <trkpt lat="46.14589" lon="6.57777">
        <ele>1584.39</ele>
        <time>2014-06-09T08:53:37Z</time>
      </trkpt>
      <trkpt lat="46.14587" lon="6.57762">
        <ele>1586.79</ele>
        <time>2014-06-09T08:53:51Z</time>
      </trkpt>
      <trkpt lat="46.14581" lon="6.57752">
        <ele>1588.72</ele>
        <time>2014-06-09T08:54:02Z</time>
      </trkpt>
      <trkpt lat="46.1458" lon="6.57752">
        <ele>1588.72</ele>
        <time>2014-06-09T08:54:03Z</time>
      </trkpt>
      <trkpt lat="46.14575" lon="6.57746">
        <ele>1591.12</ele>
        <time>2014-06-09T08:54:12Z</time>
      </trkpt>
      <trkpt lat="46.14573" lon="6.57729">
        <ele>1591.6</ele>
        <time>2014-06-09T08:54:24Z</time>
      </trkpt>
      <trkpt lat="46.14573" lon="6.57715">
        <ele>1592.56</ele>
        <time>2014-06-09T08:54:34Z</time>
      </trkpt>
      <trkpt lat="46.14573" lon="6.57707">
        <ele>1591.6</ele>
        <time>2014-06-09T08:54:47Z</time>
      </trkpt>
      <trkpt lat="46.14573" lon="6.57704">
        <ele>1591.6</ele>
        <time>2014-06-09T08:54:51Z</time>
      </trkpt>
      <trkpt lat="46.14574" lon="6.577">
        <ele>1592.08</ele>
        <time>2014-06-09T08:54:56Z</time>
      </trkpt>
      <trkpt lat="46.14575" lon="6.57692">
        <ele>1593.04</ele>
        <time>2014-06-09T08:55:05Z</time>
      </trkpt>
      <trkpt lat="46.14574" lon="6.57688">
        <ele>1595.45</ele>
        <time>2014-06-09T08:55:15Z</time>
      </trkpt>
      <trkpt lat="46.14576" lon="6.57684">
        <ele>1597.85</ele>
        <time>2014-06-09T08:55:25Z</time>
      </trkpt>
      <trkpt lat="46.14574" lon="6.57678">
        <ele>1600.73</ele>
        <time>2014-06-09T08:55:35Z</time>
      </trkpt>
      <trkpt lat="46.14574" lon="6.57672">
        <ele>1603.62</ele>
        <time>2014-06-09T08:55:45Z</time>
      </trkpt>
      <trkpt lat="46.14574" lon="6.57667">
        <ele>1606.02</ele>
        <time>2014-06-09T08:55:57Z</time>
      </trkpt>
      <trkpt lat="46.14574" lon="6.57667">
        <ele>1606.02</ele>
        <time>2014-06-09T08:55:58Z</time>
      </trkpt>
      <trkpt lat="46.14573" lon="6.57662">
        <ele>1609.38</ele>
        <time>2014-06-09T08:56:10Z</time>
      </trkpt>
      <trkpt lat="46.14572" lon="6.57659">
        <ele>1610.83</ele>
        <time>2014-06-09T08:56:15Z</time>
      </trkpt>
      <trkpt lat="46.14571" lon="6.57653">
        <ele>1612.27</ele>
        <time>2014-06-09T08:56:28Z</time>
      </trkpt>
      <trkpt lat="46.1457" lon="6.57649">
        <ele>1613.23</ele>
        <time>2014-06-09T08:56:59Z</time>
      </trkpt>
      <trkpt lat="46.14571" lon="6.57649">
        <ele>1613.23</ele>
        <time>2014-06-09T08:57:00Z</time>
      </trkpt>
      <trkpt lat="46.14574" lon="6.57633">
        <ele>1616.59</ele>
        <time>2014-06-09T08:57:12Z</time>
      </trkpt>
      <trkpt lat="46.14573" lon="6.57627">
        <ele>1617.56</ele>
        <time>2014-06-09T08:57:16Z</time>
      </trkpt>
      <trkpt lat="46.14572" lon="6.57622">
        <ele>1619</ele>
        <time>2014-06-09T08:57:22Z</time>
      </trkpt>
      <trkpt lat="46.14572" lon="6.57617">
        <ele>1620.92</ele>
        <time>2014-06-09T08:57:30Z</time>
      </trkpt>
      <trkpt lat="46.14571" lon="6.57614">
        <ele>1621.4</ele>
        <time>2014-06-09T08:57:32Z</time>
      </trkpt>
      <trkpt lat="46.14569" lon="6.57609">
        <ele>1623.8</ele>
        <time>2014-06-09T08:57:41Z</time>
      </trkpt>
      <trkpt lat="46.14565" lon="6.57602">
        <ele>1626.69</ele>
        <time>2014-06-09T08:57:50Z</time>
      </trkpt>
      <trkpt lat="46.14565" lon="6.57599">
        <ele>1628.61</ele>
        <time>2014-06-09T08:58:02Z</time>
      </trkpt>
      <trkpt lat="46.14563" lon="6.57593">
        <ele>1630.05</ele>
        <time>2014-06-09T08:58:13Z</time>
      </trkpt>
      <trkpt lat="46.1456" lon="6.5759">
        <ele>1630.05</ele>
        <time>2014-06-09T08:58:21Z</time>
      </trkpt>
      <trkpt lat="46.14556" lon="6.57586">
        <ele>1632.94</ele>
        <time>2014-06-09T08:58:31Z</time>
      </trkpt>
      <trkpt lat="46.14555" lon="6.57585">
        <ele>1633.42</ele>
        <time>2014-06-09T08:58:33Z</time>
      </trkpt>
      <trkpt lat="46.14557" lon="6.57583">
        <ele>1634.86</ele>
        <time>2014-06-09T08:58:40Z</time>
      </trkpt>
      <trkpt lat="46.14557" lon="6.57581">
        <ele>1635.82</ele>
        <time>2014-06-09T08:58:42Z</time>
      </trkpt>
      <trkpt lat="46.14555" lon="6.5758">
        <ele>1637.26</ele>
        <time>2014-06-09T08:58:55Z</time>
      </trkpt>
      <trkpt lat="46.14552" lon="6.5758">
        <ele>1638.7</ele>
        <time>2014-06-09T08:59:06Z</time>
      </trkpt>
      <trkpt lat="46.14553" lon="6.57574">
        <ele>1640.15</ele>
        <time>2014-06-09T08:59:18Z</time>
      </trkpt>
      <trkpt lat="46.14552" lon="6.57569">
        <ele>1643.03</ele>
        <time>2014-06-09T08:59:27Z</time>
      </trkpt>
      <trkpt lat="46.14551" lon="6.57565">
        <ele>1644.47</ele>
        <time>2014-06-09T08:59:37Z</time>
      </trkpt>
      <trkpt lat="46.14549" lon="6.57559">
        <ele>1645.43</ele>
        <time>2014-06-09T08:59:45Z</time>
      </trkpt>
      <trkpt lat="46.14545" lon="6.57552">
        <ele>1645.91</ele>
        <time>2014-06-09T08:59:56Z</time>
      </trkpt>
      <trkpt lat="46.14543" lon="6.57548">
        <ele>1647.36</ele>
        <time>2014-06-09T09:00:04Z</time>
      </trkpt>
      <trkpt lat="46.14541" lon="6.57546">
        <ele>1647.84</ele>
        <time>2014-06-09T09:00:12Z</time>
      </trkpt>
      <trkpt lat="46.14537" lon="6.57546">
        <ele>1648.32</ele>
        <time>2014-06-09T09:00:16Z</time>
      </trkpt>
      <trkpt lat="46.14535" lon="6.57544">
        <ele>1650.24</ele>
        <time>2014-06-09T09:00:21Z</time>
      </trkpt>
      <trkpt lat="46.14533" lon="6.57539">
        <ele>1651.68</ele>
        <time>2014-06-09T09:00:30Z</time>
      </trkpt>
      <trkpt lat="46.14531" lon="6.57534">
        <ele>1652.64</ele>
        <time>2014-06-09T09:00:40Z</time>
      </trkpt>
      <trkpt lat="46.14531" lon="6.57529">
        <ele>1654.09</ele>
        <time>2014-06-09T09:00:54Z</time>
      </trkpt>
      <trkpt lat="46.1453" lon="6.57525">
        <ele>1655.53</ele>
        <time>2014-06-09T09:01:02Z</time>
      </trkpt>
      <trkpt lat="46.1453" lon="6.57524">
        <ele>1655.53</ele>
        <time>2014-06-09T09:01:04Z</time>
      </trkpt>
      <trkpt lat="46.1453" lon="6.57523">
        <ele>1656.01</ele>
        <time>2014-06-09T09:01:06Z</time>
      </trkpt>
      <trkpt lat="46.14527" lon="6.57518">
        <ele>1659.37</ele>
        <time>2014-06-09T09:01:15Z</time>
      </trkpt>
      <trkpt lat="46.14524" lon="6.57513">
        <ele>1661.3</ele>
        <time>2014-06-09T09:01:24Z</time>
      </trkpt>
      <trkpt lat="46.14523" lon="6.57513">
        <ele>1661.3</ele>
        <time>2014-06-09T09:01:25Z</time>
      </trkpt>
      <trkpt lat="46.14522" lon="6.5751">
        <ele>1661.78</ele>
        <time>2014-06-09T09:01:28Z</time>
      </trkpt>
      <trkpt lat="46.14519" lon="6.57507">
        <ele>1663.7</ele>
        <time>2014-06-09T09:01:36Z</time>
      </trkpt>
      <trkpt lat="46.14516" lon="6.57498">
        <ele>1663.22</ele>
        <time>2014-06-09T09:01:48Z</time>
      </trkpt>
      <trkpt lat="46.14511" lon="6.57484">
        <ele>1663.7</ele>
        <time>2014-06-09T09:02:03Z</time>
      </trkpt>
      <trkpt lat="46.14508" lon="6.5747">
        <ele>1663.7</ele>
        <time>2014-06-09T09:02:15Z</time>
      </trkpt>
      <trkpt lat="46.14509" lon="6.57463">
        <ele>1660.81</ele>
        <time>2014-06-09T09:02:26Z</time>
      </trkpt>
      <trkpt lat="46.14509" lon="6.57451">
        <ele>1660.33</ele>
        <time>2014-06-09T09:02:35Z</time>
      </trkpt>
      <trkpt lat="46.1451" lon="6.5744">
        <ele>1659.37</ele>
        <time>2014-06-09T09:02:44Z</time>
      </trkpt>
      <trkpt lat="46.14511" lon="6.57438">
        <ele>1659.37</ele>
        <time>2014-06-09T09:02:47Z</time>
      </trkpt>
      <trkpt lat="46.14511" lon="6.57433">
        <ele>1659.85</ele>
        <time>2014-06-09T09:02:51Z</time>
      </trkpt>
      <trkpt lat="46.14512" lon="6.57427">
        <ele>1660.33</ele>
        <time>2014-06-09T09:02:56Z</time>
      </trkpt>
      <trkpt lat="46.14519" lon="6.57417">
        <ele>1662.26</ele>
        <time>2014-06-09T09:03:10Z</time>
      </trkpt>
      <trkpt lat="46.14521" lon="6.57413">
        <ele>1663.22</ele>
        <time>2014-06-09T09:03:14Z</time>
      </trkpt>
      <trkpt lat="46.14526" lon="6.574">
        <ele>1666.1</ele>
        <time>2014-06-09T09:03:25Z</time>
      </trkpt>
      <trkpt lat="46.14533" lon="6.57381">
        <ele>1667.54</ele>
        <time>2014-06-09T09:03:39Z</time>
      </trkpt>
      <trkpt lat="46.14537" lon="6.5737">
        <ele>1668.02</ele>
        <time>2014-06-09T09:03:48Z</time>
      </trkpt>
      <trkpt lat="46.14541" lon="6.57364">
        <ele>1668.99</ele>
        <time>2014-06-09T09:03:54Z</time>
      </trkpt>
      <trkpt lat="46.14545" lon="6.57361">
        <ele>1669.47</ele>
        <time>2014-06-09T09:04:06Z</time>
      </trkpt>
      <trkpt lat="46.14544" lon="6.57362">
        <ele>1669.95</ele>
        <time>2014-06-09T09:04:19Z</time>
      </trkpt>
      <trkpt lat="46.14545" lon="6.5736">
        <ele>1672.83</ele>
        <time>2014-06-09T09:04:57Z</time>
      </trkpt>
      <trkpt lat="46.14546" lon="6.5736">
        <ele>1670.91</ele>
        <time>2014-06-09T09:05:34Z</time>
      </trkpt>
      <trkpt lat="46.14546" lon="6.57363">
        <ele>1673.31</ele>
        <time>2014-06-09T09:06:10Z</time>
      </trkpt>
      <trkpt lat="46.14546" lon="6.5736">
        <ele>1672.35</ele>
        <time>2014-06-09T09:06:43Z</time>
      </trkpt>
      <trkpt lat="46.14546" lon="6.5736">
        <ele>1670.91</ele>
        <time>2014-06-09T09:07:19Z</time>
      </trkpt>
      <trkpt lat="46.14545" lon="6.57358">
        <ele>1672.35</ele>
        <time>2014-06-09T09:07:59Z</time>
      </trkpt>
      <trkpt lat="46.14545" lon="6.57359">
        <ele>1670.91</ele>
        <time>2014-06-09T09:08:35Z</time>
      </trkpt>
      <trkpt lat="46.14545" lon="6.5736">
        <ele>1672.35</ele>
        <time>2014-06-09T09:09:11Z</time>
      </trkpt>
      <trkpt lat="46.14544" lon="6.5736">
        <ele>1670.43</ele>
        <time>2014-06-09T09:09:48Z</time>
      </trkpt>
      <trkpt lat="46.14546" lon="6.57361">
        <ele>1671.39</ele>
        <time>2014-06-09T09:10:18Z</time>
      </trkpt>
      <trkpt lat="46.14546" lon="6.57361">
        <ele>1672.83</ele>
        <time>2014-06-09T09:10:59Z</time>
      </trkpt>
      <trkpt lat="46.14547" lon="6.57362">
        <ele>1673.79</ele>
        <time>2014-06-09T09:11:33Z</time>
      </trkpt>
      <trkpt lat="46.14545" lon="6.57361">
        <ele>1672.83</ele>
        <time>2014-06-09T09:12:10Z</time>
      </trkpt>
      <trkpt lat="46.14546" lon="6.57363">
        <ele>1672.35</ele>
        <time>2014-06-09T09:12:43Z</time>
      </trkpt>
      <trkpt lat="46.14547" lon="6.57361">
        <ele>1670.43</ele>
        <time>2014-06-09T09:13:27Z</time>
      </trkpt>
      <trkpt lat="46.14545" lon="6.57361">
        <ele>1670.43</ele>
        <time>2014-06-09T09:13:59Z</time>
      </trkpt>
      <trkpt lat="46.14545" lon="6.5736">
        <ele>1669.95</ele>
        <time>2014-06-09T09:14:15Z</time>
      </trkpt>
      <trkpt lat="46.14546" lon="6.57359">
        <ele>1668.51</ele>
        <time>2014-06-09T09:14:52Z</time>
      </trkpt>
      <trkpt lat="46.14547" lon="6.57362">
        <ele>1666.1</ele>
        <time>2014-06-09T09:15:24Z</time>
      </trkpt>
      <trkpt lat="46.14547" lon="6.57359">
        <ele>1664.66</ele>
        <time>2014-06-09T09:16:01Z</time>
      </trkpt>
      <trkpt lat="46.14546" lon="6.57359">
        <ele>1667.06</ele>
        <time>2014-06-09T09:16:37Z</time>
      </trkpt>
      <trkpt lat="46.14545" lon="6.57359">
        <ele>1668.02</ele>
        <time>2014-06-09T09:17:15Z</time>
      </trkpt>
      <trkpt lat="46.14544" lon="6.5736">
        <ele>1668.02</ele>
        <time>2014-06-09T09:17:53Z</time>
      </trkpt>
      <trkpt lat="46.14546" lon="6.5736">
        <ele>1668.02</ele>
        <time>2014-06-09T09:18:29Z</time>
      </trkpt>
      <trkpt lat="46.14545" lon="6.57359">
        <ele>1667.06</ele>
        <time>2014-06-09T09:19:06Z</time>
      </trkpt>
      <trkpt lat="46.14543" lon="6.57361">
        <ele>1667.54</ele>
        <time>2014-06-09T09:19:51Z</time>
      </trkpt>
      <trkpt lat="46.14546" lon="6.5736">
        <ele>1668.99</ele>
        <time>2014-06-09T09:20:33Z</time>
      </trkpt>
      <trkpt lat="46.14546" lon="6.57359">
        <ele>1668.02</ele>
        <time>2014-06-09T09:21:12Z</time>
      </trkpt>
      <trkpt lat="46.14549" lon="6.57357">
        <ele>1668.99</ele>
        <time>2014-06-09T09:21:51Z</time>
      </trkpt>
      <trkpt lat="46.14548" lon="6.57355">
        <ele>1665.62</ele>
        <time>2014-06-09T09:22:24Z</time>
      </trkpt>
      <trkpt lat="46.14547" lon="6.57351">
        <ele>1658.41</ele>
        <time>2014-06-09T09:23:00Z</time>
      </trkpt>
      <trkpt lat="46.14548" lon="6.57354">
        <ele>1661.3</ele>
        <time>2014-06-09T09:23:37Z</time>
      </trkpt>
      <trkpt lat="46.14549" lon="6.57357">
        <ele>1664.66</ele>
        <time>2014-06-09T09:24:11Z</time>
      </trkpt>
      <trkpt lat="46.14548" lon="6.57359">
        <ele>1666.58</ele>
        <time>2014-06-09T09:24:43Z</time>
      </trkpt>
      <trkpt lat="46.14547" lon="6.57358">
        <ele>1668.51</ele>
        <time>2014-06-09T09:25:19Z</time>
      </trkpt>
      <trkpt lat="46.14546" lon="6.57358">
        <ele>1669.95</ele>
        <time>2014-06-09T09:26:01Z</time>
      </trkpt>
      <trkpt lat="46.14544" lon="6.57363">
        <ele>1668.02</ele>
        <time>2014-06-09T09:26:47Z</time>
      </trkpt>
      <trkpt lat="46.14545" lon="6.57362">
        <ele>1668.02</ele>
        <time>2014-06-09T09:27:24Z</time>
      </trkpt>
      <trkpt lat="46.14545" lon="6.57361">
        <ele>1668.51</ele>
        <time>2014-06-09T09:28:00Z</time>
      </trkpt>
      <trkpt lat="46.14546" lon="6.57361">
        <ele>1669.47</ele>
        <time>2014-06-09T09:28:28Z</time>
      </trkpt>
      <trkpt lat="46.14545" lon="6.57365">
        <ele>1669.47</ele>
        <time>2014-06-09T09:28:41Z</time>
      </trkpt>
      <trkpt lat="46.14545" lon="6.57366">
        <ele>1669.47</ele>
        <time>2014-06-09T09:29:00Z</time>
      </trkpt>
      <trkpt lat="46.14547" lon="6.57361">
        <ele>1670.43</ele>
        <time>2014-06-09T09:29:19Z</time>
      </trkpt>
      <trkpt lat="46.14545" lon="6.5736">
        <ele>1669.95</ele>
        <time>2014-06-09T09:29:34Z</time>
      </trkpt>
      <trkpt lat="46.14546" lon="6.5735">
        <ele>1671.39</ele>
        <time>2014-06-09T09:29:44Z</time>
      </trkpt>
      <trkpt lat="46.14549" lon="6.57341">
        <ele>1672.83</ele>
        <time>2014-06-09T09:29:56Z</time>
      </trkpt>
      <trkpt lat="46.14551" lon="6.57331">
        <ele>1674.75</ele>
        <time>2014-06-09T09:30:06Z</time>
      </trkpt>
      <trkpt lat="46.1455" lon="6.57328">
        <ele>1675.23</ele>
        <time>2014-06-09T09:30:08Z</time>
      </trkpt>
      <trkpt lat="46.14551" lon="6.57322">
        <ele>1675.72</ele>
        <time>2014-06-09T09:30:13Z</time>
      </trkpt>
      <trkpt lat="46.14549" lon="6.57319">
        <ele>1675.72</ele>
        <time>2014-06-09T09:30:17Z</time>
      </trkpt>
      <trkpt lat="46.14548" lon="6.57301">
        <ele>1677.64</ele>
        <time>2014-06-09T09:30:30Z</time>
      </trkpt>
      <trkpt lat="46.14547" lon="6.57289">
        <ele>1678.12</ele>
        <time>2014-06-09T09:30:39Z</time>
      </trkpt>
      <trkpt lat="46.14548" lon="6.57277">
        <ele>1681.48</ele>
        <time>2014-06-09T09:30:49Z</time>
      </trkpt>
      <trkpt lat="46.14548" lon="6.57276">
        <ele>1681.96</ele>
        <time>2014-06-09T09:30:51Z</time>
      </trkpt>
      <trkpt lat="46.14547" lon="6.5727">
        <ele>1682.93</ele>
        <time>2014-06-09T09:30:56Z</time>
      </trkpt>
      <trkpt lat="46.14548" lon="6.57266">
        <ele>1682.93</ele>
        <time>2014-06-09T09:31:00Z</time>
      </trkpt>
      <trkpt lat="46.14547" lon="6.57263">
        <ele>1682.93</ele>
        <time>2014-06-09T09:31:02Z</time>
      </trkpt>
      <trkpt lat="46.14544" lon="6.5725">
        <ele>1684.37</ele>
        <time>2014-06-09T09:31:13Z</time>
      </trkpt>
      <trkpt lat="46.14544" lon="6.5725">
        <ele>1684.85</ele>
        <time>2014-06-09T09:31:14Z</time>
      </trkpt>
      <trkpt lat="46.14545" lon="6.57245">
        <ele>1685.81</ele>
        <time>2014-06-09T09:31:19Z</time>
      </trkpt>
      <trkpt lat="46.14543" lon="6.57235">
        <ele>1687.25</ele>
        <time>2014-06-09T09:31:30Z</time>
      </trkpt>
      <trkpt lat="46.14542" lon="6.57223">
        <ele>1689.17</ele>
        <time>2014-06-09T09:31:42Z</time>
      </trkpt>
      <trkpt lat="46.14542" lon="6.57222">
        <ele>1689.65</ele>
        <time>2014-06-09T09:31:43Z</time>
      </trkpt>
      <trkpt lat="46.14545" lon="6.57213">
        <ele>1692.06</ele>
        <time>2014-06-09T09:31:53Z</time>
      </trkpt>
      <trkpt lat="46.14545" lon="6.57208">
        <ele>1692.54</ele>
        <time>2014-06-09T09:32:00Z</time>
      </trkpt>
      <trkpt lat="46.14538" lon="6.57193">
        <ele>1692.54</ele>
        <time>2014-06-09T09:32:12Z</time>
      </trkpt>
      <trkpt lat="46.14536" lon="6.57182">
        <ele>1693.02</ele>
        <time>2014-06-09T09:32:21Z</time>
      </trkpt>
      <trkpt lat="46.14533" lon="6.57171">
        <ele>1694.94</ele>
        <time>2014-06-09T09:32:31Z</time>
      </trkpt>
      <trkpt lat="46.14528" lon="6.57158">
        <ele>1695.9</ele>
        <time>2014-06-09T09:32:42Z</time>
      </trkpt>
      <trkpt lat="46.14527" lon="6.57151">
        <ele>1696.86</ele>
        <time>2014-06-09T09:32:48Z</time>
      </trkpt>
      <trkpt lat="46.14526" lon="6.57147">
        <ele>1697.34</ele>
        <time>2014-06-09T09:32:51Z</time>
      </trkpt>
      <trkpt lat="46.14524" lon="6.57136">
        <ele>1698.31</ele>
        <time>2014-06-09T09:33:01Z</time>
      </trkpt>
      <trkpt lat="46.14525" lon="6.57133">
        <ele>1698.31</ele>
        <time>2014-06-09T09:33:03Z</time>
      </trkpt>
      <trkpt lat="46.14526" lon="6.57131">
        <ele>1698.31</ele>
        <time>2014-06-09T09:33:06Z</time>
      </trkpt>
      <trkpt lat="46.14523" lon="6.57118">
        <ele>1700.23</ele>
        <time>2014-06-09T09:33:17Z</time>
      </trkpt>
      <trkpt lat="46.14525" lon="6.57111">
        <ele>1702.63</ele>
        <time>2014-06-09T09:33:28Z</time>
      </trkpt>
      <trkpt lat="46.14525" lon="6.57111">
        <ele>1702.63</ele>
        <time>2014-06-09T09:33:29Z</time>
      </trkpt>
      <trkpt lat="46.14525" lon="6.57103">
        <ele>1704.07</ele>
        <time>2014-06-09T09:33:39Z</time>
      </trkpt>
      <trkpt lat="46.14524" lon="6.57102">
        <ele>1704.07</ele>
        <time>2014-06-09T09:33:40Z</time>
      </trkpt>
      <trkpt lat="46.1452" lon="6.57095">
        <ele>1706</ele>
        <time>2014-06-09T09:33:50Z</time>
      </trkpt>
      <trkpt lat="46.14519" lon="6.57091">
        <ele>1707.44</ele>
        <time>2014-06-09T09:33:56Z</time>
      </trkpt>
      <trkpt lat="46.14513" lon="6.57086">
        <ele>1708.4</ele>
        <time>2014-06-09T09:34:03Z</time>
      </trkpt>
      <trkpt lat="46.1451" lon="6.57076">
        <ele>1710.32</ele>
        <time>2014-06-09T09:34:13Z</time>
      </trkpt>
      <trkpt lat="46.14507" lon="6.5707">
        <ele>1711.28</ele>
        <time>2014-06-09T09:34:24Z</time>
      </trkpt>
      <trkpt lat="46.14504" lon="6.57064">
        <ele>1712.73</ele>
        <time>2014-06-09T09:34:36Z</time>
      </trkpt>
      <trkpt lat="46.14502" lon="6.57056">
        <ele>1713.69</ele>
        <time>2014-06-09T09:34:46Z</time>
      </trkpt>
      <trkpt lat="46.14501" lon="6.57049">
        <ele>1713.69</ele>
        <time>2014-06-09T09:34:54Z</time>
      </trkpt>
      <trkpt lat="46.14501" lon="6.57044">
        <ele>1714.17</ele>
        <time>2014-06-09T09:35:00Z</time>
      </trkpt>
      <trkpt lat="46.14502" lon="6.57035">
        <ele>1715.13</ele>
        <time>2014-06-09T09:35:11Z</time>
      </trkpt>
      <trkpt lat="46.14504" lon="6.57031">
        <ele>1717.53</ele>
        <time>2014-06-09T09:35:20Z</time>
      </trkpt>
      <trkpt lat="46.14505" lon="6.57027">
        <ele>1719.94</ele>
        <time>2014-06-09T09:35:31Z</time>
      </trkpt>
      <trkpt lat="46.14504" lon="6.57025">
        <ele>1721.86</ele>
        <time>2014-06-09T09:35:36Z</time>
      </trkpt>
      <trkpt lat="46.14502" lon="6.57024">
        <ele>1721.86</ele>
        <time>2014-06-09T09:35:39Z</time>
      </trkpt>
      <trkpt lat="46.14497" lon="6.57013">
        <ele>1725.22</ele>
        <time>2014-06-09T09:35:50Z</time>
      </trkpt>
      <trkpt lat="46.14493" lon="6.57002">
        <ele>1728.59</ele>
        <time>2014-06-09T09:36:04Z</time>
      </trkpt>
      <trkpt lat="46.14492" lon="6.56999">
        <ele>1729.07</ele>
        <time>2014-06-09T09:36:09Z</time>
      </trkpt>
      <trkpt lat="46.1449" lon="6.56994">
        <ele>1729.55</ele>
        <time>2014-06-09T09:36:14Z</time>
      </trkpt>
      <trkpt lat="46.14489" lon="6.5699">
        <ele>1729.55</ele>
        <time>2014-06-09T09:36:17Z</time>
      </trkpt>
      <trkpt lat="46.14485" lon="6.56985">
        <ele>1730.51</ele>
        <time>2014-06-09T09:36:25Z</time>
      </trkpt>
      <trkpt lat="46.14485" lon="6.56982">
        <ele>1731.47</ele>
        <time>2014-06-09T09:36:28Z</time>
      </trkpt>
      <trkpt lat="46.14477" lon="6.56972">
        <ele>1732.43</ele>
        <time>2014-06-09T09:36:40Z</time>
      </trkpt>
      <trkpt lat="46.14473" lon="6.56965">
        <ele>1734.36</ele>
        <time>2014-06-09T09:36:50Z</time>
      </trkpt>
      <trkpt lat="46.14473" lon="6.56961">
        <ele>1734.84</ele>
        <time>2014-06-09T09:36:53Z</time>
      </trkpt>
      <trkpt lat="46.14469" lon="6.56955">
        <ele>1736.28</ele>
        <time>2014-06-09T09:37:03Z</time>
      </trkpt>
      <trkpt lat="46.14464" lon="6.56947">
        <ele>1736.76</ele>
        <time>2014-06-09T09:37:11Z</time>
      </trkpt>
      <trkpt lat="46.14463" lon="6.56946">
        <ele>1737.24</ele>
        <time>2014-06-09T09:37:14Z</time>
      </trkpt>
      <trkpt lat="46.14461" lon="6.56937">
        <ele>1738.68</ele>
        <time>2014-06-09T09:37:24Z</time>
      </trkpt>
      <trkpt lat="46.14458" lon="6.56929">
        <ele>1739.16</ele>
        <time>2014-06-09T09:37:33Z</time>
      </trkpt>
      <trkpt lat="46.14455" lon="6.56925">
        <ele>1740.12</ele>
        <time>2014-06-09T09:37:42Z</time>
      </trkpt>
      <trkpt lat="46.14454" lon="6.56912">
        <ele>1742.05</ele>
        <time>2014-06-09T09:37:52Z</time>
      </trkpt>
      <trkpt lat="46.14453" lon="6.56909">
        <ele>1742.53</ele>
        <time>2014-06-09T09:37:55Z</time>
      </trkpt>
      <trkpt lat="46.14448" lon="6.56899">
        <ele>1742.53</ele>
        <time>2014-06-09T09:38:04Z</time>
      </trkpt>
      <trkpt lat="46.14445" lon="6.5689">
        <ele>1743.97</ele>
        <time>2014-06-09T09:38:12Z</time>
      </trkpt>
      <trkpt lat="46.1444" lon="6.56881">
        <ele>1744.93</ele>
        <time>2014-06-09T09:38:20Z</time>
      </trkpt>
      <trkpt lat="46.14435" lon="6.56873">
        <ele>1746.37</ele>
        <time>2014-06-09T09:38:29Z</time>
      </trkpt>
      <trkpt lat="46.14432" lon="6.56869">
        <ele>1746.85</ele>
        <time>2014-06-09T09:38:34Z</time>
      </trkpt>
      <trkpt lat="46.1443" lon="6.56867">
        <ele>1746.85</ele>
        <time>2014-06-09T09:38:37Z</time>
      </trkpt>
      <trkpt lat="46.14428" lon="6.56864">
        <ele>1747.33</ele>
        <time>2014-06-09T09:38:40Z</time>
      </trkpt>
      <trkpt lat="46.14428" lon="6.56857">
        <ele>1749.74</ele>
        <time>2014-06-09T09:38:48Z</time>
      </trkpt>
      <trkpt lat="46.14427" lon="6.56855">
        <ele>1749.74</ele>
        <time>2014-06-09T09:38:49Z</time>
      </trkpt>
      <trkpt lat="46.14425" lon="6.5685">
        <ele>1751.18</ele>
        <time>2014-06-09T09:38:54Z</time>
      </trkpt>
      <trkpt lat="46.14419" lon="6.56843">
        <ele>1752.62</ele>
        <time>2014-06-09T09:39:04Z</time>
      </trkpt>
      <trkpt lat="46.14414" lon="6.56839">
        <ele>1752.62</ele>
        <time>2014-06-09T09:39:09Z</time>
      </trkpt>
      <trkpt lat="46.14412" lon="6.56832">
        <ele>1754.06</ele>
        <time>2014-06-09T09:39:16Z</time>
      </trkpt>
      <trkpt lat="46.14408" lon="6.56824">
        <ele>1755.5</ele>
        <time>2014-06-09T09:39:25Z</time>
      </trkpt>
      <trkpt lat="46.14405" lon="6.56822">
        <ele>1756.47</ele>
        <time>2014-06-09T09:39:29Z</time>
      </trkpt>
      <trkpt lat="46.14397" lon="6.56811">
        <ele>1757.43</ele>
        <time>2014-06-09T09:39:39Z</time>
      </trkpt>
      <trkpt lat="46.14389" lon="6.56807">
        <ele>1757.91</ele>
        <time>2014-06-09T09:39:48Z</time>
      </trkpt>
      <trkpt lat="46.14384" lon="6.56802">
        <ele>1758.39</ele>
        <time>2014-06-09T09:39:57Z</time>
      </trkpt>
      <trkpt lat="46.14383" lon="6.568">
        <ele>1758.87</ele>
        <time>2014-06-09T09:40:01Z</time>
      </trkpt>
      <trkpt lat="46.14372" lon="6.56791">
        <ele>1759.83</ele>
        <time>2014-06-09T09:40:12Z</time>
      </trkpt>
      <trkpt lat="46.1437" lon="6.56789">
        <ele>1760.31</ele>
        <time>2014-06-09T09:40:16Z</time>
      </trkpt>
      <trkpt lat="46.14364" lon="6.56782">
        <ele>1760.31</ele>
        <time>2014-06-09T09:40:26Z</time>
      </trkpt>
      <trkpt lat="46.14359" lon="6.56778">
        <ele>1760.31</ele>
        <time>2014-06-09T09:40:31Z</time>
      </trkpt>
      <trkpt lat="46.14357" lon="6.56776">
        <ele>1761.27</ele>
        <time>2014-06-09T09:40:34Z</time>
      </trkpt>
      <trkpt lat="46.14353" lon="6.56773">
        <ele>1761.75</ele>
        <time>2014-06-09T09:40:39Z</time>
      </trkpt>
      <trkpt lat="46.14352" lon="6.56771">
        <ele>1761.75</ele>
        <time>2014-06-09T09:40:41Z</time>
      </trkpt>
      <trkpt lat="46.14348" lon="6.56768">
        <ele>1763.2</ele>
        <time>2014-06-09T09:40:46Z</time>
      </trkpt>
      <trkpt lat="46.14345" lon="6.56764">
        <ele>1764.64</ele>
        <time>2014-06-09T09:40:51Z</time>
      </trkpt>
      <trkpt lat="46.14342" lon="6.56756">
        <ele>1766.56</ele>
        <time>2014-06-09T09:40:58Z</time>
      </trkpt>
      <trkpt lat="46.14341" lon="6.56753">
        <ele>1768</ele>
        <time>2014-06-09T09:41:02Z</time>
      </trkpt>
      <trkpt lat="46.14339" lon="6.56746">
        <ele>1768.48</ele>
        <time>2014-06-09T09:41:06Z</time>
      </trkpt>
      <trkpt lat="46.14337" lon="6.56738">
        <ele>1769.44</ele>
        <time>2014-06-09T09:41:12Z</time>
      </trkpt>
      <trkpt lat="46.14331" lon="6.56722">
        <ele>1769.44</ele>
        <time>2014-06-09T09:41:24Z</time>
      </trkpt>
      <trkpt lat="46.14331" lon="6.56721">
        <ele>1769.44</ele>
        <time>2014-06-09T09:41:25Z</time>
      </trkpt>
      <trkpt lat="46.14329" lon="6.56704">
        <ele>1770.41</ele>
        <time>2014-06-09T09:41:37Z</time>
      </trkpt>
      <trkpt lat="46.14328" lon="6.56691">
        <ele>1772.33</ele>
        <time>2014-06-09T09:41:45Z</time>
      </trkpt>
      <trkpt lat="46.14328" lon="6.5668">
        <ele>1774.73</ele>
        <time>2014-06-09T09:41:54Z</time>
      </trkpt>
      <trkpt lat="46.14324" lon="6.56666">
        <ele>1776.17</ele>
        <time>2014-06-09T09:42:04Z</time>
      </trkpt>
      <trkpt lat="46.1432" lon="6.56654">
        <ele>1777.13</ele>
        <time>2014-06-09T09:42:14Z</time>
      </trkpt>
      <trkpt lat="46.14317" lon="6.56641">
        <ele>1779.54</ele>
        <time>2014-06-09T09:42:24Z</time>
      </trkpt>
      <trkpt lat="46.14315" lon="6.56633">
        <ele>1782.9</ele>
        <time>2014-06-09T09:42:33Z</time>
      </trkpt>
      <trkpt lat="46.14313" lon="6.56624">
        <ele>1784.82</ele>
        <time>2014-06-09T09:42:42Z</time>
      </trkpt>
      <trkpt lat="46.14311" lon="6.56614">
        <ele>1786.27</ele>
        <time>2014-06-09T09:42:51Z</time>
      </trkpt>
      <trkpt lat="46.14311" lon="6.56608">
        <ele>1786.27</ele>
        <time>2014-06-09T09:42:57Z</time>
      </trkpt>
      <trkpt lat="46.14308" lon="6.56597">
        <ele>1787.23</ele>
        <time>2014-06-09T09:43:06Z</time>
      </trkpt>
      <trkpt lat="46.14306" lon="6.56587">
        <ele>1788.67</ele>
        <time>2014-06-09T09:43:15Z</time>
      </trkpt>
      <trkpt lat="46.14305" lon="6.56575">
        <ele>1789.63</ele>
        <time>2014-06-09T09:43:24Z</time>
      </trkpt>
      <trkpt lat="46.14305" lon="6.56574">
        <ele>1789.63</ele>
        <time>2014-06-09T09:43:25Z</time>
      </trkpt>
      <trkpt lat="46.14301" lon="6.56564">
        <ele>1790.59</ele>
        <time>2014-06-09T09:43:35Z</time>
      </trkpt>
      <trkpt lat="46.14299" lon="6.56558">
        <ele>1792.03</ele>
        <time>2014-06-09T09:43:44Z</time>
      </trkpt>
      <trkpt lat="46.14296" lon="6.5655">
        <ele>1792.52</ele>
        <time>2014-06-09T09:43:51Z</time>
      </trkpt>
      <trkpt lat="46.14295" lon="6.56549">
        <ele>1792.52</ele>
        <time>2014-06-09T09:43:52Z</time>
      </trkpt>
      <trkpt lat="46.14295" lon="6.56545">
        <ele>1793.48</ele>
        <time>2014-06-09T09:43:55Z</time>
      </trkpt>
      <trkpt lat="46.14292" lon="6.56533">
        <ele>1794.92</ele>
        <time>2014-06-09T09:44:05Z</time>
      </trkpt>
      <trkpt lat="46.14287" lon="6.56524">
        <ele>1796.36</ele>
        <time>2014-06-09T09:44:13Z</time>
      </trkpt>
      <trkpt lat="46.14285" lon="6.56521">
        <ele>1796.36</ele>
        <time>2014-06-09T09:44:17Z</time>
      </trkpt>
      <trkpt lat="46.14282" lon="6.5651">
        <ele>1797.32</ele>
        <time>2014-06-09T09:44:26Z</time>
      </trkpt>
      <trkpt lat="46.14278" lon="6.56504">
        <ele>1798.28</ele>
        <time>2014-06-09T09:44:35Z</time>
      </trkpt>
      <trkpt lat="46.14274" lon="6.56499">
        <ele>1800.21</ele>
        <time>2014-06-09T09:44:44Z</time>
      </trkpt>
      <trkpt lat="46.1427" lon="6.56493">
        <ele>1801.65</ele>
        <time>2014-06-09T09:44:52Z</time>
      </trkpt>
      <trkpt lat="46.14266" lon="6.56485">
        <ele>1802.13</ele>
        <time>2014-06-09T09:45:02Z</time>
      </trkpt>
      <trkpt lat="46.14264" lon="6.56479">
        <ele>1803.09</ele>
        <time>2014-06-09T09:45:08Z</time>
      </trkpt>
      <trkpt lat="46.14261" lon="6.56471">
        <ele>1805.97</ele>
        <time>2014-06-09T09:45:17Z</time>
      </trkpt>
      <trkpt lat="46.14257" lon="6.56466">
        <ele>1808.86</ele>
        <time>2014-06-09T09:45:27Z</time>
      </trkpt>
      <trkpt lat="46.14255" lon="6.56465">
        <ele>1808.86</ele>
        <time>2014-06-09T09:45:29Z</time>
      </trkpt>
      <trkpt lat="46.14254" lon="6.56463">
        <ele>1809.34</ele>
        <time>2014-06-09T09:45:32Z</time>
      </trkpt>
      <trkpt lat="46.14248" lon="6.56456">
        <ele>1811.26</ele>
        <time>2014-06-09T09:45:42Z</time>
      </trkpt>
      <trkpt lat="46.14242" lon="6.56448">
        <ele>1812.7</ele>
        <time>2014-06-09T09:45:52Z</time>
      </trkpt>
      <trkpt lat="46.14239" lon="6.56443">
        <ele>1815.11</ele>
        <time>2014-06-09T09:46:01Z</time>
      </trkpt>
      <trkpt lat="46.14238" lon="6.56441">
        <ele>1815.11</ele>
        <time>2014-06-09T09:46:03Z</time>
      </trkpt>
      <trkpt lat="46.14237" lon="6.56434">
        <ele>1816.55</ele>
        <time>2014-06-09T09:46:10Z</time>
      </trkpt>
      <trkpt lat="46.14229" lon="6.56427">
        <ele>1817.03</ele>
        <time>2014-06-09T09:46:20Z</time>
      </trkpt>
      <trkpt lat="46.14224" lon="6.56419">
        <ele>1817.51</ele>
        <time>2014-06-09T09:46:28Z</time>
      </trkpt>
      <trkpt lat="46.14217" lon="6.5641">
        <ele>1819.91</ele>
        <time>2014-06-09T09:46:38Z</time>
      </trkpt>
      <trkpt lat="46.14212" lon="6.56401">
        <ele>1820.39</ele>
        <time>2014-06-09T09:46:47Z</time>
      </trkpt>
      <trkpt lat="46.14208" lon="6.56393">
        <ele>1821.84</ele>
        <time>2014-06-09T09:46:56Z</time>
      </trkpt>
      <trkpt lat="46.14202" lon="6.56386">
        <ele>1824.24</ele>
        <time>2014-06-09T09:47:05Z</time>
      </trkpt>
      <trkpt lat="46.14198" lon="6.56379">
        <ele>1827.12</ele>
        <time>2014-06-09T09:47:14Z</time>
      </trkpt>
      <trkpt lat="46.14197" lon="6.56378">
        <ele>1827.6</ele>
        <time>2014-06-09T09:47:16Z</time>
      </trkpt>
      <trkpt lat="46.14195" lon="6.56377">
        <ele>1828.56</ele>
        <time>2014-06-09T09:47:19Z</time>
      </trkpt>
      <trkpt lat="46.14191" lon="6.56372">
        <ele>1830.01</ele>
        <time>2014-06-09T09:47:26Z</time>
      </trkpt>
      <trkpt lat="46.14187" lon="6.56363">
        <ele>1831.45</ele>
        <time>2014-06-09T09:47:35Z</time>
      </trkpt>
      <trkpt lat="46.14181" lon="6.56355">
        <ele>1833.85</ele>
        <time>2014-06-09T09:47:44Z</time>
      </trkpt>
      <trkpt lat="46.14176" lon="6.5635">
        <ele>1835.77</ele>
        <time>2014-06-09T09:47:51Z</time>
      </trkpt>
      <trkpt lat="46.14174" lon="6.56347">
        <ele>1836.74</ele>
        <time>2014-06-09T09:47:55Z</time>
      </trkpt>
      <trkpt lat="46.14171" lon="6.56348">
        <ele>1836.74</ele>
        <time>2014-06-09T09:47:58Z</time>
      </trkpt>
      <trkpt lat="46.14162" lon="6.56343">
        <ele>1835.77</ele>
        <time>2014-06-09T09:48:10Z</time>
      </trkpt>
      <trkpt lat="46.14157" lon="6.56337">
        <ele>1837.7</ele>
        <time>2014-06-09T09:48:31Z</time>
      </trkpt>
      <trkpt lat="46.14138" lon="6.56335">
        <ele>1840.58</ele>
        <time>2014-06-09T09:48:48Z</time>
      </trkpt>
      <trkpt lat="46.14117" lon="6.56332">
        <ele>1842.98</ele>
        <time>2014-06-09T09:49:08Z</time>
      </trkpt>
      <trkpt lat="46.14097" lon="6.56339">
        <ele>1844.91</ele>
        <time>2014-06-09T09:49:27Z</time>
      </trkpt>
      <trkpt lat="46.14092" lon="6.56341">
        <ele>1845.39</ele>
        <time>2014-06-09T09:49:32Z</time>
      </trkpt>
      <trkpt lat="46.14077" lon="6.56351">
        <ele>1846.83</ele>
        <time>2014-06-09T09:49:48Z</time>
      </trkpt>
      <trkpt lat="46.14072" lon="6.56354">
        <ele>1846.83</ele>
        <time>2014-06-09T09:49:53Z</time>
      </trkpt>
      <trkpt lat="46.14065" lon="6.56355">
        <ele>1847.31</ele>
        <time>2014-06-09T09:49:59Z</time>
      </trkpt>
      <trkpt lat="46.14063" lon="6.56348">
        <ele>1847.79</ele>
        <time>2014-06-09T09:50:13Z</time>
      </trkpt>
      <trkpt lat="46.14061" lon="6.56342">
        <ele>1848.27</ele>
        <time>2014-06-09T09:50:28Z</time>
      </trkpt>
      <trkpt lat="46.14058" lon="6.56343">
        <ele>1851.16</ele>
        <time>2014-06-09T09:50:39Z</time>
      </trkpt>
      <trkpt lat="46.14055" lon="6.56345">
        <ele>1852.6</ele>
        <time>2014-06-09T09:50:46Z</time>
      </trkpt>
      <trkpt lat="46.14047" lon="6.56346">
        <ele>1855</ele>
        <time>2014-06-09T09:50:56Z</time>
      </trkpt>
      <trkpt lat="46.14046" lon="6.56347">
        <ele>1855.96</ele>
        <time>2014-06-09T09:50:59Z</time>
      </trkpt>
      <trkpt lat="46.14044" lon="6.56346">
        <ele>1856.92</ele>
        <time>2014-06-09T09:51:02Z</time>
      </trkpt>
      <trkpt lat="46.1404" lon="6.56345">
        <ele>1858.85</ele>
        <time>2014-06-09T09:51:09Z</time>
      </trkpt>
      <trkpt lat="46.14037" lon="6.56345">
        <ele>1861.73</ele>
        <time>2014-06-09T09:51:23Z</time>
      </trkpt>
      <trkpt lat="46.14037" lon="6.56345">
        <ele>1861.73</ele>
        <time>2014-06-09T09:51:28Z</time>
      </trkpt>
      <trkpt lat="46.14031" lon="6.56346">
        <ele>1861.73</ele>
        <time>2014-06-09T09:51:40Z</time>
      </trkpt>
      <trkpt lat="46.1402" lon="6.56351">
        <ele>1857.89</ele>
        <time>2014-06-09T09:51:53Z</time>
      </trkpt>
      <trkpt lat="46.14009" lon="6.56357">
        <ele>1853.56</ele>
        <time>2014-06-09T09:52:05Z</time>
      </trkpt>
      <trkpt lat="46.13996" lon="6.5636">
        <ele>1852.12</ele>
        <time>2014-06-09T09:52:16Z</time>
      </trkpt>
      <trkpt lat="46.13984" lon="6.56365">
        <ele>1850.68</ele>
        <time>2014-06-09T09:52:28Z</time>
      </trkpt>
      <trkpt lat="46.13977" lon="6.56368">
        <ele>1850.19</ele>
        <time>2014-06-09T09:52:34Z</time>
      </trkpt>
      <trkpt lat="46.13958" lon="6.56373">
        <ele>1850.19</ele>
        <time>2014-06-09T09:52:48Z</time>
      </trkpt>
      <trkpt lat="46.13944" lon="6.56379">
        <ele>1850.68</ele>
        <time>2014-06-09T09:53:00Z</time>
      </trkpt>
      <trkpt lat="46.13932" lon="6.56383">
        <ele>1852.12</ele>
        <time>2014-06-09T09:53:11Z</time>
      </trkpt>
      <trkpt lat="46.1393" lon="6.56383">
        <ele>1852.6</ele>
        <time>2014-06-09T09:53:13Z</time>
      </trkpt>
      <trkpt lat="46.13929" lon="6.56382">
        <ele>1853.08</ele>
        <time>2014-06-09T09:53:14Z</time>
      </trkpt>
      <trkpt lat="46.13927" lon="6.56382">
        <ele>1853.08</ele>
        <time>2014-06-09T09:53:15Z</time>
      </trkpt>
      <trkpt lat="46.13914" lon="6.5638">
        <ele>1854.04</ele>
        <time>2014-06-09T09:53:26Z</time>
      </trkpt>
      <trkpt lat="46.13895" lon="6.56378">
        <ele>1856.44</ele>
        <time>2014-06-09T09:53:42Z</time>
      </trkpt>
      <trkpt lat="46.13883" lon="6.56379">
        <ele>1855.96</ele>
        <time>2014-06-09T09:53:55Z</time>
      </trkpt>
      <trkpt lat="46.13877" lon="6.56379">
        <ele>1855.96</ele>
        <time>2014-06-09T09:54:02Z</time>
      </trkpt>
      <trkpt lat="46.13875" lon="6.56379">
        <ele>1855.96</ele>
        <time>2014-06-09T09:54:03Z</time>
      </trkpt>
      <trkpt lat="46.13864" lon="6.56379">
        <ele>1856.44</ele>
        <time>2014-06-09T09:54:14Z</time>
      </trkpt>
      <trkpt lat="46.13862" lon="6.56378">
        <ele>1856.44</ele>
        <time>2014-06-09T09:54:17Z</time>
      </trkpt>
      <trkpt lat="46.13847" lon="6.56378">
        <ele>1857.4</ele>
        <time>2014-06-09T09:54:29Z</time>
      </trkpt>
      <trkpt lat="46.13838" lon="6.56379">
        <ele>1861.25</ele>
        <time>2014-06-09T09:54:39Z</time>
      </trkpt>
      <trkpt lat="46.13826" lon="6.56379">
        <ele>1861.73</ele>
        <time>2014-06-09T09:54:51Z</time>
      </trkpt>
      <trkpt lat="46.13808" lon="6.56379">
        <ele>1862.21</ele>
        <time>2014-06-09T09:55:04Z</time>
      </trkpt>
      <trkpt lat="46.13795" lon="6.56379">
        <ele>1863.65</ele>
        <time>2014-06-09T09:55:14Z</time>
      </trkpt>
      <trkpt lat="46.13793" lon="6.56379">
        <ele>1863.65</ele>
        <time>2014-06-09T09:55:17Z</time>
      </trkpt>
      <trkpt lat="46.13792" lon="6.56379">
        <ele>1864.13</ele>
        <time>2014-06-09T09:55:18Z</time>
      </trkpt>
      <trkpt lat="46.13789" lon="6.56379">
        <ele>1864.13</ele>
        <time>2014-06-09T09:55:19Z</time>
      </trkpt>
      <trkpt lat="46.13788" lon="6.56379">
        <ele>1864.13</ele>
        <time>2014-06-09T09:55:20Z</time>
      </trkpt>
      <trkpt lat="46.13786" lon="6.56379">
        <ele>1864.61</ele>
        <time>2014-06-09T09:55:21Z</time>
      </trkpt>
      <trkpt lat="46.13777" lon="6.5638">
        <ele>1865.58</ele>
        <time>2014-06-09T09:55:30Z</time>
      </trkpt>
      <trkpt lat="46.13769" lon="6.56381">
        <ele>1866.06</ele>
        <time>2014-06-09T09:55:37Z</time>
      </trkpt>
      <trkpt lat="46.13767" lon="6.5638">
        <ele>1866.06</ele>
        <time>2014-06-09T09:55:38Z</time>
      </trkpt>
      <trkpt lat="46.13765" lon="6.56381">
        <ele>1866.06</ele>
        <time>2014-06-09T09:55:39Z</time>
      </trkpt>
      <trkpt lat="46.13763" lon="6.56381">
        <ele>1866.06</ele>
        <time>2014-06-09T09:55:40Z</time>
      </trkpt>
      <trkpt lat="46.13762" lon="6.56382">
        <ele>1866.06</ele>
        <time>2014-06-09T09:55:41Z</time>
      </trkpt>
      <trkpt lat="46.13756" lon="6.56382">
        <ele>1865.09</ele>
        <time>2014-06-09T09:55:49Z</time>
      </trkpt>
      <trkpt lat="46.13755" lon="6.56382">
        <ele>1865.09</ele>
        <time>2014-06-09T09:55:50Z</time>
      </trkpt>
      <trkpt lat="46.13738" lon="6.56385">
        <ele>1866.06</ele>
        <time>2014-06-09T09:56:05Z</time>
      </trkpt>
      <trkpt lat="46.1372" lon="6.56393">
        <ele>1868.46</ele>
        <time>2014-06-09T09:56:19Z</time>
      </trkpt>
      <trkpt lat="46.13719" lon="6.56393">
        <ele>1868.46</ele>
        <time>2014-06-09T09:56:20Z</time>
      </trkpt>
      <trkpt lat="46.13718" lon="6.56394">
        <ele>1868.94</ele>
        <time>2014-06-09T09:56:21Z</time>
      </trkpt>
      <trkpt lat="46.13717" lon="6.56395">
        <ele>1868.94</ele>
        <time>2014-06-09T09:56:22Z</time>
      </trkpt>
      <trkpt lat="46.13715" lon="6.56396">
        <ele>1868.94</ele>
        <time>2014-06-09T09:56:23Z</time>
      </trkpt>
      <trkpt lat="46.13713" lon="6.56397">
        <ele>1868.94</ele>
        <time>2014-06-09T09:56:24Z</time>
      </trkpt>
      <trkpt lat="46.13711" lon="6.56397">
        <ele>1868.94</ele>
        <time>2014-06-09T09:56:25Z</time>
      </trkpt>
      <trkpt lat="46.13708" lon="6.564">
        <ele>1869.42</ele>
        <time>2014-06-09T09:56:30Z</time>
      </trkpt>
      <trkpt lat="46.13706" lon="6.56402">
        <ele>1869.42</ele>
        <time>2014-06-09T09:56:31Z</time>
      </trkpt>
      <trkpt lat="46.13705" lon="6.56403">
        <ele>1869.42</ele>
        <time>2014-06-09T09:56:32Z</time>
      </trkpt>
      <trkpt lat="46.13702" lon="6.56405">
        <ele>1869.42</ele>
        <time>2014-06-09T09:56:36Z</time>
      </trkpt>
      <trkpt lat="46.13698" lon="6.56414">
        <ele>1869.9</ele>
        <time>2014-06-09T09:56:47Z</time>
      </trkpt>
      <trkpt lat="46.13695" lon="6.56423">
        <ele>1870.86</ele>
        <time>2014-06-09T09:56:59Z</time>
      </trkpt>
      <trkpt lat="46.13692" lon="6.5643">
        <ele>1870.38</ele>
        <time>2014-06-09T09:57:11Z</time>
      </trkpt>
      <trkpt lat="46.13691" lon="6.56434">
        <ele>1870.38</ele>
        <time>2014-06-09T09:57:16Z</time>
      </trkpt>
      <trkpt lat="46.13688" lon="6.56441">
        <ele>1869.42</ele>
        <time>2014-06-09T09:57:28Z</time>
      </trkpt>
      <trkpt lat="46.13687" lon="6.5645">
        <ele>1867.98</ele>
        <time>2014-06-09T09:57:38Z</time>
      </trkpt>
      <trkpt lat="46.13686" lon="6.56456">
        <ele>1867.02</ele>
        <time>2014-06-09T09:57:43Z</time>
      </trkpt>
      <trkpt lat="46.13684" lon="6.5646">
        <ele>1867.02</ele>
        <time>2014-06-09T09:57:48Z</time>
      </trkpt>
      <trkpt lat="46.13679" lon="6.56466">
        <ele>1867.02</ele>
        <time>2014-06-09T09:57:57Z</time>
      </trkpt>
      <trkpt lat="46.13678" lon="6.56469">
        <ele>1867.02</ele>
        <time>2014-06-09T09:58:08Z</time>
      </trkpt>
      <trkpt lat="46.13675" lon="6.5647">
        <ele>1867.98</ele>
        <time>2014-06-09T09:58:24Z</time>
      </trkpt>
      <trkpt lat="46.13673" lon="6.56472">
        <ele>1866.54</ele>
        <time>2014-06-09T09:58:36Z</time>
      </trkpt>
      <trkpt lat="46.1367" lon="6.56479">
        <ele>1865.58</ele>
        <time>2014-06-09T09:58:48Z</time>
      </trkpt>
      <trkpt lat="46.13669" lon="6.5648">
        <ele>1865.58</ele>
        <time>2014-06-09T09:58:50Z</time>
      </trkpt>
      <trkpt lat="46.13666" lon="6.56486">
        <ele>1867.02</ele>
        <time>2014-06-09T09:58:59Z</time>
      </trkpt>
      <trkpt lat="46.13661" lon="6.56493">
        <ele>1867.02</ele>
        <time>2014-06-09T09:59:09Z</time>
      </trkpt>
      <trkpt lat="46.13656" lon="6.56496">
        <ele>1868.94</ele>
        <time>2014-06-09T09:59:20Z</time>
      </trkpt>
      <trkpt lat="46.13656" lon="6.565">
        <ele>1871.82</ele>
        <time>2014-06-09T09:59:30Z</time>
      </trkpt>
      <trkpt lat="46.13655" lon="6.56504">
        <ele>1875.19</ele>
        <time>2014-06-09T09:59:40Z</time>
      </trkpt>
      <trkpt lat="46.13654" lon="6.56506">
        <ele>1876.15</ele>
        <time>2014-06-09T09:59:43Z</time>
      </trkpt>
      <trkpt lat="46.13649" lon="6.56508">
        <ele>1877.11</ele>
        <time>2014-06-09T09:59:50Z</time>
      </trkpt>
      <trkpt lat="46.13647" lon="6.56509">
        <ele>1877.59</ele>
        <time>2014-06-09T09:59:53Z</time>
      </trkpt>
      <trkpt lat="46.13646" lon="6.5651">
        <ele>1877.59</ele>
        <time>2014-06-09T09:59:54Z</time>
      </trkpt>
      <trkpt lat="46.13645" lon="6.5651">
        <ele>1878.07</ele>
        <time>2014-06-09T09:59:55Z</time>
      </trkpt>
      <trkpt lat="46.13642" lon="6.56511">
        <ele>1878.55</ele>
        <time>2014-06-09T09:59:59Z</time>
      </trkpt>
      <trkpt lat="46.13641" lon="6.56512">
        <ele>1878.55</ele>
        <time>2014-06-09T10:00:00Z</time>
      </trkpt>
      <trkpt lat="46.1364" lon="6.56513">
        <ele>1878.55</ele>
        <time>2014-06-09T10:00:01Z</time>
      </trkpt>
      <trkpt lat="46.13631" lon="6.56525">
        <ele>1877.11</ele>
        <time>2014-06-09T10:00:13Z</time>
      </trkpt>
      <trkpt lat="46.13627" lon="6.56532">
        <ele>1875.67</ele>
        <time>2014-06-09T10:00:21Z</time>
      </trkpt>
      <trkpt lat="46.13624" lon="6.56535">
        <ele>1873.75</ele>
        <time>2014-06-09T10:00:34Z</time>
      </trkpt>
      <trkpt lat="46.13619" lon="6.56535">
        <ele>1870.38</ele>
        <time>2014-06-09T10:00:51Z</time>
      </trkpt>
      <trkpt lat="46.13616" lon="6.56542">
        <ele>1867.5</ele>
        <time>2014-06-09T10:01:04Z</time>
      </trkpt>
      <trkpt lat="46.13611" lon="6.56549">
        <ele>1865.09</ele>
        <time>2014-06-09T10:01:15Z</time>
      </trkpt>
      <trkpt lat="46.13609" lon="6.56549">
        <ele>1864.61</ele>
        <time>2014-06-09T10:01:16Z</time>
      </trkpt>
      <trkpt lat="46.13608" lon="6.56549">
        <ele>1864.61</ele>
        <time>2014-06-09T10:01:17Z</time>
      </trkpt>
      <trkpt lat="46.13606" lon="6.56549">
        <ele>1864.13</ele>
        <time>2014-06-09T10:01:18Z</time>
      </trkpt>
      <trkpt lat="46.13602" lon="6.56555">
        <ele>1863.65</ele>
        <time>2014-06-09T10:01:24Z</time>
      </trkpt>
      <trkpt lat="46.13602" lon="6.56556">
        <ele>1863.65</ele>
        <time>2014-06-09T10:01:25Z</time>
      </trkpt>
      <trkpt lat="46.136" lon="6.56558">
        <ele>1863.17</ele>
        <time>2014-06-09T10:01:26Z</time>
      </trkpt>
      <trkpt lat="46.13594" lon="6.56569">
        <ele>1862.21</ele>
        <time>2014-06-09T10:01:37Z</time>
      </trkpt>
      <trkpt lat="46.13589" lon="6.56579">
        <ele>1862.69</ele>
        <time>2014-06-09T10:01:48Z</time>
      </trkpt>
      <trkpt lat="46.13584" lon="6.56589">
        <ele>1863.65</ele>
        <time>2014-06-09T10:01:57Z</time>
      </trkpt>
      <trkpt lat="46.13579" lon="6.56598">
        <ele>1866.54</ele>
        <time>2014-06-09T10:02:06Z</time>
      </trkpt>
      <trkpt lat="46.13577" lon="6.56599">
        <ele>1867.02</ele>
        <time>2014-06-09T10:02:09Z</time>
      </trkpt>
      <trkpt lat="46.13574" lon="6.56602">
        <ele>1868.94</ele>
        <time>2014-06-09T10:02:16Z</time>
      </trkpt>
      <trkpt lat="46.13569" lon="6.56605">
        <ele>1870.86</ele>
        <time>2014-06-09T10:02:24Z</time>
      </trkpt>
      <trkpt lat="46.13566" lon="6.56605">
        <ele>1871.34</ele>
        <time>2014-06-09T10:02:31Z</time>
      </trkpt>
      <trkpt lat="46.13565" lon="6.56606">
        <ele>1871.34</ele>
        <time>2014-06-09T10:02:32Z</time>
      </trkpt>
      <trkpt lat="46.13563" lon="6.56608">
        <ele>1871.34</ele>
        <time>2014-06-09T10:02:35Z</time>
      </trkpt>
      <trkpt lat="46.13562" lon="6.5661">
        <ele>1871.34</ele>
        <time>2014-06-09T10:02:36Z</time>
      </trkpt>
      <trkpt lat="46.13556" lon="6.56619">
        <ele>1871.34</ele>
        <time>2014-06-09T10:02:47Z</time>
      </trkpt>
      <trkpt lat="46.13551" lon="6.56622">
        <ele>1873.75</ele>
        <time>2014-06-09T10:02:57Z</time>
      </trkpt>
      <trkpt lat="46.13547" lon="6.56624">
        <ele>1875.19</ele>
        <time>2014-06-09T10:03:04Z</time>
      </trkpt>
      <trkpt lat="46.13543" lon="6.56625">
        <ele>1878.07</ele>
        <time>2014-06-09T10:03:14Z</time>
      </trkpt>
      <trkpt lat="46.13542" lon="6.56626">
        <ele>1878.07</ele>
        <time>2014-06-09T10:03:16Z</time>
      </trkpt>
      <trkpt lat="46.13538" lon="6.56631">
        <ele>1879.51</ele>
        <time>2014-06-09T10:03:25Z</time>
      </trkpt>
      <trkpt lat="46.13535" lon="6.56636">
        <ele>1880.48</ele>
        <time>2014-06-09T10:03:34Z</time>
      </trkpt>
      <trkpt lat="46.13526" lon="6.56641">
        <ele>1883.36</ele>
        <time>2014-06-09T10:03:46Z</time>
      </trkpt>
      <trkpt lat="46.13522" lon="6.56644">
        <ele>1884.32</ele>
        <time>2014-06-09T10:03:57Z</time>
      </trkpt>
      <trkpt lat="46.13518" lon="6.56646">
        <ele>1886.24</ele>
        <time>2014-06-09T10:04:08Z</time>
      </trkpt>
      <trkpt lat="46.13516" lon="6.56647">
        <ele>1886.72</ele>
        <time>2014-06-09T10:04:11Z</time>
      </trkpt>
      <trkpt lat="46.13514" lon="6.56648">
        <ele>1887.21</ele>
        <time>2014-06-09T10:04:14Z</time>
      </trkpt>
      <trkpt lat="46.13512" lon="6.56651">
        <ele>1887.69</ele>
        <time>2014-06-09T10:04:18Z</time>
      </trkpt>
      <trkpt lat="46.13507" lon="6.56653">
        <ele>1888.65</ele>
        <time>2014-06-09T10:04:28Z</time>
      </trkpt>
      <trkpt lat="46.13503" lon="6.56654">
        <ele>1891.05</ele>
        <time>2014-06-09T10:04:36Z</time>
      </trkpt>
      <trkpt lat="46.13499" lon="6.56659">
        <ele>1892.97</ele>
        <time>2014-06-09T10:04:47Z</time>
      </trkpt>
      <trkpt lat="46.13494" lon="6.56668">
        <ele>1895.38</ele>
        <time>2014-06-09T10:05:00Z</time>
      </trkpt>
      <trkpt lat="46.13491" lon="6.56673">
        <ele>1896.82</ele>
        <time>2014-06-09T10:05:13Z</time>
      </trkpt>
      <trkpt lat="46.13488" lon="6.56672">
        <ele>1895.38</ele>
        <time>2014-06-09T10:05:26Z</time>
      </trkpt>
      <trkpt lat="46.13486" lon="6.56674">
        <ele>1895.38</ele>
        <time>2014-06-09T10:05:29Z</time>
      </trkpt>
      <trkpt lat="46.13482" lon="6.56678">
        <ele>1895.86</ele>
        <time>2014-06-09T10:05:35Z</time>
      </trkpt>
      <trkpt lat="46.13478" lon="6.5668">
        <ele>1895.86</ele>
        <time>2014-06-09T10:05:44Z</time>
      </trkpt>
      <trkpt lat="46.13476" lon="6.56684">
        <ele>1896.34</ele>
        <time>2014-06-09T10:05:56Z</time>
      </trkpt>
      <trkpt lat="46.1347" lon="6.56686">
        <ele>1896.82</ele>
        <time>2014-06-09T10:06:09Z</time>
      </trkpt>
      <trkpt lat="46.13462" lon="6.567">
        <ele>1897.78</ele>
        <time>2014-06-09T10:06:25Z</time>
      </trkpt>
      <trkpt lat="46.13454" lon="6.56709">
        <ele>1898.26</ele>
        <time>2014-06-09T10:06:41Z</time>
      </trkpt>
      <trkpt lat="46.13446" lon="6.56708">
        <ele>1899.22</ele>
        <time>2014-06-09T10:06:56Z</time>
      </trkpt>
      <trkpt lat="46.13441" lon="6.56706">
        <ele>1903.07</ele>
        <time>2014-06-09T10:07:11Z</time>
      </trkpt>
      <trkpt lat="46.13436" lon="6.56707">
        <ele>1906.91</ele>
        <time>2014-06-09T10:07:25Z</time>
      </trkpt>
      <trkpt lat="46.13431" lon="6.5671">
        <ele>1910.76</ele>
        <time>2014-06-09T10:07:41Z</time>
      </trkpt>
      <trkpt lat="46.13431" lon="6.56712">
        <ele>1915.56</ele>
        <time>2014-06-09T10:07:54Z</time>
      </trkpt>
      <trkpt lat="46.13431" lon="6.56713">
        <ele>1915.08</ele>
        <time>2014-06-09T10:08:19Z</time>
      </trkpt>
      <trkpt lat="46.13429" lon="6.56712">
        <ele>1913.16</ele>
        <time>2014-06-09T10:08:37Z</time>
      </trkpt>
      <trkpt lat="46.13428" lon="6.5671">
        <ele>1912.68</ele>
        <time>2014-06-09T10:09:03Z</time>
      </trkpt>
      <trkpt lat="46.13432" lon="6.56715">
        <ele>1914.6</ele>
        <time>2014-06-09T10:09:28Z</time>
      </trkpt>
      <trkpt lat="46.13429" lon="6.56715">
        <ele>1913.64</ele>
        <time>2014-06-09T10:09:52Z</time>
      </trkpt>
      <trkpt lat="46.13426" lon="6.56722">
        <ele>1912.68</ele>
        <time>2014-06-09T10:10:00Z</time>
      </trkpt>
      <trkpt lat="46.13421" lon="6.56729">
        <ele>1912.68</ele>
        <time>2014-06-09T10:10:08Z</time>
      </trkpt>
      <trkpt lat="46.13421" lon="6.5673">
        <ele>1912.68</ele>
        <time>2014-06-09T10:10:09Z</time>
      </trkpt>
      <trkpt lat="46.13414" lon="6.56749">
        <ele>1909.8</ele>
        <time>2014-06-09T10:10:24Z</time>
      </trkpt>
      <trkpt lat="46.13402" lon="6.5677">
        <ele>1909.8</ele>
        <time>2014-06-09T10:10:43Z</time>
      </trkpt>
      <trkpt lat="46.13397" lon="6.56782">
        <ele>1914.6</ele>
        <time>2014-06-09T10:10:58Z</time>
      </trkpt>
      <trkpt lat="46.13392" lon="6.56795">
        <ele>1919.41</ele>
        <time>2014-06-09T10:11:15Z</time>
      </trkpt>
      <trkpt lat="46.1339" lon="6.56806">
        <ele>1922.77</ele>
        <time>2014-06-09T10:11:28Z</time>
      </trkpt>
      <trkpt lat="46.13384" lon="6.56816">
        <ele>1925.18</ele>
        <time>2014-06-09T10:11:43Z</time>
      </trkpt>
      <trkpt lat="46.13379" lon="6.56827">
        <ele>1928.06</ele>
        <time>2014-06-09T10:11:59Z</time>
      </trkpt>
      <trkpt lat="46.13374" lon="6.5684">
        <ele>1930.46</ele>
        <time>2014-06-09T10:12:15Z</time>
      </trkpt>
      <trkpt lat="46.13367" lon="6.56851">
        <ele>1933.83</ele>
        <time>2014-06-09T10:12:32Z</time>
      </trkpt>
      <trkpt lat="46.13364" lon="6.56864">
        <ele>1937.19</ele>
        <time>2014-06-09T10:12:50Z</time>
      </trkpt>
      <trkpt lat="46.1336" lon="6.56875">
        <ele>1941.04</ele>
        <time>2014-06-09T10:13:07Z</time>
      </trkpt>
      <trkpt lat="46.13357" lon="6.56888">
        <ele>1943.44</ele>
        <time>2014-06-09T10:13:23Z</time>
      </trkpt>
      <trkpt lat="46.13354" lon="6.56893">
        <ele>1945.85</ele>
        <time>2014-06-09T10:13:38Z</time>
      </trkpt>
      <trkpt lat="46.13346" lon="6.56911">
        <ele>1946.33</ele>
        <time>2014-06-09T10:13:56Z</time>
      </trkpt>
      <trkpt lat="46.13342" lon="6.56919">
        <ele>1947.77</ele>
        <time>2014-06-09T10:14:14Z</time>
      </trkpt>
      <trkpt lat="46.13325" lon="6.56941">
        <ele>1946.81</ele>
        <time>2014-06-09T10:14:35Z</time>
      </trkpt>
      <trkpt lat="46.13324" lon="6.56943">
        <ele>1945.85</ele>
        <time>2014-06-09T10:14:56Z</time>
      </trkpt>
      <trkpt lat="46.13318" lon="6.56954">
        <ele>1945.85</ele>
        <time>2014-06-09T10:15:09Z</time>
      </trkpt>
      <trkpt lat="46.13308" lon="6.56973">
        <ele>1946.81</ele>
        <time>2014-06-09T10:15:26Z</time>
      </trkpt>
      <trkpt lat="46.13296" lon="6.56994">
        <ele>1948.25</ele>
        <time>2014-06-09T10:15:44Z</time>
      </trkpt>
      <trkpt lat="46.13286" lon="6.57016">
        <ele>1949.21</ele>
        <time>2014-06-09T10:16:03Z</time>
      </trkpt>
      <trkpt lat="46.13273" lon="6.57034">
        <ele>1952.57</ele>
        <time>2014-06-09T10:16:21Z</time>
      </trkpt>
      <trkpt lat="46.13264" lon="6.57047">
        <ele>1954.98</ele>
        <time>2014-06-09T10:16:40Z</time>
      </trkpt>
      <trkpt lat="46.13256" lon="6.57057">
        <ele>1956.42</ele>
        <time>2014-06-09T10:16:55Z</time>
      </trkpt>
      <trkpt lat="46.13242" lon="6.57071">
        <ele>1955.94</ele>
        <time>2014-06-09T10:17:14Z</time>
      </trkpt>
      <trkpt lat="46.13238" lon="6.57076">
        <ele>1956.42</ele>
        <time>2014-06-09T10:17:19Z</time>
      </trkpt>
      <trkpt lat="46.1323" lon="6.57095">
        <ele>1955.94</ele>
        <time>2014-06-09T10:17:34Z</time>
      </trkpt>
      <trkpt lat="46.13221" lon="6.5711">
        <ele>1953.54</ele>
        <time>2014-06-09T10:17:50Z</time>
      </trkpt>
      <trkpt lat="46.13214" lon="6.57113">
        <ele>1950.65</ele>
        <time>2014-06-09T10:18:06Z</time>
      </trkpt>
      <trkpt lat="46.13211" lon="6.5712">
        <ele>1949.21</ele>
        <time>2014-06-09T10:18:20Z</time>
      </trkpt>
      <trkpt lat="46.1321" lon="6.57122">
        <ele>1949.69</ele>
        <time>2014-06-09T10:18:39Z</time>
      </trkpt>
      <trkpt lat="46.13209" lon="6.57119">
        <ele>1949.69</ele>
        <time>2014-06-09T10:19:00Z</time>
      </trkpt>
      <trkpt lat="46.13211" lon="6.57121">
        <ele>1948.73</ele>
        <time>2014-06-09T10:19:22Z</time>
      </trkpt>
      <trkpt lat="46.13211" lon="6.57123">
        <ele>1948.25</ele>
        <time>2014-06-09T10:19:48Z</time>
      </trkpt>
      <trkpt lat="46.1321" lon="6.57122">
        <ele>1948.25</ele>
        <time>2014-06-09T10:20:11Z</time>
      </trkpt>
      <trkpt lat="46.1321" lon="6.57121">
        <ele>1945.36</ele>
        <time>2014-06-09T10:20:39Z</time>
      </trkpt>
      <trkpt lat="46.13209" lon="6.57121">
        <ele>1945.36</ele>
        <time>2014-06-09T10:21:02Z</time>
      </trkpt>
      <trkpt lat="46.13211" lon="6.57121">
        <ele>1945.36</ele>
        <time>2014-06-09T10:21:27Z</time>
      </trkpt>
      <trkpt lat="46.1321" lon="6.57121">
        <ele>1945.36</ele>
        <time>2014-06-09T10:21:51Z</time>
      </trkpt>
      <trkpt lat="46.1321" lon="6.57122">
        <ele>1946.33</ele>
        <time>2014-06-09T10:22:21Z</time>
      </trkpt>
      <trkpt lat="46.1321" lon="6.57121">
        <ele>1947.77</ele>
        <time>2014-06-09T10:22:46Z</time>
      </trkpt>
      <trkpt lat="46.13209" lon="6.57121">
        <ele>1947.77</ele>
        <time>2014-06-09T10:23:10Z</time>
      </trkpt>
      <trkpt lat="46.1321" lon="6.5712">
        <ele>1950.17</ele>
        <time>2014-06-09T10:23:38Z</time>
      </trkpt>
      <trkpt lat="46.1321" lon="6.57122">
        <ele>1950.65</ele>
        <time>2014-06-09T10:24:00Z</time>
      </trkpt>
      <trkpt lat="46.13211" lon="6.57121">
        <ele>1949.21</ele>
        <time>2014-06-09T10:24:18Z</time>
      </trkpt>
      <trkpt lat="46.13202" lon="6.57128">
        <ele>1948.73</ele>
        <time>2014-06-09T10:24:32Z</time>
      </trkpt>
      <trkpt lat="46.13194" lon="6.57132">
        <ele>1944.88</ele>
        <time>2014-06-09T10:24:47Z</time>
      </trkpt>
      <trkpt lat="46.13187" lon="6.57134">
        <ele>1940.56</ele>
        <time>2014-06-09T10:25:01Z</time>
      </trkpt>
      <trkpt lat="46.1318" lon="6.57145">
        <ele>1937.19</ele>
        <time>2014-06-09T10:25:15Z</time>
      </trkpt>
      <trkpt lat="46.1317" lon="6.5716">
        <ele>1933.83</ele>
        <time>2014-06-09T10:25:32Z</time>
      </trkpt>
      <trkpt lat="46.13164" lon="6.57164">
        <ele>1931.43</ele>
        <time>2014-06-09T10:25:47Z</time>
      </trkpt>
      <trkpt lat="46.13155" lon="6.57172">
        <ele>1930.46</ele>
        <time>2014-06-09T10:26:00Z</time>
      </trkpt>
      <trkpt lat="46.13145" lon="6.57177">
        <ele>1931.43</ele>
        <time>2014-06-09T10:26:14Z</time>
      </trkpt>
      <trkpt lat="46.13135" lon="6.57191">
        <ele>1932.39</ele>
        <time>2014-06-09T10:26:31Z</time>
      </trkpt>
      <trkpt lat="46.13129" lon="6.57195">
        <ele>1930.95</ele>
        <time>2014-06-09T10:26:47Z</time>
      </trkpt>
      <trkpt lat="46.13121" lon="6.5721">
        <ele>1927.1</ele>
        <time>2014-06-09T10:27:03Z</time>
      </trkpt>
      <trkpt lat="46.13112" lon="6.57221">
        <ele>1924.22</ele>
        <time>2014-06-09T10:27:18Z</time>
      </trkpt>
      <trkpt lat="46.13105" lon="6.57229">
        <ele>1921.81</ele>
        <time>2014-06-09T10:27:37Z</time>
      </trkpt>
      <trkpt lat="46.13094" lon="6.57238">
        <ele>1920.37</ele>
        <time>2014-06-09T10:27:52Z</time>
      </trkpt>
      <trkpt lat="46.13082" lon="6.5725">
        <ele>1921.81</ele>
        <time>2014-06-09T10:28:08Z</time>
      </trkpt>
      <trkpt lat="46.13071" lon="6.57263">
        <ele>1921.81</ele>
        <time>2014-06-09T10:28:27Z</time>
      </trkpt>
      <trkpt lat="46.13062" lon="6.57275">
        <ele>1925.18</ele>
        <time>2014-06-09T10:28:44Z</time>
      </trkpt>
      <trkpt lat="46.1305" lon="6.57299">
        <ele>1928.06</ele>
        <time>2014-06-09T10:29:04Z</time>
      </trkpt>
      <trkpt lat="46.13035" lon="6.57321">
        <ele>1929.98</ele>
        <time>2014-06-09T10:29:25Z</time>
      </trkpt>
      <trkpt lat="46.13022" lon="6.57323">
        <ele>1930.95</ele>
        <time>2014-06-09T10:29:45Z</time>
      </trkpt>
      <trkpt lat="46.13017" lon="6.57327">
        <ele>1930.95</ele>
        <time>2014-06-09T10:29:52Z</time>
      </trkpt>
      <trkpt lat="46.13016" lon="6.57327">
        <ele>1930.95</ele>
        <time>2014-06-09T10:29:53Z</time>
      </trkpt>
      <trkpt lat="46.13015" lon="6.57329">
        <ele>1930.95</ele>
        <time>2014-06-09T10:29:54Z</time>
      </trkpt>
      <trkpt lat="46.13014" lon="6.5733">
        <ele>1931.43</ele>
        <time>2014-06-09T10:29:55Z</time>
      </trkpt>
      <trkpt lat="46.13012" lon="6.57331">
        <ele>1931.43</ele>
        <time>2014-06-09T10:29:56Z</time>
      </trkpt>
      <trkpt lat="46.13011" lon="6.57332">
        <ele>1931.43</ele>
        <time>2014-06-09T10:29:57Z</time>
      </trkpt>
      <trkpt lat="46.12997" lon="6.57338">
        <ele>1930.95</ele>
        <time>2014-06-09T10:30:16Z</time>
      </trkpt>
      <trkpt lat="46.12977" lon="6.57351">
        <ele>1931.43</ele>
        <time>2014-06-09T10:30:36Z</time>
      </trkpt>
      <trkpt lat="46.12973" lon="6.57359">
        <ele>1930.95</ele>
        <time>2014-06-09T10:30:53Z</time>
      </trkpt>
      <trkpt lat="46.12975" lon="6.57359">
        <ele>1931.91</ele>
        <time>2014-06-09T10:31:13Z</time>
      </trkpt>
      <trkpt lat="46.12977" lon="6.57359">
        <ele>1933.35</ele>
        <time>2014-06-09T10:31:45Z</time>
      </trkpt>
      <trkpt lat="46.12976" lon="6.57361">
        <ele>1932.87</ele>
        <time>2014-06-09T10:32:05Z</time>
      </trkpt>
      <trkpt lat="46.12974" lon="6.57362">
        <ele>1932.87</ele>
        <time>2014-06-09T10:32:28Z</time>
      </trkpt>
      <trkpt lat="46.12965" lon="6.5737">
        <ele>1933.83</ele>
        <time>2014-06-09T10:32:44Z</time>
      </trkpt>
      <trkpt lat="46.12962" lon="6.5738">
        <ele>1937.19</ele>
        <time>2014-06-09T10:32:59Z</time>
      </trkpt>
      <trkpt lat="46.12954" lon="6.5739">
        <ele>1940.08</ele>
        <time>2014-06-09T10:33:16Z</time>
      </trkpt>
      <trkpt lat="46.12947" lon="6.57396">
        <ele>1943.44</ele>
        <time>2014-06-09T10:33:33Z</time>
      </trkpt>
      <trkpt lat="46.12942" lon="6.57401">
        <ele>1946.33</ele>
        <time>2014-06-09T10:33:51Z</time>
      </trkpt>
      <trkpt lat="46.12938" lon="6.57414">
        <ele>1949.69</ele>
        <time>2014-06-09T10:34:05Z</time>
      </trkpt>
      <trkpt lat="46.12931" lon="6.5742">
        <ele>1950.17</ele>
        <time>2014-06-09T10:34:18Z</time>
      </trkpt>
      <trkpt lat="46.12927" lon="6.57426">
        <ele>1949.69</ele>
        <time>2014-06-09T10:34:32Z</time>
      </trkpt>
      <trkpt lat="46.12923" lon="6.57424">
        <ele>1950.17</ele>
        <time>2014-06-09T10:34:47Z</time>
      </trkpt>
      <trkpt lat="46.12914" lon="6.5743">
        <ele>1954.98</ele>
        <time>2014-06-09T10:35:02Z</time>
      </trkpt>
      <trkpt lat="46.12912" lon="6.57433">
        <ele>1958.34</ele>
        <time>2014-06-09T10:35:20Z</time>
      </trkpt>
      <trkpt lat="46.12905" lon="6.57437">
        <ele>1962.67</ele>
        <time>2014-06-09T10:35:39Z</time>
      </trkpt>
      <trkpt lat="46.12901" lon="6.57443">
        <ele>1964.11</ele>
        <time>2014-06-09T10:35:54Z</time>
      </trkpt>
      <trkpt lat="46.12896" lon="6.5745">
        <ele>1967.48</ele>
        <time>2014-06-09T10:36:13Z</time>
      </trkpt>
      <trkpt lat="46.12895" lon="6.57451">
        <ele>1970.36</ele>
        <time>2014-06-09T10:36:27Z</time>
      </trkpt>
      <trkpt lat="46.12895" lon="6.57452">
        <ele>1972.28</ele>
        <time>2014-06-09T10:37:02Z</time>
      </trkpt>
      <trkpt lat="46.12895" lon="6.57456">
        <ele>1972.76</ele>
        <time>2014-06-09T10:37:18Z</time>
      </trkpt>
      <trkpt lat="46.1289" lon="6.57458">
        <ele>1974.2</ele>
        <time>2014-06-09T10:37:32Z</time>
      </trkpt>
      <trkpt lat="46.12885" lon="6.57464">
        <ele>1978.53</ele>
        <time>2014-06-09T10:37:44Z</time>
      </trkpt>
      <trkpt lat="46.12884" lon="6.57468">
        <ele>1981.9</ele>
        <time>2014-06-09T10:38:02Z</time>
      </trkpt>
      <trkpt lat="46.12885" lon="6.5747">
        <ele>1981.9</ele>
        <time>2014-06-09T10:38:31Z</time>
      </trkpt>
      <trkpt lat="46.12887" lon="6.57473">
        <ele>1980.93</ele>
        <time>2014-06-09T10:38:51Z</time>
      </trkpt>
      <trkpt lat="46.12886" lon="6.57474">
        <ele>1982.38</ele>
        <time>2014-06-09T10:39:17Z</time>
      </trkpt>
      <trkpt lat="46.12885" lon="6.57473">
        <ele>1979.01</ele>
        <time>2014-06-09T10:39:36Z</time>
      </trkpt>
      <trkpt lat="46.12884" lon="6.57474">
        <ele>1979.01</ele>
        <time>2014-06-09T10:40:00Z</time>
      </trkpt>
      <trkpt lat="46.12883" lon="6.57475">
        <ele>1979.01</ele>
        <time>2014-06-09T10:40:38Z</time>
      </trkpt>
      <trkpt lat="46.12882" lon="6.57473">
        <ele>1977.57</ele>
        <time>2014-06-09T10:41:04Z</time>
      </trkpt>
      <trkpt lat="46.12882" lon="6.57476">
        <ele>1978.05</ele>
        <time>2014-06-09T10:41:27Z</time>
      </trkpt>
      <trkpt lat="46.12881" lon="6.57476">
        <ele>1977.57</ele>
        <time>2014-06-09T10:41:47Z</time>
      </trkpt>
      <trkpt lat="46.12883" lon="6.57479">
        <ele>1976.61</ele>
        <time>2014-06-09T10:42:04Z</time>
      </trkpt>
      <trkpt lat="46.12882" lon="6.5748">
        <ele>1978.53</ele>
        <time>2014-06-09T10:42:27Z</time>
      </trkpt>
      <trkpt lat="46.12881" lon="6.57482">
        <ele>1979.49</ele>
        <time>2014-06-09T10:42:47Z</time>
      </trkpt>
      <trkpt lat="46.1288" lon="6.57482">
        <ele>1981.9</ele>
        <time>2014-06-09T10:43:09Z</time>
      </trkpt>
      <trkpt lat="46.12881" lon="6.57484">
        <ele>1982.86</ele>
        <time>2014-06-09T10:43:32Z</time>
      </trkpt>
      <trkpt lat="46.12879" lon="6.57487">
        <ele>1983.34</ele>
        <time>2014-06-09T10:43:49Z</time>
      </trkpt>
      <trkpt lat="46.12879" lon="6.5749">
        <ele>1984.3</ele>
        <time>2014-06-09T10:44:10Z</time>
      </trkpt>
      <trkpt lat="46.12878" lon="6.57491">
        <ele>1984.78</ele>
        <time>2014-06-09T10:44:32Z</time>
      </trkpt>
      <trkpt lat="46.12876" lon="6.57491">
        <ele>1984.3</ele>
        <time>2014-06-09T10:44:53Z</time>
      </trkpt>
      <trkpt lat="46.12877" lon="6.57495">
        <ele>1984.3</ele>
        <time>2014-06-09T10:45:11Z</time>
      </trkpt>
      <trkpt lat="46.12878" lon="6.575">
        <ele>1988.62</ele>
        <time>2014-06-09T10:45:26Z</time>
      </trkpt>
      <trkpt lat="46.12877" lon="6.57503">
        <ele>1991.51</ele>
        <time>2014-06-09T10:45:39Z</time>
      </trkpt>
      <trkpt lat="46.12876" lon="6.57505">
        <ele>1992.47</ele>
        <time>2014-06-09T10:45:57Z</time>
      </trkpt>
      <trkpt lat="46.12876" lon="6.57504">
        <ele>1994.87</ele>
        <time>2014-06-09T10:46:12Z</time>
      </trkpt>
      <trkpt lat="46.12878" lon="6.57506">
        <ele>1993.43</ele>
        <time>2014-06-09T10:46:26Z</time>
      </trkpt>
      <trkpt lat="46.12877" lon="6.57503">
        <ele>1991.99</ele>
        <time>2014-06-09T10:46:44Z</time>
      </trkpt>
      <trkpt lat="46.12877" lon="6.57501">
        <ele>1991.51</ele>
        <time>2014-06-09T10:47:13Z</time>
      </trkpt>
      <trkpt lat="46.12875" lon="6.57504">
        <ele>1992.95</ele>
        <time>2014-06-09T10:47:28Z</time>
      </trkpt>
      <trkpt lat="46.12875" lon="6.57505">
        <ele>1993.91</ele>
        <time>2014-06-09T10:47:51Z</time>
      </trkpt>
      <trkpt lat="46.12875" lon="6.57507">
        <ele>1993.43</ele>
        <time>2014-06-09T10:48:09Z</time>
      </trkpt>
      <trkpt lat="46.12872" lon="6.57511">
        <ele>1992.95</ele>
        <time>2014-06-09T10:48:25Z</time>
      </trkpt>
      <trkpt lat="46.12869" lon="6.57516">
        <ele>1992.95</ele>
        <time>2014-06-09T10:48:42Z</time>
      </trkpt>
      <trkpt lat="46.12858" lon="6.57524">
        <ele>1992.47</ele>
        <time>2014-06-09T10:48:57Z</time>
      </trkpt>
      <trkpt lat="46.12854" lon="6.57528">
        <ele>1992.95</ele>
        <time>2014-06-09T10:49:11Z</time>
      </trkpt>
      <trkpt lat="46.1285" lon="6.57533">
        <ele>1993.43</ele>
        <time>2014-06-09T10:49:26Z</time>
      </trkpt>
      <trkpt lat="46.12841" lon="6.57536">
        <ele>1995.35</ele>
        <time>2014-06-09T10:49:38Z</time>
      </trkpt>
      <trkpt lat="46.12831" lon="6.57543">
        <ele>1996.8</ele>
        <time>2014-06-09T10:49:52Z</time>
      </trkpt>
      <trkpt lat="46.12832" lon="6.57545">
        <ele>1996.8</ele>
        <time>2014-06-09T10:50:11Z</time>
      </trkpt>
      <trkpt lat="46.12833" lon="6.57547">
        <ele>1997.28</ele>
        <time>2014-06-09T10:50:38Z</time>
      </trkpt>
      <trkpt lat="46.12833" lon="6.57547">
        <ele>1998.24</ele>
        <time>2014-06-09T10:51:01Z</time>
      </trkpt>
      <trkpt lat="46.12833" lon="6.57546">
        <ele>1999.2</ele>
        <time>2014-06-09T10:51:24Z</time>
      </trkpt>
      <trkpt lat="46.12833" lon="6.57546">
        <ele>1997.76</ele>
        <time>2014-06-09T10:51:49Z</time>
      </trkpt>
      <trkpt lat="46.12833" lon="6.57547">
        <ele>1997.76</ele>
        <time>2014-06-09T10:52:12Z</time>
      </trkpt>
      <trkpt lat="46.12832" lon="6.57546">
        <ele>1996.8</ele>
        <time>2014-06-09T10:52:37Z</time>
      </trkpt>
      <trkpt lat="46.12832" lon="6.57547">
        <ele>1995.83</ele>
        <time>2014-06-09T10:53:02Z</time>
      </trkpt>
      <trkpt lat="46.12833" lon="6.57548">
        <ele>1996.32</ele>
        <time>2014-06-09T10:53:24Z</time>
      </trkpt>
      <trkpt lat="46.12834" lon="6.57547">
        <ele>1996.32</ele>
        <time>2014-06-09T10:53:41Z</time>
      </trkpt>
      <trkpt lat="46.12833" lon="6.57546">
        <ele>1996.8</ele>
        <time>2014-06-09T10:54:01Z</time>
      </trkpt>
      <trkpt lat="46.12833" lon="6.57547">
        <ele>1997.76</ele>
        <time>2014-06-09T10:54:26Z</time>
      </trkpt>
      <trkpt lat="46.12833" lon="6.57546">
        <ele>1997.28</ele>
        <time>2014-06-09T10:54:51Z</time>
      </trkpt>
      <trkpt lat="46.12833" lon="6.57548">
        <ele>1996.8</ele>
        <time>2014-06-09T10:55:11Z</time>
      </trkpt>
      <trkpt lat="46.12831" lon="6.57548">
        <ele>1994.39</ele>
        <time>2014-06-09T10:55:37Z</time>
      </trkpt>
      <trkpt lat="46.12831" lon="6.57547">
        <ele>1992.47</ele>
        <time>2014-06-09T10:55:59Z</time>
      </trkpt>
      <trkpt lat="46.12832" lon="6.57549">
        <ele>1993.91</ele>
        <time>2014-06-09T10:56:20Z</time>
      </trkpt>
      <trkpt lat="46.12832" lon="6.57549">
        <ele>1995.35</ele>
        <time>2014-06-09T10:56:48Z</time>
      </trkpt>
      <trkpt lat="46.12832" lon="6.57548">
        <ele>1995.83</ele>
        <time>2014-06-09T10:57:16Z</time>
      </trkpt>
      <trkpt lat="46.1283" lon="6.57549">
        <ele>1995.35</ele>
        <time>2014-06-09T10:57:36Z</time>
      </trkpt>
      <trkpt lat="46.12833" lon="6.57547">
        <ele>1996.8</ele>
        <time>2014-06-09T10:57:59Z</time>
      </trkpt>
      <trkpt lat="46.12833" lon="6.57548">
        <ele>1997.28</ele>
        <time>2014-06-09T10:58:27Z</time>
      </trkpt>
      <trkpt lat="46.12834" lon="6.57547">
        <ele>1997.76</ele>
        <time>2014-06-09T10:58:53Z</time>
      </trkpt>
      <trkpt lat="46.12835" lon="6.57548">
        <ele>1997.76</ele>
        <time>2014-06-09T10:59:21Z</time>
      </trkpt>
      <trkpt lat="46.12834" lon="6.57549">
        <ele>1997.76</ele>
        <time>2014-06-09T10:59:51Z</time>
      </trkpt>
      <trkpt lat="46.12833" lon="6.57547">
        <ele>1998.72</ele>
        <time>2014-06-09T11:00:21Z</time>
      </trkpt>
      <trkpt lat="46.12833" lon="6.57545">
        <ele>1999.68</ele>
        <time>2014-06-09T11:00:39Z</time>
      </trkpt>
      <trkpt lat="46.12832" lon="6.57545">
        <ele>1999.2</ele>
        <time>2014-06-09T11:01:05Z</time>
      </trkpt>
      <trkpt lat="46.12831" lon="6.57546">
        <ele>2001.12</ele>
        <time>2014-06-09T11:01:28Z</time>
      </trkpt>
      <trkpt lat="46.12832" lon="6.57546">
        <ele>1998.72</ele>
        <time>2014-06-09T11:02:01Z</time>
      </trkpt>
      <trkpt lat="46.12833" lon="6.57548">
        <ele>1997.28</ele>
        <time>2014-06-09T11:02:29Z</time>
      </trkpt>
      <trkpt lat="46.12832" lon="6.57547">
        <ele>1996.32</ele>
        <time>2014-06-09T11:02:54Z</time>
      </trkpt>
      <trkpt lat="46.12833" lon="6.57548">
        <ele>1997.28</ele>
        <time>2014-06-09T11:03:16Z</time>
      </trkpt>
      <trkpt lat="46.12834" lon="6.57548">
        <ele>1998.24</ele>
        <time>2014-06-09T11:03:47Z</time>
      </trkpt>
      <trkpt lat="46.12832" lon="6.57544">
        <ele>1998.24</ele>
        <time>2014-06-09T11:04:17Z</time>
      </trkpt>
      <trkpt lat="46.12834" lon="6.57548">
        <ele>1998.24</ele>
        <time>2014-06-09T11:04:39Z</time>
      </trkpt>
      <trkpt lat="46.12834" lon="6.57547">
        <ele>1999.2</ele>
        <time>2014-06-09T11:05:04Z</time>
      </trkpt>
      <trkpt lat="46.12835" lon="6.57547">
        <ele>1998.72</ele>
        <time>2014-06-09T11:05:37Z</time>
      </trkpt>
      <trkpt lat="46.12834" lon="6.57548">
        <ele>1998.24</ele>
        <time>2014-06-09T11:06:05Z</time>
      </trkpt>
      <trkpt lat="46.12833" lon="6.57548">
        <ele>1998.24</ele>
        <time>2014-06-09T11:06:30Z</time>
      </trkpt>
      <trkpt lat="46.12834" lon="6.5755">
        <ele>1996.32</ele>
        <time>2014-06-09T11:06:47Z</time>
      </trkpt>
      <trkpt lat="46.12841" lon="6.5755">
        <ele>1993.91</ele>
        <time>2014-06-09T11:07:00Z</time>
      </trkpt>
      <trkpt lat="46.12846" lon="6.57551">
        <ele>1990.07</ele>
        <time>2014-06-09T11:07:14Z</time>
      </trkpt>
      <trkpt lat="46.1285" lon="6.57548">
        <ele>1987.66</ele>
        <time>2014-06-09T11:07:30Z</time>
      </trkpt>
      <trkpt lat="46.12854" lon="6.57547">
        <ele>1986.7</ele>
        <time>2014-06-09T11:07:44Z</time>
      </trkpt>
      <trkpt lat="46.12855" lon="6.57546">
        <ele>1987.18</ele>
        <time>2014-06-09T11:07:58Z</time>
      </trkpt>
      <trkpt lat="46.12861" lon="6.57547">
        <ele>1983.82</ele>
        <time>2014-06-09T11:08:10Z</time>
      </trkpt>
      <trkpt lat="46.12866" lon="6.57545">
        <ele>1979.49</ele>
        <time>2014-06-09T11:08:25Z</time>
      </trkpt>
      <trkpt lat="46.12872" lon="6.57545">
        <ele>1977.09</ele>
        <time>2014-06-09T11:08:38Z</time>
      </trkpt>
      <trkpt lat="46.12878" lon="6.57547">
        <ele>1974.2</ele>
        <time>2014-06-09T11:08:51Z</time>
      </trkpt>
      <trkpt lat="46.12875" lon="6.57552">
        <ele>1970.84</ele>
        <time>2014-06-09T11:09:04Z</time>
      </trkpt>
      <trkpt lat="46.1287" lon="6.57561">
        <ele>1966.99</ele>
        <time>2014-06-09T11:09:20Z</time>
      </trkpt>
      <trkpt lat="46.12872" lon="6.57567">
        <ele>1966.51</ele>
        <time>2014-06-09T11:09:36Z</time>
      </trkpt>
      <trkpt lat="46.12879" lon="6.57571">
        <ele>1963.15</ele>
        <time>2014-06-09T11:09:50Z</time>
      </trkpt>
      <trkpt lat="46.1288" lon="6.57574">
        <ele>1960.27</ele>
        <time>2014-06-09T11:10:02Z</time>
      </trkpt>
      <trkpt lat="46.12879" lon="6.57582">
        <ele>1956.42</ele>
        <time>2014-06-09T11:10:17Z</time>
      </trkpt>
      <trkpt lat="46.12876" lon="6.5759">
        <ele>1954.98</ele>
        <time>2014-06-09T11:10:31Z</time>
      </trkpt>
      <trkpt lat="46.12878" lon="6.57597">
        <ele>1952.57</ele>
        <time>2014-06-09T11:10:46Z</time>
      </trkpt>
      <trkpt lat="46.12878" lon="6.57601">
        <ele>1950.17</ele>
        <time>2014-06-09T11:11:01Z</time>
      </trkpt>
      <trkpt lat="46.12878" lon="6.57609">
        <ele>1945.36</ele>
        <time>2014-06-09T11:11:29Z</time>
      </trkpt>
      <trkpt lat="46.12881" lon="6.57612">
        <ele>1942</ele>
        <time>2014-06-09T11:11:41Z</time>
      </trkpt>
      <trkpt lat="46.12885" lon="6.57613">
        <ele>1940.56</ele>
        <time>2014-06-09T11:11:56Z</time>
      </trkpt>
      <trkpt lat="46.12882" lon="6.57615">
        <ele>1939.6</ele>
        <time>2014-06-09T11:12:11Z</time>
      </trkpt>
      <trkpt lat="46.12883" lon="6.57616">
        <ele>1939.12</ele>
        <time>2014-06-09T11:12:24Z</time>
      </trkpt>
      <trkpt lat="46.12884" lon="6.57622">
        <ele>1935.75</ele>
        <time>2014-06-09T11:12:39Z</time>
      </trkpt>
      <trkpt lat="46.1288" lon="6.57628">
        <ele>1932.39</ele>
        <time>2014-06-09T11:12:53Z</time>
      </trkpt>
      <trkpt lat="46.1288" lon="6.57633">
        <ele>1931.43</ele>
        <time>2014-06-09T11:13:07Z</time>
      </trkpt>
      <trkpt lat="46.12881" lon="6.57639">
        <ele>1930.46</ele>
        <time>2014-06-09T11:13:20Z</time>
      </trkpt>
      <trkpt lat="46.12881" lon="6.57647">
        <ele>1928.54</ele>
        <time>2014-06-09T11:13:33Z</time>
      </trkpt>
      <trkpt lat="46.12884" lon="6.57651">
        <ele>1926.14</ele>
        <time>2014-06-09T11:13:49Z</time>
      </trkpt>
      <trkpt lat="46.12885" lon="6.57656">
        <ele>1925.18</ele>
        <time>2014-06-09T11:14:05Z</time>
      </trkpt>
      <trkpt lat="46.12885" lon="6.57665">
        <ele>1920.85</ele>
        <time>2014-06-09T11:14:20Z</time>
      </trkpt>
      <trkpt lat="46.12884" lon="6.5767">
        <ele>1917.97</ele>
        <time>2014-06-09T11:14:34Z</time>
      </trkpt>
      <trkpt lat="46.12886" lon="6.57676">
        <ele>1916.04</ele>
        <time>2014-06-09T11:14:43Z</time>
      </trkpt>
      <trkpt lat="46.12889" lon="6.57697">
        <ele>1909.8</ele>
        <time>2014-06-09T11:14:59Z</time>
      </trkpt>
      <trkpt lat="46.12892" lon="6.57703">
        <ele>1907.87</ele>
        <time>2014-06-09T11:15:11Z</time>
      </trkpt>
      <trkpt lat="46.12894" lon="6.57718">
        <ele>1906.43</ele>
        <time>2014-06-09T11:15:24Z</time>
      </trkpt>
      <trkpt lat="46.12894" lon="6.57721">
        <ele>1905.95</ele>
        <time>2014-06-09T11:15:26Z</time>
      </trkpt>
      <trkpt lat="46.12889" lon="6.57731">
        <ele>1904.03</ele>
        <time>2014-06-09T11:15:34Z</time>
      </trkpt>
      <trkpt lat="46.12884" lon="6.57736">
        <ele>1902.59</ele>
        <time>2014-06-09T11:15:40Z</time>
      </trkpt>
      <trkpt lat="46.12882" lon="6.57753">
        <ele>1897.3</ele>
        <time>2014-06-09T11:15:55Z</time>
      </trkpt>
      <trkpt lat="46.12886" lon="6.57769">
        <ele>1892.97</ele>
        <time>2014-06-09T11:16:10Z</time>
      </trkpt>
      <trkpt lat="46.12887" lon="6.57777">
        <ele>1890.09</ele>
        <time>2014-06-09T11:16:22Z</time>
      </trkpt>
      <trkpt lat="46.12891" lon="6.5779">
        <ele>1886.72</ele>
        <time>2014-06-09T11:16:34Z</time>
      </trkpt>
      <trkpt lat="46.12888" lon="6.57797">
        <ele>1884.32</ele>
        <time>2014-06-09T11:16:46Z</time>
      </trkpt>
      <trkpt lat="46.12896" lon="6.57812">
        <ele>1881.44</ele>
        <time>2014-06-09T11:16:59Z</time>
      </trkpt>
      <trkpt lat="46.12901" lon="6.57814">
        <ele>1879.03</ele>
        <time>2014-06-09T11:17:13Z</time>
      </trkpt>
      <trkpt lat="46.12904" lon="6.57817">
        <ele>1875.67</ele>
        <time>2014-06-09T11:17:24Z</time>
      </trkpt>
      <trkpt lat="46.12907" lon="6.57821">
        <ele>1872.79</ele>
        <time>2014-06-09T11:17:37Z</time>
      </trkpt>
      <trkpt lat="46.12913" lon="6.57833">
        <ele>1867.02</ele>
        <time>2014-06-09T11:17:54Z</time>
      </trkpt>
      <trkpt lat="46.12917" lon="6.57849">
        <ele>1860.77</ele>
        <time>2014-06-09T11:18:11Z</time>
      </trkpt>
      <trkpt lat="46.1292" lon="6.57856">
        <ele>1858.37</ele>
        <time>2014-06-09T11:18:24Z</time>
      </trkpt>
      <trkpt lat="46.12921" lon="6.57861">
        <ele>1856.44</ele>
        <time>2014-06-09T11:18:28Z</time>
      </trkpt>
      <trkpt lat="46.12925" lon="6.5787">
        <ele>1855.48</ele>
        <time>2014-06-09T11:18:40Z</time>
      </trkpt>
      <trkpt lat="46.12926" lon="6.57874">
        <ele>1855.48</ele>
        <time>2014-06-09T11:18:44Z</time>
      </trkpt>
      <trkpt lat="46.12923" lon="6.5789">
        <ele>1858.37</ele>
        <time>2014-06-09T11:19:01Z</time>
      </trkpt>
      <trkpt lat="46.12924" lon="6.57891">
        <ele>1860.77</ele>
        <time>2014-06-09T11:19:18Z</time>
      </trkpt>
      <trkpt lat="46.12924" lon="6.579">
        <ele>1858.37</ele>
        <time>2014-06-09T11:19:33Z</time>
      </trkpt>
      <trkpt lat="46.12926" lon="6.57912">
        <ele>1855.96</ele>
        <time>2014-06-09T11:19:48Z</time>
      </trkpt>
      <trkpt lat="46.12927" lon="6.57919">
        <ele>1852.6</ele>
        <time>2014-06-09T11:20:02Z</time>
      </trkpt>
      <trkpt lat="46.12931" lon="6.57926">
        <ele>1850.19</ele>
        <time>2014-06-09T11:20:17Z</time>
      </trkpt>
      <trkpt lat="46.12928" lon="6.57938">
        <ele>1847.79</ele>
        <time>2014-06-09T11:20:31Z</time>
      </trkpt>
      <trkpt lat="46.12929" lon="6.57943">
        <ele>1846.83</ele>
        <time>2014-06-09T11:20:36Z</time>
      </trkpt>
      <trkpt lat="46.12934" lon="6.57956">
        <ele>1846.35</ele>
        <time>2014-06-09T11:20:50Z</time>
      </trkpt>
      <trkpt lat="46.12933" lon="6.57966">
        <ele>1843.95</ele>
        <time>2014-06-09T11:21:04Z</time>
      </trkpt>
      <trkpt lat="46.12934" lon="6.57976">
        <ele>1841.06</ele>
        <time>2014-06-09T11:21:19Z</time>
      </trkpt>
      <trkpt lat="46.12935" lon="6.57988">
        <ele>1836.26</ele>
        <time>2014-06-09T11:21:33Z</time>
      </trkpt>
      <trkpt lat="46.12935" lon="6.57992">
        <ele>1835.29</ele>
        <time>2014-06-09T11:21:38Z</time>
      </trkpt>
      <trkpt lat="46.12933" lon="6.58004">
        <ele>1830.01</ele>
        <time>2014-06-09T11:21:51Z</time>
      </trkpt>
      <trkpt lat="46.12934" lon="6.58016">
        <ele>1827.6</ele>
        <time>2014-06-09T11:22:06Z</time>
      </trkpt>
      <trkpt lat="46.12934" lon="6.58025">
        <ele>1822.32</ele>
        <time>2014-06-09T11:22:19Z</time>
      </trkpt>
      <trkpt lat="46.12933" lon="6.5803">
        <ele>1820.39</ele>
        <time>2014-06-09T11:22:23Z</time>
      </trkpt>
      <trkpt lat="46.12932" lon="6.5805">
        <ele>1815.59</ele>
        <time>2014-06-09T11:22:40Z</time>
      </trkpt>
      <trkpt lat="46.12934" lon="6.58064">
        <ele>1814.15</ele>
        <time>2014-06-09T11:22:52Z</time>
      </trkpt>
      <trkpt lat="46.12934" lon="6.58078">
        <ele>1810.78</ele>
        <time>2014-06-09T11:23:07Z</time>
      </trkpt>
      <trkpt lat="46.12936" lon="6.58085">
        <ele>1807.9</ele>
        <time>2014-06-09T11:23:21Z</time>
      </trkpt>
      <trkpt lat="46.12938" lon="6.58095">
        <ele>1805.01</ele>
        <time>2014-06-09T11:23:33Z</time>
      </trkpt>
      <trkpt lat="46.1294" lon="6.581">
        <ele>1801.17</ele>
        <time>2014-06-09T11:23:50Z</time>
      </trkpt>
      <trkpt lat="46.12941" lon="6.58106">
        <ele>1797.32</ele>
        <time>2014-06-09T11:24:03Z</time>
      </trkpt>
      <trkpt lat="46.12942" lon="6.58108">
        <ele>1794.92</ele>
        <time>2014-06-09T11:24:26Z</time>
      </trkpt>
      <trkpt lat="46.12945" lon="6.58117">
        <ele>1791.07</ele>
        <time>2014-06-09T11:24:42Z</time>
      </trkpt>
      <trkpt lat="46.12945" lon="6.58126">
        <ele>1789.15</ele>
        <time>2014-06-09T11:24:50Z</time>
      </trkpt>
      <trkpt lat="46.12944" lon="6.58151">
        <ele>1786.27</ele>
        <time>2014-06-09T11:25:06Z</time>
      </trkpt>
      <trkpt lat="46.12945" lon="6.58175">
        <ele>1784.34</ele>
        <time>2014-06-09T11:25:23Z</time>
      </trkpt>
      <trkpt lat="46.12943" lon="6.58186">
        <ele>1783.38</ele>
        <time>2014-06-09T11:25:36Z</time>
      </trkpt>
      <trkpt lat="46.12945" lon="6.58199">
        <ele>1780.5</ele>
        <time>2014-06-09T11:25:49Z</time>
      </trkpt>
      <trkpt lat="46.12945" lon="6.58206">
        <ele>1777.13</ele>
        <time>2014-06-09T11:26:03Z</time>
      </trkpt>
      <trkpt lat="46.12947" lon="6.58212">
        <ele>1773.77</ele>
        <time>2014-06-09T11:26:15Z</time>
      </trkpt>
      <trkpt lat="46.12945" lon="6.58222">
        <ele>1770.41</ele>
        <time>2014-06-09T11:26:28Z</time>
      </trkpt>
      <trkpt lat="46.12947" lon="6.58229">
        <ele>1767.52</ele>
        <time>2014-06-09T11:26:42Z</time>
      </trkpt>
      <trkpt lat="46.12949" lon="6.58242">
        <ele>1762.71</ele>
        <time>2014-06-09T11:26:57Z</time>
      </trkpt>
      <trkpt lat="46.12953" lon="6.58252">
        <ele>1760.31</ele>
        <time>2014-06-09T11:27:11Z</time>
      </trkpt>
      <trkpt lat="46.12956" lon="6.58266">
        <ele>1756.47</ele>
        <time>2014-06-09T11:27:23Z</time>
      </trkpt>
      <trkpt lat="46.12956" lon="6.58273">
        <ele>1753.58</ele>
        <time>2014-06-09T11:27:37Z</time>
      </trkpt>
      <trkpt lat="46.12953" lon="6.58281">
        <ele>1751.66</ele>
        <time>2014-06-09T11:27:50Z</time>
      </trkpt>
      <trkpt lat="46.12952" lon="6.5829">
        <ele>1749.74</ele>
        <time>2014-06-09T11:28:04Z</time>
      </trkpt>
      <trkpt lat="46.12948" lon="6.58306">
        <ele>1746.37</ele>
        <time>2014-06-09T11:28:17Z</time>
      </trkpt>
      <trkpt lat="46.12943" lon="6.58327">
        <ele>1745.41</ele>
        <time>2014-06-09T11:28:33Z</time>
      </trkpt>
      <trkpt lat="46.12945" lon="6.58338">
        <ele>1743.97</ele>
        <time>2014-06-09T11:28:48Z</time>
      </trkpt>
      <trkpt lat="46.12944" lon="6.58355">
        <ele>1743.01</ele>
        <time>2014-06-09T11:29:02Z</time>
      </trkpt>
      <trkpt lat="46.12947" lon="6.58367">
        <ele>1740.12</ele>
        <time>2014-06-09T11:29:18Z</time>
      </trkpt>
      <trkpt lat="46.12949" lon="6.58377">
        <ele>1736.76</ele>
        <time>2014-06-09T11:29:34Z</time>
      </trkpt>
      <trkpt lat="46.12952" lon="6.58384">
        <ele>1733.39</ele>
        <time>2014-06-09T11:29:49Z</time>
      </trkpt>
      <trkpt lat="46.12951" lon="6.58401">
        <ele>1730.51</ele>
        <time>2014-06-09T11:30:04Z</time>
      </trkpt>
      <trkpt lat="46.12954" lon="6.58419">
        <ele>1725.7</ele>
        <time>2014-06-09T11:30:22Z</time>
      </trkpt>
      <trkpt lat="46.12958" lon="6.58435">
        <ele>1722.82</ele>
        <time>2014-06-09T11:30:38Z</time>
      </trkpt>
      <trkpt lat="46.12962" lon="6.5846">
        <ele>1719.46</ele>
        <time>2014-06-09T11:30:57Z</time>
      </trkpt>
      <trkpt lat="46.12968" lon="6.58483">
        <ele>1711.76</ele>
        <time>2014-06-09T11:31:16Z</time>
      </trkpt>
      <trkpt lat="46.12975" lon="6.58503">
        <ele>1706</ele>
        <time>2014-06-09T11:31:33Z</time>
      </trkpt>
      <trkpt lat="46.12981" lon="6.58526">
        <ele>1697.83</ele>
        <time>2014-06-09T11:31:50Z</time>
      </trkpt>
      <trkpt lat="46.12985" lon="6.58556">
        <ele>1694.46</ele>
        <time>2014-06-09T11:32:07Z</time>
      </trkpt>
      <trkpt lat="46.1299" lon="6.58579">
        <ele>1691.58</ele>
        <time>2014-06-09T11:32:24Z</time>
      </trkpt>
      <trkpt lat="46.12995" lon="6.58599">
        <ele>1688.69</ele>
        <time>2014-06-09T11:32:39Z</time>
      </trkpt>
      <trkpt lat="46.12999" lon="6.58628">
        <ele>1684.85</ele>
        <time>2014-06-09T11:32:54Z</time>
      </trkpt>
      <trkpt lat="46.13" lon="6.58637">
        <ele>1683.89</ele>
        <time>2014-06-09T11:33:11Z</time>
      </trkpt>
      <trkpt lat="46.13" lon="6.58646">
        <ele>1682.93</ele>
        <time>2014-06-09T11:33:29Z</time>
      </trkpt>
      <trkpt lat="46.12998" lon="6.58664">
        <ele>1681.48</ele>
        <time>2014-06-09T11:33:47Z</time>
      </trkpt>
      <trkpt lat="46.12996" lon="6.58687">
        <ele>1681</ele>
        <time>2014-06-09T11:34:02Z</time>
      </trkpt>
      <trkpt lat="46.12998" lon="6.5871">
        <ele>1677.64</ele>
        <time>2014-06-09T11:34:18Z</time>
      </trkpt>
      <trkpt lat="46.12997" lon="6.5873">
        <ele>1673.31</ele>
        <time>2014-06-09T11:34:34Z</time>
      </trkpt>
      <trkpt lat="46.12998" lon="6.58742">
        <ele>1677.64</ele>
        <time>2014-06-09T11:34:56Z</time>
      </trkpt>
      <trkpt lat="46.12998" lon="6.58762">
        <ele>1676.2</ele>
        <time>2014-06-09T11:35:12Z</time>
      </trkpt>
      <trkpt lat="46.13002" lon="6.5878">
        <ele>1670.91</ele>
        <time>2014-06-09T11:35:28Z</time>
      </trkpt>
      <trkpt lat="46.13007" lon="6.58789">
        <ele>1669.47</ele>
        <time>2014-06-09T11:35:49Z</time>
      </trkpt>
      <trkpt lat="46.13009" lon="6.58804">
        <ele>1668.02</ele>
        <time>2014-06-09T11:36:04Z</time>
      </trkpt>
      <trkpt lat="46.13015" lon="6.58823">
        <ele>1666.1</ele>
        <time>2014-06-09T11:36:18Z</time>
      </trkpt>
      <trkpt lat="46.13024" lon="6.58844">
        <ele>1661.3</ele>
        <time>2014-06-09T11:36:36Z</time>
      </trkpt>
      <trkpt lat="46.13028" lon="6.58861">
        <ele>1658.41</ele>
        <time>2014-06-09T11:36:53Z</time>
      </trkpt>
      <trkpt lat="46.13032" lon="6.58875">
        <ele>1656.01</ele>
        <time>2014-06-09T11:37:11Z</time>
      </trkpt>
      <trkpt lat="46.13041" lon="6.58893">
        <ele>1653.6</ele>
        <time>2014-06-09T11:37:25Z</time>
      </trkpt>
      <trkpt lat="46.13048" lon="6.58918">
        <ele>1650.72</ele>
        <time>2014-06-09T11:37:44Z</time>
      </trkpt>
      <trkpt lat="46.13053" lon="6.58942">
        <ele>1647.36</ele>
        <time>2014-06-09T11:38:00Z</time>
      </trkpt>
      <trkpt lat="46.13053" lon="6.5897">
        <ele>1643.51</ele>
        <time>2014-06-09T11:38:19Z</time>
      </trkpt>
      <trkpt lat="46.1305" lon="6.58987">
        <ele>1642.07</ele>
        <time>2014-06-09T11:38:30Z</time>
      </trkpt>
      <trkpt lat="46.13046" lon="6.59004">
        <ele>1645.43</ele>
        <time>2014-06-09T11:38:36Z</time>
      </trkpt>
      <trkpt lat="46.13037" lon="6.59032">
        <ele>1649.76</ele>
        <time>2014-06-09T11:38:51Z</time>
      </trkpt>
      <trkpt lat="46.13028" lon="6.59045">
        <ele>1650.72</ele>
        <time>2014-06-09T11:39:06Z</time>
      </trkpt>
      <trkpt lat="46.13025" lon="6.59065">
        <ele>1650.24</ele>
        <time>2014-06-09T11:39:20Z</time>
      </trkpt>
      <trkpt lat="46.13021" lon="6.59069">
        <ele>1650.24</ele>
        <time>2014-06-09T11:39:24Z</time>
      </trkpt>
      <trkpt lat="46.13011" lon="6.59082">
        <ele>1648.32</ele>
        <time>2014-06-09T11:39:39Z</time>
      </trkpt>
      <trkpt lat="46.13006" lon="6.59094">
        <ele>1647.84</ele>
        <time>2014-06-09T11:39:53Z</time>
      </trkpt>
      <trkpt lat="46.13004" lon="6.59105">
        <ele>1643.99</ele>
        <time>2014-06-09T11:40:08Z</time>
      </trkpt>
      <trkpt lat="46.13" lon="6.59127">
        <ele>1638.7</ele>
        <time>2014-06-09T11:40:25Z</time>
      </trkpt>
      <trkpt lat="46.12987" lon="6.59148">
        <ele>1631.98</ele>
        <time>2014-06-09T11:40:42Z</time>
      </trkpt>
      <trkpt lat="46.12976" lon="6.59163">
        <ele>1626.21</ele>
        <time>2014-06-09T11:40:56Z</time>
      </trkpt>
      <trkpt lat="46.12966" lon="6.59175">
        <ele>1623.32</ele>
        <time>2014-06-09T11:41:10Z</time>
      </trkpt>
      <trkpt lat="46.12955" lon="6.59189">
        <ele>1619.48</ele>
        <time>2014-06-09T11:41:24Z</time>
      </trkpt>
      <trkpt lat="46.12946" lon="6.59202">
        <ele>1610.83</ele>
        <time>2014-06-09T11:41:42Z</time>
      </trkpt>
      <trkpt lat="46.1294" lon="6.59219">
        <ele>1604.1</ele>
        <time>2014-06-09T11:41:57Z</time>
      </trkpt>
      <trkpt lat="46.12937" lon="6.59232">
        <ele>1598.33</ele>
        <time>2014-06-09T11:42:13Z</time>
      </trkpt>
      <trkpt lat="46.12929" lon="6.59238">
        <ele>1593.52</ele>
        <time>2014-06-09T11:42:28Z</time>
      </trkpt>
      <trkpt lat="46.12931" lon="6.59247">
        <ele>1588.72</ele>
        <time>2014-06-09T11:42:42Z</time>
      </trkpt>
      <trkpt lat="46.12934" lon="6.59254">
        <ele>1584.87</ele>
        <time>2014-06-09T11:42:56Z</time>
      </trkpt>
      <trkpt lat="46.12934" lon="6.59255">
        <ele>1584.39</ele>
        <time>2014-06-09T11:42:58Z</time>
      </trkpt>
      <trkpt lat="46.12936" lon="6.59265">
        <ele>1582.47</ele>
        <time>2014-06-09T11:43:12Z</time>
      </trkpt>
      <trkpt lat="46.12937" lon="6.59268">
        <ele>1583.43</ele>
        <time>2014-06-09T11:43:29Z</time>
      </trkpt>
      <trkpt lat="46.1294" lon="6.59268">
        <ele>1584.87</ele>
        <time>2014-06-09T11:43:38Z</time>
      </trkpt>
      <trkpt lat="46.12949" lon="6.5927">
        <ele>1583.91</ele>
        <time>2014-06-09T11:43:46Z</time>
      </trkpt>
      <trkpt lat="46.12967" lon="6.59266">
        <ele>1581.03</ele>
        <time>2014-06-09T11:44:03Z</time>
      </trkpt>
      <trkpt lat="46.12987" lon="6.59266">
        <ele>1578.14</ele>
        <time>2014-06-09T11:44:22Z</time>
      </trkpt>
      <trkpt lat="46.13" lon="6.59268">
        <ele>1571.89</ele>
        <time>2014-06-09T11:44:37Z</time>
      </trkpt>
      <trkpt lat="46.1302" lon="6.59271">
        <ele>1564.2</ele>
        <time>2014-06-09T11:44:54Z</time>
      </trkpt>
      <trkpt lat="46.13017" lon="6.59281">
        <ele>1560.36</ele>
        <time>2014-06-09T11:45:02Z</time>
      </trkpt>
      <trkpt lat="46.13001" lon="6.59305">
        <ele>1555.07</ele>
        <time>2014-06-09T11:45:21Z</time>
      </trkpt>
      <trkpt lat="46.12996" lon="6.59314">
        <ele>1552.67</ele>
        <time>2014-06-09T11:45:28Z</time>
      </trkpt>
      <trkpt lat="46.12985" lon="6.59334">
        <ele>1545.94</ele>
        <time>2014-06-09T11:45:43Z</time>
      </trkpt>
      <trkpt lat="46.12983" lon="6.59338">
        <ele>1544.98</ele>
        <time>2014-06-09T11:45:46Z</time>
      </trkpt>
      <trkpt lat="46.12983" lon="6.59343">
        <ele>1543.53</ele>
        <time>2014-06-09T11:45:49Z</time>
      </trkpt>
      <trkpt lat="46.12986" lon="6.59348">
        <ele>1542.09</ele>
        <time>2014-06-09T11:45:53Z</time>
      </trkpt>
      <trkpt lat="46.12993" lon="6.59358">
        <ele>1538.73</ele>
        <time>2014-06-09T11:46:01Z</time>
      </trkpt>
      <trkpt lat="46.12998" lon="6.59374">
        <ele>1533.44</ele>
        <time>2014-06-09T11:46:13Z</time>
      </trkpt>
      <trkpt lat="46.13005" lon="6.5938">
        <ele>1531.04</ele>
        <time>2014-06-09T11:46:19Z</time>
      </trkpt>
      <trkpt lat="46.13025" lon="6.59382">
        <ele>1527.19</ele>
        <time>2014-06-09T11:46:35Z</time>
      </trkpt>
      <trkpt lat="46.13039" lon="6.59381">
        <ele>1524.79</ele>
        <time>2014-06-09T11:46:49Z</time>
      </trkpt>
      <trkpt lat="46.13044" lon="6.59378">
        <ele>1522.39</ele>
        <time>2014-06-09T11:47:03Z</time>
      </trkpt>
      <trkpt lat="46.13051" lon="6.59378">
        <ele>1521.42</ele>
        <time>2014-06-09T11:47:14Z</time>
      </trkpt>
      <trkpt lat="46.13054" lon="6.59376">
        <ele>1519.5</ele>
        <time>2014-06-09T11:47:32Z</time>
      </trkpt>
      <trkpt lat="46.13065" lon="6.59374">
        <ele>1515.66</ele>
        <time>2014-06-09T11:47:47Z</time>
      </trkpt>
      <trkpt lat="46.13076" lon="6.5937">
        <ele>1511.81</ele>
        <time>2014-06-09T11:47:59Z</time>
      </trkpt>
      <trkpt lat="46.13091" lon="6.59365">
        <ele>1505.08</ele>
        <time>2014-06-09T11:48:14Z</time>
      </trkpt>
      <trkpt lat="46.13102" lon="6.59355">
        <ele>1497.39</ele>
        <time>2014-06-09T11:48:30Z</time>
      </trkpt>
      <trkpt lat="46.13117" lon="6.5935">
        <ele>1491.62</ele>
        <time>2014-06-09T11:48:45Z</time>
      </trkpt>
      <trkpt lat="46.13122" lon="6.59347">
        <ele>1489.22</ele>
        <time>2014-06-09T11:48:50Z</time>
      </trkpt>
      <trkpt lat="46.13138" lon="6.59325">
        <ele>1485.37</ele>
        <time>2014-06-09T11:49:08Z</time>
      </trkpt>
      <trkpt lat="46.13144" lon="6.59318">
        <ele>1486.34</ele>
        <time>2014-06-09T11:49:21Z</time>
      </trkpt>
      <trkpt lat="46.13138" lon="6.59324">
        <ele>1486.82</ele>
        <time>2014-06-09T11:49:36Z</time>
      </trkpt>
      <trkpt lat="46.13133" lon="6.59326">
        <ele>1488.26</ele>
        <time>2014-06-09T11:49:43Z</time>
      </trkpt>
      <trkpt lat="46.1314" lon="6.59309">
        <ele>1490.66</ele>
        <time>2014-06-09T11:49:55Z</time>
      </trkpt>
      <trkpt lat="46.1315" lon="6.59288">
        <ele>1492.1</ele>
        <time>2014-06-09T11:50:11Z</time>
      </trkpt>
      <trkpt lat="46.13157" lon="6.59264">
        <ele>1492.1</ele>
        <time>2014-06-09T11:50:26Z</time>
      </trkpt>
      <trkpt lat="46.13163" lon="6.59247">
        <ele>1493.55</ele>
        <time>2014-06-09T11:50:41Z</time>
      </trkpt>
      <trkpt lat="46.13162" lon="6.59246">
        <ele>1496.43</ele>
        <time>2014-06-09T11:51:03Z</time>
      </trkpt>
      <trkpt lat="46.13161" lon="6.59247">
        <ele>1498.83</ele>
        <time>2014-06-09T11:51:33Z</time>
      </trkpt>
      <trkpt lat="46.13164" lon="6.59248">
        <ele>1497.87</ele>
        <time>2014-06-09T11:52:09Z</time>
      </trkpt>
      <trkpt lat="46.13162" lon="6.59247">
        <ele>1498.83</ele>
        <time>2014-06-09T11:52:37Z</time>
      </trkpt>
      <trkpt lat="46.13165" lon="6.59243">
        <ele>1500.27</ele>
        <time>2014-06-09T11:52:56Z</time>
      </trkpt>
      <trkpt lat="46.13167" lon="6.59236">
        <ele>1499.79</ele>
        <time>2014-06-09T11:53:01Z</time>
      </trkpt>
      <trkpt lat="46.13171" lon="6.5922">
        <ele>1497.87</ele>
        <time>2014-06-09T11:53:13Z</time>
      </trkpt>
      <trkpt lat="46.13176" lon="6.59197">
        <ele>1496.91</ele>
        <time>2014-06-09T11:53:26Z</time>
      </trkpt>
      <trkpt lat="46.13188" lon="6.59172">
        <ele>1494.99</ele>
        <time>2014-06-09T11:53:43Z</time>
      </trkpt>
      <trkpt lat="46.132" lon="6.5915">
        <ele>1494.99</ele>
        <time>2014-06-09T11:53:57Z</time>
      </trkpt>
      <trkpt lat="46.13205" lon="6.59145">
        <ele>1494.51</ele>
        <time>2014-06-09T11:54:02Z</time>
      </trkpt>
      <trkpt lat="46.13212" lon="6.59137">
        <ele>1494.99</ele>
        <time>2014-06-09T11:54:09Z</time>
      </trkpt>
      <trkpt lat="46.13217" lon="6.59123">
        <ele>1495.47</ele>
        <time>2014-06-09T11:54:19Z</time>
      </trkpt>
      <trkpt lat="46.1322" lon="6.59117">
        <ele>1495.95</ele>
        <time>2014-06-09T11:54:24Z</time>
      </trkpt>
      <trkpt lat="46.13243" lon="6.591">
        <ele>1496.43</ele>
        <time>2014-06-09T11:54:43Z</time>
      </trkpt>
      <trkpt lat="46.13251" lon="6.59086">
        <ele>1497.87</ele>
        <time>2014-06-09T11:54:55Z</time>
      </trkpt>
      <trkpt lat="46.13253" lon="6.59072">
        <ele>1498.83</ele>
        <time>2014-06-09T11:55:08Z</time>
      </trkpt>
      <trkpt lat="46.13257" lon="6.59055">
        <ele>1501.72</ele>
        <time>2014-06-09T11:55:22Z</time>
      </trkpt>
      <trkpt lat="46.13262" lon="6.5904">
        <ele>1504.6</ele>
        <time>2014-06-09T11:55:35Z</time>
      </trkpt>
      <trkpt lat="46.13263" lon="6.59026">
        <ele>1507.48</ele>
        <time>2014-06-09T11:55:48Z</time>
      </trkpt>
      <trkpt lat="46.13264" lon="6.59025">
        <ele>1507.48</ele>
        <time>2014-06-09T11:55:49Z</time>
      </trkpt>
      <trkpt lat="46.13274" lon="6.5901">
        <ele>1510.85</ele>
        <time>2014-06-09T11:56:04Z</time>
      </trkpt>
      <trkpt lat="46.13282" lon="6.58997">
        <ele>1513.25</ele>
        <time>2014-06-09T11:56:19Z</time>
      </trkpt>
      <trkpt lat="46.13284" lon="6.58995">
        <ele>1513.73</ele>
        <time>2014-06-09T11:56:22Z</time>
      </trkpt>
      <trkpt lat="46.13301" lon="6.58977">
        <ele>1513.73</ele>
        <time>2014-06-09T11:56:40Z</time>
      </trkpt>
      <trkpt lat="46.13308" lon="6.58971">
        <ele>1515.18</ele>
        <time>2014-06-09T11:56:48Z</time>
      </trkpt>
      <trkpt lat="46.13324" lon="6.58957">
        <ele>1517.58</ele>
        <time>2014-06-09T11:57:02Z</time>
      </trkpt>
      <trkpt lat="46.13339" lon="6.58941">
        <ele>1519.98</ele>
        <time>2014-06-09T11:57:16Z</time>
      </trkpt>
      <trkpt lat="46.13353" lon="6.58928">
        <ele>1520.94</ele>
        <time>2014-06-09T11:57:31Z</time>
      </trkpt>
      <trkpt lat="46.13368" lon="6.58915">
        <ele>1519.98</ele>
        <time>2014-06-09T11:57:46Z</time>
      </trkpt>
      <trkpt lat="46.13382" lon="6.58893">
        <ele>1521.9</ele>
        <time>2014-06-09T11:58:02Z</time>
      </trkpt>
      <trkpt lat="46.13387" lon="6.5888">
        <ele>1522.87</ele>
        <time>2014-06-09T11:58:09Z</time>
      </trkpt>
      <trkpt lat="46.13406" lon="6.58854">
        <ele>1524.31</ele>
        <time>2014-06-09T11:58:27Z</time>
      </trkpt>
      <trkpt lat="46.13407" lon="6.58853">
        <ele>1524.31</ele>
        <time>2014-06-09T11:58:28Z</time>
      </trkpt>
      <trkpt lat="46.13418" lon="6.58815">
        <ele>1527.67</ele>
        <time>2014-06-09T11:58:48Z</time>
      </trkpt>
      <trkpt lat="46.13419" lon="6.58802">
        <ele>1527.67</ele>
        <time>2014-06-09T11:58:56Z</time>
      </trkpt>
      <trkpt lat="46.13418" lon="6.58797">
        <ele>1527.67</ele>
        <time>2014-06-09T11:58:59Z</time>
      </trkpt>
      <trkpt lat="46.1342" lon="6.58788">
        <ele>1527.19</ele>
        <time>2014-06-09T11:59:04Z</time>
      </trkpt>
      <trkpt lat="46.13433" lon="6.5878">
        <ele>1524.31</ele>
        <time>2014-06-09T11:59:16Z</time>
      </trkpt>
      <trkpt lat="46.13439" lon="6.58771">
        <ele>1521.9</ele>
        <time>2014-06-09T11:59:24Z</time>
      </trkpt>
      <trkpt lat="46.13447" lon="6.58776">
        <ele>1522.39</ele>
        <time>2014-06-09T11:59:36Z</time>
      </trkpt>
      <trkpt lat="46.13452" lon="6.58772">
        <ele>1523.83</ele>
        <time>2014-06-09T11:59:42Z</time>
      </trkpt>
      <trkpt lat="46.13455" lon="6.58769">
        <ele>1524.79</ele>
        <time>2014-06-09T11:59:45Z</time>
      </trkpt>
      <trkpt lat="46.1346" lon="6.58766">
        <ele>1526.23</ele>
        <time>2014-06-09T11:59:50Z</time>
      </trkpt>
      <trkpt lat="46.13469" lon="6.58758">
        <ele>1528.63</ele>
        <time>2014-06-09T11:59:59Z</time>
      </trkpt>
      <trkpt lat="46.13477" lon="6.58749">
        <ele>1532</ele>
        <time>2014-06-09T12:00:13Z</time>
      </trkpt>
      <trkpt lat="46.13486" lon="6.58737">
        <ele>1535.36</ele>
        <time>2014-06-09T12:00:29Z</time>
      </trkpt>
      <trkpt lat="46.13494" lon="6.58726">
        <ele>1539.21</ele>
        <time>2014-06-09T12:00:44Z</time>
      </trkpt>
      <trkpt lat="46.13504" lon="6.5872">
        <ele>1543.53</ele>
        <time>2014-06-09T12:00:58Z</time>
      </trkpt>
      <trkpt lat="46.13509" lon="6.5872">
        <ele>1544.5</ele>
        <time>2014-06-09T12:01:03Z</time>
      </trkpt>
      <trkpt lat="46.13523" lon="6.58708">
        <ele>1545.46</ele>
        <time>2014-06-09T12:01:17Z</time>
      </trkpt>
      <trkpt lat="46.13531" lon="6.58693">
        <ele>1544.01</ele>
        <time>2014-06-09T12:01:28Z</time>
      </trkpt>
      <trkpt lat="46.13539" lon="6.58684">
        <ele>1543.05</ele>
        <time>2014-06-09T12:01:36Z</time>
      </trkpt>
      <trkpt lat="46.13544" lon="6.58683">
        <ele>1543.53</ele>
        <time>2014-06-09T12:01:41Z</time>
      </trkpt>
      <trkpt lat="46.13553" lon="6.58667">
        <ele>1546.42</ele>
        <time>2014-06-09T12:01:58Z</time>
      </trkpt>
      <trkpt lat="46.13561" lon="6.58655">
        <ele>1550.26</ele>
        <time>2014-06-09T12:02:12Z</time>
      </trkpt>
      <trkpt lat="46.13563" lon="6.58649">
        <ele>1550.74</ele>
        <time>2014-06-09T12:02:16Z</time>
      </trkpt>
      <trkpt lat="46.13577" lon="6.58629">
        <ele>1549.78</ele>
        <time>2014-06-09T12:02:31Z</time>
      </trkpt>
      <trkpt lat="46.1358" lon="6.58626">
        <ele>1547.38</ele>
        <time>2014-06-09T12:02:47Z</time>
      </trkpt>
      <trkpt lat="46.13581" lon="6.58627">
        <ele>1546.9</ele>
        <time>2014-06-09T12:03:10Z</time>
      </trkpt>
      <trkpt lat="46.1358" lon="6.58627">
        <ele>1544.98</ele>
        <time>2014-06-09T12:03:32Z</time>
      </trkpt>
      <trkpt lat="46.13581" lon="6.58626">
        <ele>1546.42</ele>
        <time>2014-06-09T12:03:56Z</time>
      </trkpt>
      <trkpt lat="46.1358" lon="6.58626">
        <ele>1544.98</ele>
        <time>2014-06-09T12:04:17Z</time>
      </trkpt>
      <trkpt lat="46.13581" lon="6.58626">
        <ele>1545.46</ele>
        <time>2014-06-09T12:04:42Z</time>
      </trkpt>
      <trkpt lat="46.13581" lon="6.58626">
        <ele>1545.46</ele>
        <time>2014-06-09T12:05:14Z</time>
      </trkpt>
      <trkpt lat="46.13582" lon="6.58626">
        <ele>1545.94</ele>
        <time>2014-06-09T12:05:38Z</time>
      </trkpt>
      <trkpt lat="46.1358" lon="6.58627">
        <ele>1545.94</ele>
        <time>2014-06-09T12:06:00Z</time>
      </trkpt>
      <trkpt lat="46.13581" lon="6.58627">
        <ele>1544.5</ele>
        <time>2014-06-09T12:06:28Z</time>
      </trkpt>
      <trkpt lat="46.1358" lon="6.58626">
        <ele>1545.46</ele>
        <time>2014-06-09T12:06:51Z</time>
      </trkpt>
      <trkpt lat="46.13581" lon="6.58626">
        <ele>1543.53</ele>
        <time>2014-06-09T12:07:14Z</time>
      </trkpt>
      <trkpt lat="46.13581" lon="6.58625">
        <ele>1543.53</ele>
        <time>2014-06-09T12:07:28Z</time>
      </trkpt>
      <trkpt lat="46.1358" lon="6.58626">
        <ele>1543.05</ele>
        <time>2014-06-09T12:07:54Z</time>
      </trkpt>
      <trkpt lat="46.13584" lon="6.58626">
        <ele>1547.38</ele>
        <time>2014-06-09T12:08:27Z</time>
      </trkpt>
      <trkpt lat="46.13583" lon="6.58625">
        <ele>1545.94</ele>
        <time>2014-06-09T12:08:53Z</time>
      </trkpt>
      <trkpt lat="46.13582" lon="6.58624">
        <ele>1544.98</ele>
        <time>2014-06-09T12:09:32Z</time>
      </trkpt>
      <trkpt lat="46.1358" lon="6.58626">
        <ele>1544.5</ele>
        <time>2014-06-09T12:10:06Z</time>
      </trkpt>
      <trkpt lat="46.13582" lon="6.58626">
        <ele>1544.01</ele>
        <time>2014-06-09T12:10:42Z</time>
      </trkpt>
      <trkpt lat="46.13581" lon="6.58625">
        <ele>1545.46</ele>
        <time>2014-06-09T12:11:20Z</time>
      </trkpt>
      <trkpt lat="46.1358" lon="6.58625">
        <ele>1548.82</ele>
        <time>2014-06-09T12:11:58Z</time>
      </trkpt>
      <trkpt lat="46.1358" lon="6.58626">
        <ele>1548.34</ele>
        <time>2014-06-09T12:12:34Z</time>
      </trkpt>
      <trkpt lat="46.13581" lon="6.58626">
        <ele>1548.82</ele>
        <time>2014-06-09T12:13:00Z</time>
      </trkpt>
      <trkpt lat="46.13581" lon="6.58625">
        <ele>1547.38</ele>
        <time>2014-06-09T12:13:12Z</time>
      </trkpt>
      <trkpt lat="46.13581" lon="6.58627">
        <ele>1546.9</ele>
        <time>2014-06-09T12:13:38Z</time>
      </trkpt>
      <trkpt lat="46.13582" lon="6.58626">
        <ele>1546.42</ele>
        <time>2014-06-09T12:13:59Z</time>
      </trkpt>
      <trkpt lat="46.13583" lon="6.58624">
        <ele>1546.9</ele>
        <time>2014-06-09T12:14:14Z</time>
      </trkpt>
      <trkpt lat="46.13589" lon="6.58622">
        <ele>1545.46</ele>
        <time>2014-06-09T12:14:28Z</time>
      </trkpt>
      <trkpt lat="46.13607" lon="6.58614">
        <ele>1544.5</ele>
        <time>2014-06-09T12:14:46Z</time>
      </trkpt>
      <trkpt lat="46.13624" lon="6.58606">
        <ele>1543.05</ele>
        <time>2014-06-09T12:15:03Z</time>
      </trkpt>
      <trkpt lat="46.13626" lon="6.58603">
        <ele>1543.05</ele>
        <time>2014-06-09T12:15:05Z</time>
      </trkpt>
      <trkpt lat="46.1364" lon="6.58606">
        <ele>1541.13</ele>
        <time>2014-06-09T12:15:17Z</time>
      </trkpt>
      <trkpt lat="46.13654" lon="6.58606">
        <ele>1540.17</ele>
        <time>2014-06-09T12:15:29Z</time>
      </trkpt>
      <trkpt lat="46.13673" lon="6.58607">
        <ele>1541.13</ele>
        <time>2014-06-09T12:15:45Z</time>
      </trkpt>
      <trkpt lat="46.13676" lon="6.58606">
        <ele>1541.61</ele>
        <time>2014-06-09T12:15:48Z</time>
      </trkpt>
      <trkpt lat="46.13692" lon="6.58598">
        <ele>1539.21</ele>
        <time>2014-06-09T12:16:03Z</time>
      </trkpt>
      <trkpt lat="46.13693" lon="6.58597">
        <ele>1539.21</ele>
        <time>2014-06-09T12:16:04Z</time>
      </trkpt>
      <trkpt lat="46.13707" lon="6.58591">
        <ele>1538.25</ele>
        <time>2014-06-09T12:16:16Z</time>
      </trkpt>
      <trkpt lat="46.13726" lon="6.5858">
        <ele>1535.84</ele>
        <time>2014-06-09T12:16:33Z</time>
      </trkpt>
      <trkpt lat="46.13733" lon="6.58561">
        <ele>1534.4</ele>
        <time>2014-06-09T12:16:47Z</time>
      </trkpt>
      <trkpt lat="46.13743" lon="6.58542">
        <ele>1533.44</ele>
        <time>2014-06-09T12:17:00Z</time>
      </trkpt>
      <trkpt lat="46.13748" lon="6.58542">
        <ele>1533.92</ele>
        <time>2014-06-09T12:17:04Z</time>
      </trkpt>
      <trkpt lat="46.1376" lon="6.58541">
        <ele>1532.96</ele>
        <time>2014-06-09T12:17:14Z</time>
      </trkpt>
      <trkpt lat="46.13774" lon="6.58536">
        <ele>1530.56</ele>
        <time>2014-06-09T12:17:27Z</time>
      </trkpt>
      <trkpt lat="46.13785" lon="6.58529">
        <ele>1526.71</ele>
        <time>2014-06-09T12:17:37Z</time>
      </trkpt>
      <trkpt lat="46.13792" lon="6.58524">
        <ele>1526.23</ele>
        <time>2014-06-09T12:17:43Z</time>
      </trkpt>
      <trkpt lat="46.13815" lon="6.58509">
        <ele>1526.23</ele>
        <time>2014-06-09T12:18:02Z</time>
      </trkpt>
      <trkpt lat="46.13825" lon="6.58501">
        <ele>1525.27</ele>
        <time>2014-06-09T12:18:11Z</time>
      </trkpt>
      <trkpt lat="46.13835" lon="6.58496">
        <ele>1523.83</ele>
        <time>2014-06-09T12:18:19Z</time>
      </trkpt>
      <trkpt lat="46.13842" lon="6.58498">
        <ele>1523.35</ele>
        <time>2014-06-09T12:18:24Z</time>
      </trkpt>
      <trkpt lat="46.13865" lon="6.58504">
        <ele>1521.9</ele>
        <time>2014-06-09T12:18:42Z</time>
      </trkpt>
      <trkpt lat="46.13868" lon="6.58505">
        <ele>1520.94</ele>
        <time>2014-06-09T12:18:45Z</time>
      </trkpt>
      <trkpt lat="46.13892" lon="6.58508">
        <ele>1518.06</ele>
        <time>2014-06-09T12:19:03Z</time>
      </trkpt>
      <trkpt lat="46.13913" lon="6.58511">
        <ele>1517.1</ele>
        <time>2014-06-09T12:19:19Z</time>
      </trkpt>
      <trkpt lat="46.13924" lon="6.5851">
        <ele>1515.18</ele>
        <time>2014-06-09T12:19:31Z</time>
      </trkpt>
      <trkpt lat="46.13941" lon="6.58513">
        <ele>1514.21</ele>
        <time>2014-06-09T12:19:41Z</time>
      </trkpt>
      <trkpt lat="46.1395" lon="6.58515">
        <ele>1510.85</ele>
        <time>2014-06-09T12:19:52Z</time>
      </trkpt>
      <trkpt lat="46.1397" lon="6.5852">
        <ele>1510.85</ele>
        <time>2014-06-09T12:20:05Z</time>
      </trkpt>
      <trkpt lat="46.13986" lon="6.58524">
        <ele>1506.52</ele>
        <time>2014-06-09T12:20:19Z</time>
      </trkpt>
      <trkpt lat="46.14009" lon="6.58526">
        <ele>1506.04</ele>
        <time>2014-06-09T12:20:31Z</time>
      </trkpt>
      <trkpt lat="46.14019" lon="6.58523">
        <ele>1503.64</ele>
        <time>2014-06-09T12:20:44Z</time>
      </trkpt>
      <trkpt lat="46.14031" lon="6.58523">
        <ele>1503.64</ele>
        <time>2014-06-09T12:20:53Z</time>
      </trkpt>
      <trkpt lat="46.14033" lon="6.58523">
        <ele>1503.64</ele>
        <time>2014-06-09T12:20:54Z</time>
      </trkpt>
      <trkpt lat="46.14034" lon="6.58523">
        <ele>1503.16</ele>
        <time>2014-06-09T12:20:55Z</time>
      </trkpt>
      <trkpt lat="46.14062" lon="6.58528">
        <ele>1504.6</ele>
        <time>2014-06-09T12:21:10Z</time>
      </trkpt>
      <trkpt lat="46.1408" lon="6.58522">
        <ele>1503.16</ele>
        <time>2014-06-09T12:21:26Z</time>
      </trkpt>
      <trkpt lat="46.1409" lon="6.58529">
        <ele>1502.68</ele>
        <time>2014-06-09T12:21:35Z</time>
      </trkpt>
      <trkpt lat="46.1409" lon="6.5853">
        <ele>1502.2</ele>
        <time>2014-06-09T12:21:36Z</time>
      </trkpt>
      <trkpt lat="46.14089" lon="6.58532">
        <ele>1502.2</ele>
        <time>2014-06-09T12:21:37Z</time>
      </trkpt>
      <trkpt lat="46.14088" lon="6.58533">
        <ele>1501.72</ele>
        <time>2014-06-09T12:21:38Z</time>
      </trkpt>
      <trkpt lat="46.14087" lon="6.58534">
        <ele>1501.72</ele>
        <time>2014-06-09T12:21:39Z</time>
      </trkpt>
      <trkpt lat="46.14072" lon="6.58558">
        <ele>1499.31</ele>
        <time>2014-06-09T12:21:54Z</time>
      </trkpt>
      <trkpt lat="46.14062" lon="6.58588">
        <ele>1495.95</ele>
        <time>2014-06-09T12:22:13Z</time>
      </trkpt>
      <trkpt lat="46.14056" lon="6.58626">
        <ele>1492.58</ele>
        <time>2014-06-09T12:22:34Z</time>
      </trkpt>
      <trkpt lat="46.14046" lon="6.58661">
        <ele>1486.82</ele>
        <time>2014-06-09T12:22:53Z</time>
      </trkpt>
      <trkpt lat="46.14035" lon="6.58703">
        <ele>1482.01</ele>
        <time>2014-06-09T12:23:14Z</time>
      </trkpt>
      <trkpt lat="46.14028" lon="6.5874">
        <ele>1477.2</ele>
        <time>2014-06-09T12:23:33Z</time>
      </trkpt>
      <trkpt lat="46.1402" lon="6.58779">
        <ele>1471.44</ele>
        <time>2014-06-09T12:23:54Z</time>
      </trkpt>
      <trkpt lat="46.14008" lon="6.58822">
        <ele>1469.03</ele>
        <time>2014-06-09T12:24:17Z</time>
      </trkpt>
      <trkpt lat="46.13999" lon="6.58854">
        <ele>1465.67</ele>
        <time>2014-06-09T12:24:37Z</time>
      </trkpt>
      <trkpt lat="46.13991" lon="6.58887">
        <ele>1462.78</ele>
        <time>2014-06-09T12:24:55Z</time>
      </trkpt>
      <trkpt lat="46.13985" lon="6.58916">
        <ele>1457.02</ele>
        <time>2014-06-09T12:25:12Z</time>
      </trkpt>
      <trkpt lat="46.13972" lon="6.58944">
        <ele>1450.77</ele>
        <time>2014-06-09T12:25:31Z</time>
      </trkpt>
      <trkpt lat="46.13958" lon="6.58974">
        <ele>1446.44</ele>
        <time>2014-06-09T12:25:50Z</time>
      </trkpt>
      <trkpt lat="46.13945" lon="6.59005">
        <ele>1442.6</ele>
        <time>2014-06-09T12:26:10Z</time>
      </trkpt>
      <trkpt lat="46.13929" lon="6.59037">
        <ele>1438.75</ele>
        <time>2014-06-09T12:26:30Z</time>
      </trkpt>
      <trkpt lat="46.1392" lon="6.59064">
        <ele>1434.42</ele>
        <time>2014-06-09T12:26:46Z</time>
      </trkpt>
      <trkpt lat="46.1392" lon="6.59066">
        <ele>1434.91</ele>
        <time>2014-06-09T12:26:47Z</time>
      </trkpt>
      <trkpt lat="46.1392" lon="6.59069">
        <ele>1434.91</ele>
        <time>2014-06-09T12:26:48Z</time>
      </trkpt>
      <trkpt lat="46.1392" lon="6.59071">
        <ele>1434.91</ele>
        <time>2014-06-09T12:26:49Z</time>
      </trkpt>
      <trkpt lat="46.1392" lon="6.59073">
        <ele>1434.91</ele>
        <time>2014-06-09T12:26:50Z</time>
      </trkpt>
      <trkpt lat="46.1392" lon="6.59075">
        <ele>1434.91</ele>
        <time>2014-06-09T12:26:51Z</time>
      </trkpt>
      <trkpt lat="46.1392" lon="6.59114">
        <ele>1434.42</ele>
        <time>2014-06-09T12:27:10Z</time>
      </trkpt>
      <trkpt lat="46.13915" lon="6.59157">
        <ele>1430.58</ele>
        <time>2014-06-09T12:27:31Z</time>
      </trkpt>
      <trkpt lat="46.13915" lon="6.59176">
        <ele>1430.58</ele>
        <time>2014-06-09T12:27:40Z</time>
      </trkpt>
      <trkpt lat="46.13916" lon="6.59179">
        <ele>1430.1</ele>
        <time>2014-06-09T12:27:41Z</time>
      </trkpt>
      <trkpt lat="46.13916" lon="6.5918">
        <ele>1430.1</ele>
        <time>2014-06-09T12:27:42Z</time>
      </trkpt>
      <trkpt lat="46.13916" lon="6.59182">
        <ele>1430.1</ele>
        <time>2014-06-09T12:27:43Z</time>
      </trkpt>
      <trkpt lat="46.13916" lon="6.59184">
        <ele>1430.1</ele>
        <time>2014-06-09T12:27:44Z</time>
      </trkpt>
      <trkpt lat="46.13908" lon="6.59202">
        <ele>1430.1</ele>
        <time>2014-06-09T12:28:00Z</time>
      </trkpt>
      <trkpt lat="46.13898" lon="6.59212">
        <ele>1428.66</ele>
        <time>2014-06-09T12:28:15Z</time>
      </trkpt>
      <trkpt lat="46.13891" lon="6.59219">
        <ele>1427.7</ele>
        <time>2014-06-09T12:28:28Z</time>
      </trkpt>
      <trkpt lat="46.13875" lon="6.59236">
        <ele>1424.33</ele>
        <time>2014-06-09T12:28:46Z</time>
      </trkpt>
      <trkpt lat="46.13856" lon="6.59261">
        <ele>1420</ele>
        <time>2014-06-09T12:29:05Z</time>
      </trkpt>
      <trkpt lat="46.13836" lon="6.59278">
        <ele>1416.64</ele>
        <time>2014-06-09T12:29:24Z</time>
      </trkpt>
      <trkpt lat="46.13817" lon="6.59291">
        <ele>1411.83</ele>
        <time>2014-06-09T12:29:40Z</time>
      </trkpt>
      <trkpt lat="46.13798" lon="6.59315">
        <ele>1406.07</ele>
        <time>2014-06-09T12:29:59Z</time>
      </trkpt>
      <trkpt lat="46.13787" lon="6.5933">
        <ele>1406.07</ele>
        <time>2014-06-09T12:30:17Z</time>
      </trkpt>
      <trkpt lat="46.1378" lon="6.59337">
        <ele>1404.62</ele>
        <time>2014-06-09T12:30:37Z</time>
      </trkpt>
      <trkpt lat="46.13761" lon="6.59351">
        <ele>1400.78</ele>
        <time>2014-06-09T12:30:55Z</time>
      </trkpt>
      <trkpt lat="46.1376" lon="6.59353">
        <ele>1400.3</ele>
        <time>2014-06-09T12:30:56Z</time>
      </trkpt>
      <trkpt lat="46.13759" lon="6.59354">
        <ele>1400.3</ele>
        <time>2014-06-09T12:30:57Z</time>
      </trkpt>
      <trkpt lat="46.13758" lon="6.59355">
        <ele>1399.82</ele>
        <time>2014-06-09T12:30:58Z</time>
      </trkpt>
      <trkpt lat="46.13757" lon="6.59356">
        <ele>1399.82</ele>
        <time>2014-06-09T12:30:59Z</time>
      </trkpt>
      <trkpt lat="46.13738" lon="6.5937">
        <ele>1396.93</ele>
        <time>2014-06-09T12:31:18Z</time>
      </trkpt>
      <trkpt lat="46.13736" lon="6.5937">
        <ele>1396.45</ele>
        <time>2014-06-09T12:31:19Z</time>
      </trkpt>
      <trkpt lat="46.13729" lon="6.59364">
        <ele>1393.57</ele>
        <time>2014-06-09T12:31:32Z</time>
      </trkpt>
      <trkpt lat="46.13726" lon="6.59366">
        <ele>1393.57</ele>
        <time>2014-06-09T12:31:49Z</time>
      </trkpt>
      <trkpt lat="46.13725" lon="6.59369">
        <ele>1393.57</ele>
        <time>2014-06-09T12:32:19Z</time>
      </trkpt>
      <trkpt lat="46.13727" lon="6.59369">
        <ele>1393.57</ele>
        <time>2014-06-09T12:32:30Z</time>
      </trkpt>
      <trkpt lat="46.13735" lon="6.59382">
        <ele>1395.49</ele>
        <time>2014-06-09T12:32:41Z</time>
      </trkpt>
      <trkpt lat="46.13734" lon="6.59383">
        <ele>1395.49</ele>
        <time>2014-06-09T12:32:42Z</time>
      </trkpt>
      <trkpt lat="46.13721" lon="6.59401">
        <ele>1395.49</ele>
        <time>2014-06-09T12:32:58Z</time>
      </trkpt>
      <trkpt lat="46.13706" lon="6.59423">
        <ele>1391.17</ele>
        <time>2014-06-09T12:33:15Z</time>
      </trkpt>
      <trkpt lat="46.137" lon="6.5944">
        <ele>1388.28</ele>
        <time>2014-06-09T12:33:25Z</time>
      </trkpt>
      <trkpt lat="46.137" lon="6.59442">
        <ele>1388.28</ele>
        <time>2014-06-09T12:33:26Z</time>
      </trkpt>
      <trkpt lat="46.13699" lon="6.59443">
        <ele>1387.8</ele>
        <time>2014-06-09T12:33:27Z</time>
      </trkpt>
      <trkpt lat="46.13699" lon="6.59445">
        <ele>1387.8</ele>
        <time>2014-06-09T12:33:28Z</time>
      </trkpt>
      <trkpt lat="46.13698" lon="6.59446">
        <ele>1387.32</ele>
        <time>2014-06-09T12:33:29Z</time>
      </trkpt>
      <trkpt lat="46.13697" lon="6.59448">
        <ele>1386.84</ele>
        <time>2014-06-09T12:33:30Z</time>
      </trkpt>
      <trkpt lat="46.13682" lon="6.5947">
        <ele>1382.99</ele>
        <time>2014-06-09T12:33:50Z</time>
      </trkpt>
      <trkpt lat="46.1368" lon="6.59473">
        <ele>1382.51</ele>
        <time>2014-06-09T12:33:53Z</time>
      </trkpt>
      <trkpt lat="46.13679" lon="6.59475">
        <ele>1382.03</ele>
        <time>2014-06-09T12:33:54Z</time>
      </trkpt>
      <trkpt lat="46.13666" lon="6.59497">
        <ele>1376.75</ele>
        <time>2014-06-09T12:34:10Z</time>
      </trkpt>
      <trkpt lat="46.13657" lon="6.59519">
        <ele>1370.98</ele>
        <time>2014-06-09T12:34:25Z</time>
      </trkpt>
      <trkpt lat="46.13647" lon="6.5954">
        <ele>1364.25</ele>
        <time>2014-06-09T12:34:41Z</time>
      </trkpt>
      <trkpt lat="46.13637" lon="6.59572">
        <ele>1355.12</ele>
        <time>2014-06-09T12:35:02Z</time>
      </trkpt>
      <trkpt lat="46.13631" lon="6.59586">
        <ele>1343.58</ele>
        <time>2014-06-09T12:35:18Z</time>
      </trkpt>
      <trkpt lat="46.13622" lon="6.59611">
        <ele>1340.22</ele>
        <time>2014-06-09T12:35:32Z</time>
      </trkpt>
      <trkpt lat="46.13615" lon="6.59632">
        <ele>1342.14</ele>
        <time>2014-06-09T12:35:40Z</time>
      </trkpt>
      <trkpt lat="46.13605" lon="6.59663">
        <ele>1342.14</ele>
        <time>2014-06-09T12:35:57Z</time>
      </trkpt>
      <trkpt lat="46.13592" lon="6.59689">
        <ele>1341.18</ele>
        <time>2014-06-09T12:36:14Z</time>
      </trkpt>
      <trkpt lat="46.13581" lon="6.59714">
        <ele>1341.66</ele>
        <time>2014-06-09T12:36:30Z</time>
      </trkpt>
      <trkpt lat="46.13568" lon="6.59733">
        <ele>1337.33</ele>
        <time>2014-06-09T12:36:46Z</time>
      </trkpt>
      <trkpt lat="46.13555" lon="6.59775">
        <ele>1332.52</ele>
        <time>2014-06-09T12:37:06Z</time>
      </trkpt>
      <trkpt lat="46.13539" lon="6.59811">
        <ele>1328.2</ele>
        <time>2014-06-09T12:37:28Z</time>
      </trkpt>
      <trkpt lat="46.1352" lon="6.59847">
        <ele>1328.68</ele>
        <time>2014-06-09T12:37:49Z</time>
      </trkpt>
      <trkpt lat="46.13509" lon="6.59878">
        <ele>1325.8</ele>
        <time>2014-06-09T12:38:07Z</time>
      </trkpt>
      <trkpt lat="46.13496" lon="6.59914">
        <ele>1323.87</ele>
        <time>2014-06-09T12:38:27Z</time>
      </trkpt>
      <trkpt lat="46.13477" lon="6.59945">
        <ele>1320.03</ele>
        <time>2014-06-09T12:38:49Z</time>
      </trkpt>
      <trkpt lat="46.13468" lon="6.59949">
        <ele>1318.59</ele>
        <time>2014-06-09T12:39:07Z</time>
      </trkpt>
      <trkpt lat="46.1346" lon="6.59956">
        <ele>1318.1</ele>
        <time>2014-06-09T12:39:31Z</time>
      </trkpt>
      <trkpt lat="46.13446" lon="6.59976">
        <ele>1316.18</ele>
        <time>2014-06-09T12:39:47Z</time>
      </trkpt>
      <trkpt lat="46.13437" lon="6.5999">
        <ele>1313.78</ele>
        <time>2014-06-09T12:40:04Z</time>
      </trkpt>
      <trkpt lat="46.13438" lon="6.59994">
        <ele>1312.34</ele>
        <time>2014-06-09T12:40:28Z</time>
      </trkpt>
      <trkpt lat="46.13435" lon="6.60001">
        <ele>1312.82</ele>
        <time>2014-06-09T12:40:42Z</time>
      </trkpt>
      <trkpt lat="46.13417" lon="6.60022">
        <ele>1310.9</ele>
        <time>2014-06-09T12:41:00Z</time>
      </trkpt>
      <trkpt lat="46.13408" lon="6.60049">
        <ele>1308.49</ele>
        <time>2014-06-09T12:41:18Z</time>
      </trkpt>
      <trkpt lat="46.13387" lon="6.6007">
        <ele>1305.61</ele>
        <time>2014-06-09T12:41:36Z</time>
      </trkpt>
      <trkpt lat="46.13364" lon="6.60103">
        <ele>1301.76</ele>
        <time>2014-06-09T12:41:59Z</time>
      </trkpt>
      <trkpt lat="46.13342" lon="6.60124">
        <ele>1300.8</ele>
        <time>2014-06-09T12:42:16Z</time>
      </trkpt>
      <trkpt lat="46.13321" lon="6.60133">
        <ele>1300.8</ele>
        <time>2014-06-09T12:42:31Z</time>
      </trkpt>
      <trkpt lat="46.13292" lon="6.60159">
        <ele>1306.09</ele>
        <time>2014-06-09T12:42:53Z</time>
      </trkpt>
      <trkpt lat="46.1329" lon="6.6016">
        <ele>1306.09</ele>
        <time>2014-06-09T12:42:54Z</time>
      </trkpt>
      <trkpt lat="46.13272" lon="6.60175">
        <ele>1303.2</ele>
        <time>2014-06-09T12:43:10Z</time>
      </trkpt>
      <trkpt lat="46.1326" lon="6.60186">
        <ele>1297.92</ele>
        <time>2014-06-09T12:43:25Z</time>
      </trkpt>
      <trkpt lat="46.13248" lon="6.60206">
        <ele>1293.59</ele>
        <time>2014-06-09T12:43:44Z</time>
      </trkpt>
      <trkpt lat="46.13239" lon="6.6021">
        <ele>1289.75</ele>
        <time>2014-06-09T12:43:54Z</time>
      </trkpt>
      <trkpt lat="46.13219" lon="6.60218">
        <ele>1283.02</ele>
        <time>2014-06-09T12:44:09Z</time>
      </trkpt>
      <trkpt lat="46.132" lon="6.6023">
        <ele>1273.88</ele>
        <time>2014-06-09T12:44:27Z</time>
      </trkpt>
      <trkpt lat="46.13184" lon="6.60265">
        <ele>1268.12</ele>
        <time>2014-06-09T12:44:47Z</time>
      </trkpt>
      <trkpt lat="46.13167" lon="6.60277">
        <ele>1257.06</ele>
        <time>2014-06-09T12:45:08Z</time>
      </trkpt>
      <trkpt lat="46.13142" lon="6.60286">
        <ele>1252.25</ele>
        <time>2014-06-09T12:45:29Z</time>
      </trkpt>
      <trkpt lat="46.13127" lon="6.60288">
        <ele>1249.37</ele>
        <time>2014-06-09T12:45:45Z</time>
      </trkpt>
      <trkpt lat="46.13113" lon="6.60294">
        <ele>1248.89</ele>
        <time>2014-06-09T12:46:00Z</time>
      </trkpt>
      <trkpt lat="46.13099" lon="6.60314">
        <ele>1251.77</ele>
        <time>2014-06-09T12:46:14Z</time>
      </trkpt>
      <trkpt lat="46.13088" lon="6.60329">
        <ele>1249.37</ele>
        <time>2014-06-09T12:46:29Z</time>
      </trkpt>
      <trkpt lat="46.13069" lon="6.60339">
        <ele>1247.93</ele>
        <time>2014-06-09T12:46:44Z</time>
      </trkpt>
      <trkpt lat="46.13043" lon="6.6033">
        <ele>1245.04</ele>
        <time>2014-06-09T12:47:02Z</time>
      </trkpt>
      <trkpt lat="46.13016" lon="6.60326">
        <ele>1237.83</ele>
        <time>2014-06-09T12:47:21Z</time>
      </trkpt>
      <trkpt lat="46.12994" lon="6.60331">
        <ele>1233.03</ele>
        <time>2014-06-09T12:47:39Z</time>
      </trkpt>
      <trkpt lat="46.12978" lon="6.60334">
        <ele>1221.01</ele>
        <time>2014-06-09T12:48:02Z</time>
      </trkpt>
      <trkpt lat="46.12954" lon="6.60343">
        <ele>1219.57</ele>
        <time>2014-06-09T12:48:20Z</time>
      </trkpt>
      <trkpt lat="46.1293" lon="6.60352">
        <ele>1217.17</ele>
        <time>2014-06-09T12:48:35Z</time>
      </trkpt>
      <trkpt lat="46.12909" lon="6.6035">
        <ele>1212.36</ele>
        <time>2014-06-09T12:48:55Z</time>
      </trkpt>
      <trkpt lat="46.12893" lon="6.60356">
        <ele>1205.15</ele>
        <time>2014-06-09T12:49:15Z</time>
      </trkpt>
      <trkpt lat="46.12922" lon="6.60379">
        <ele>1198.9</ele>
        <time>2014-06-09T12:49:35Z</time>
      </trkpt>
      <trkpt lat="46.12949" lon="6.60401">
        <ele>1194.09</ele>
        <time>2014-06-09T12:49:55Z</time>
      </trkpt>
      <trkpt lat="46.12972" lon="6.60423">
        <ele>1191.69</ele>
        <time>2014-06-09T12:50:14Z</time>
      </trkpt>
      <trkpt lat="46.12956" lon="6.60435">
        <ele>1190.73</ele>
        <time>2014-06-09T12:50:27Z</time>
      </trkpt>
      <trkpt lat="46.12946" lon="6.60432">
        <ele>1187.37</ele>
        <time>2014-06-09T12:50:38Z</time>
      </trkpt>
      <trkpt lat="46.1292" lon="6.60432">
        <ele>1178.23</ele>
        <time>2014-06-09T12:50:53Z</time>
      </trkpt>
      <trkpt lat="46.12902" lon="6.60437">
        <ele>1170.06</ele>
        <time>2014-06-09T12:51:09Z</time>
      </trkpt>
      <trkpt lat="46.12879" lon="6.60441">
        <ele>1160.93</ele>
        <time>2014-06-09T12:51:27Z</time>
      </trkpt>
      <trkpt lat="46.12857" lon="6.60448">
        <ele>1152.28</ele>
        <time>2014-06-09T12:51:47Z</time>
      </trkpt>
      <trkpt lat="46.12834" lon="6.60447">
        <ele>1145.07</ele>
        <time>2014-06-09T12:52:07Z</time>
      </trkpt>
      <trkpt lat="46.12807" lon="6.60449">
        <ele>1139.3</ele>
        <time>2014-06-09T12:52:25Z</time>
      </trkpt>
      <trkpt lat="46.12799" lon="6.60452">
        <ele>1138.82</ele>
        <time>2014-06-09T12:52:28Z</time>
      </trkpt>
      <trkpt lat="46.12797" lon="6.60452">
        <ele>1137.86</ele>
        <time>2014-06-09T12:52:29Z</time>
      </trkpt>
      <trkpt lat="46.12796" lon="6.60452">
        <ele>1137.38</ele>
        <time>2014-06-09T12:52:30Z</time>
      </trkpt>
      <trkpt lat="46.12769" lon="6.60449">
        <ele>1131.13</ele>
        <time>2014-06-09T12:52:47Z</time>
      </trkpt>
      <trkpt lat="46.12742" lon="6.60454">
        <ele>1130.17</ele>
        <time>2014-06-09T12:53:02Z</time>
      </trkpt>
      <trkpt lat="46.12715" lon="6.60456">
        <ele>1127.28</ele>
        <time>2014-06-09T12:53:21Z</time>
      </trkpt>
      <trkpt lat="46.12686" lon="6.60451">
        <ele>1122.48</ele>
        <time>2014-06-09T12:53:42Z</time>
      </trkpt>
      <trkpt lat="46.12664" lon="6.60449">
        <ele>1115.75</ele>
        <time>2014-06-09T12:54:01Z</time>
      </trkpt>
      <trkpt lat="46.12648" lon="6.60449">
        <ele>1109.98</ele>
        <time>2014-06-09T12:54:17Z</time>
      </trkpt>
      <trkpt lat="46.12631" lon="6.60448">
        <ele>1105.17</ele>
        <time>2014-06-09T12:54:33Z</time>
      </trkpt>
      <trkpt lat="46.12614" lon="6.6046">
        <ele>1108.06</ele>
        <time>2014-06-09T12:54:45Z</time>
      </trkpt>
      <trkpt lat="46.12607" lon="6.60465">
        <ele>1108.54</ele>
        <time>2014-06-09T12:54:52Z</time>
      </trkpt>
      <trkpt lat="46.12578" lon="6.60467">
        <ele>1106.61</ele>
        <time>2014-06-09T12:55:10Z</time>
      </trkpt>
      <trkpt lat="46.12557" lon="6.60482">
        <ele>1101.33</ele>
        <time>2014-06-09T12:55:28Z</time>
      </trkpt>
      <trkpt lat="46.12529" lon="6.60487">
        <ele>1091.71</ele>
        <time>2014-06-09T12:55:46Z</time>
      </trkpt>
      <trkpt lat="46.12508" lon="6.60494">
        <ele>1083.54</ele>
        <time>2014-06-09T12:56:05Z</time>
      </trkpt>
      <trkpt lat="46.12493" lon="6.60488">
        <ele>1076.81</ele>
        <time>2014-06-09T12:56:17Z</time>
      </trkpt>
      <trkpt lat="46.12473" lon="6.60474">
        <ele>1065.28</ele>
        <time>2014-06-09T12:56:33Z</time>
      </trkpt>
      <trkpt lat="46.1245" lon="6.60463">
        <ele>1055.18</ele>
        <time>2014-06-09T12:56:51Z</time>
      </trkpt>
      <trkpt lat="46.12433" lon="6.60439">
        <ele>1050.38</ele>
        <time>2014-06-09T12:57:07Z</time>
      </trkpt>
      <trkpt lat="46.12414" lon="6.6042">
        <ele>1047.49</ele>
        <time>2014-06-09T12:57:23Z</time>
      </trkpt>
      <trkpt lat="46.12396" lon="6.60406">
        <ele>1044.13</ele>
        <time>2014-06-09T12:57:39Z</time>
      </trkpt>
      <trkpt lat="46.12373" lon="6.60381">
        <ele>1037.88</ele>
        <time>2014-06-09T12:57:58Z</time>
      </trkpt>
      <trkpt lat="46.12346" lon="6.60371">
        <ele>1028.75</ele>
        <time>2014-06-09T12:58:15Z</time>
      </trkpt>
      <trkpt lat="46.12327" lon="6.6036">
        <ele>1019.13</ele>
        <time>2014-06-09T12:58:34Z</time>
      </trkpt>
      <trkpt lat="46.12311" lon="6.60349">
        <ele>1016.25</ele>
        <time>2014-06-09T12:58:50Z</time>
      </trkpt>
      <trkpt lat="46.12297" lon="6.60333">
        <ele>1016.25</ele>
        <time>2014-06-09T12:59:03Z</time>
      </trkpt>
      <trkpt lat="46.12294" lon="6.6033">
        <ele>1018.17</ele>
        <time>2014-06-09T12:59:08Z</time>
      </trkpt>
      <trkpt lat="46.12283" lon="6.60317">
        <ele>1018.65</ele>
        <time>2014-06-09T12:59:19Z</time>
      </trkpt>
      <trkpt lat="46.12279" lon="6.60311">
        <ele>1018.17</ele>
        <time>2014-06-09T12:59:22Z</time>
      </trkpt>
      <trkpt lat="46.12277" lon="6.60309">
        <ele>1018.17</ele>
        <time>2014-06-09T12:59:23Z</time>
      </trkpt>
      <trkpt lat="46.1226" lon="6.60276">
        <ele>1016.73</ele>
        <time>2014-06-09T12:59:39Z</time>
      </trkpt>
      <trkpt lat="46.12246" lon="6.60242">
        <ele>1014.33</ele>
        <time>2014-06-09T12:59:56Z</time>
      </trkpt>
      <trkpt lat="46.12233" lon="6.60216">
        <ele>1005.2</ele>
        <time>2014-06-09T13:00:13Z</time>
      </trkpt>
      <trkpt lat="46.12224" lon="6.60197">
        <ele>996.06</ele>
        <time>2014-06-09T13:00:30Z</time>
      </trkpt>
      <trkpt lat="46.12214" lon="6.60176">
        <ele>992.22</ele>
        <time>2014-06-09T13:00:47Z</time>
      </trkpt>
      <trkpt lat="46.12197" lon="6.60166">
        <ele>986.93</ele>
        <time>2014-06-09T13:01:03Z</time>
      </trkpt>
      <trkpt lat="46.12179" lon="6.60153">
        <ele>982.6</ele>
        <time>2014-06-09T13:01:19Z</time>
      </trkpt>
      <trkpt lat="46.12162" lon="6.6013">
        <ele>976.84</ele>
        <time>2014-06-09T13:01:35Z</time>
      </trkpt>
      <trkpt lat="46.12146" lon="6.60107">
        <ele>968.67</ele>
        <time>2014-06-09T13:01:52Z</time>
      </trkpt>
      <trkpt lat="46.12132" lon="6.60085">
        <ele>960.49</ele>
        <time>2014-06-09T13:02:11Z</time>
      </trkpt>
      <trkpt lat="46.12116" lon="6.6005">
        <ele>949.92</ele>
        <time>2014-06-09T13:02:30Z</time>
      </trkpt>
      <trkpt lat="46.12109" lon="6.60017">
        <ele>948</ele>
        <time>2014-06-09T13:02:47Z</time>
      </trkpt>
      <trkpt lat="46.12102" lon="6.59996">
        <ele>947.04</ele>
        <time>2014-06-09T13:03:04Z</time>
      </trkpt>
      <trkpt lat="46.12078" lon="6.59963">
        <ele>950.4</ele>
        <time>2014-06-09T13:03:22Z</time>
      </trkpt>
      <trkpt lat="46.12061" lon="6.59946">
        <ele>946.07</ele>
        <time>2014-06-09T13:03:40Z</time>
      </trkpt>
      <trkpt lat="46.12035" lon="6.59923">
        <ele>938.86</ele>
        <time>2014-06-09T13:03:59Z</time>
      </trkpt>
      <trkpt lat="46.12014" lon="6.59904">
        <ele>930.69</ele>
        <time>2014-06-09T13:04:17Z</time>
      </trkpt>
      <trkpt lat="46.11999" lon="6.59884">
        <ele>923.48</ele>
        <time>2014-06-09T13:04:34Z</time>
      </trkpt>
      <trkpt lat="46.11982" lon="6.59857">
        <ele>915.31</ele>
        <time>2014-06-09T13:04:51Z</time>
      </trkpt>
      <trkpt lat="46.11966" lon="6.59838">
        <ele>908.1</ele>
        <time>2014-06-09T13:05:03Z</time>
      </trkpt>
      <trkpt lat="46.11943" lon="6.59818">
        <ele>903.78</ele>
        <time>2014-06-09T13:05:19Z</time>
      </trkpt>
      <trkpt lat="46.11917" lon="6.5981">
        <ele>903.3</ele>
        <time>2014-06-09T13:05:35Z</time>
      </trkpt>
      <trkpt lat="46.11902" lon="6.59803">
        <ele>902.82</ele>
        <time>2014-06-09T13:05:49Z</time>
      </trkpt>
      <trkpt lat="46.11888" lon="6.59796">
        <ele>898.49</ele>
        <time>2014-06-09T13:06:04Z</time>
      </trkpt>
      <trkpt lat="46.11877" lon="6.59768">
        <ele>893.2</ele>
        <time>2014-06-09T13:06:22Z</time>
      </trkpt>
      <trkpt lat="46.11869" lon="6.59746">
        <ele>889.84</ele>
        <time>2014-06-09T13:06:32Z</time>
      </trkpt>
      <trkpt lat="46.11865" lon="6.59732">
        <ele>887.91</ele>
        <time>2014-06-09T13:06:39Z</time>
      </trkpt>
      <trkpt lat="46.11864" lon="6.5973">
        <ele>886.95</ele>
        <time>2014-06-09T13:06:40Z</time>
      </trkpt>
      <trkpt lat="46.1185" lon="6.59715">
        <ele>880.71</ele>
        <time>2014-06-09T13:06:53Z</time>
      </trkpt>
      <trkpt lat="46.11832" lon="6.59703">
        <ele>877.34</ele>
        <time>2014-06-09T13:07:06Z</time>
      </trkpt>
      <trkpt lat="46.11824" lon="6.59693">
        <ele>876.38</ele>
        <time>2014-06-09T13:07:13Z</time>
      </trkpt>
      <trkpt lat="46.11823" lon="6.59691">
        <ele>876.38</ele>
        <time>2014-06-09T13:07:14Z</time>
      </trkpt>
      <trkpt lat="46.11819" lon="6.59684">
        <ele>875.42</ele>
        <time>2014-06-09T13:07:19Z</time>
      </trkpt>
      <trkpt lat="46.11818" lon="6.59683">
        <ele>875.42</ele>
        <time>2014-06-09T13:07:20Z</time>
      </trkpt>
      <trkpt lat="46.11807" lon="6.59671">
        <ele>874.94</ele>
        <time>2014-06-09T13:07:31Z</time>
      </trkpt>
      <trkpt lat="46.1179" lon="6.59656">
        <ele>874.46</ele>
        <time>2014-06-09T13:07:46Z</time>
      </trkpt>
      <trkpt lat="46.11771" lon="6.59648">
        <ele>871.57</ele>
        <time>2014-06-09T13:08:03Z</time>
      </trkpt>
      <trkpt lat="46.11764" lon="6.59635">
        <ele>866.77</ele>
        <time>2014-06-09T13:08:11Z</time>
      </trkpt>
      <trkpt lat="46.11763" lon="6.59633">
        <ele>865.8</ele>
        <time>2014-06-09T13:08:12Z</time>
      </trkpt>
      <trkpt lat="46.11758" lon="6.59597">
        <ele>858.11</ele>
        <time>2014-06-09T13:08:29Z</time>
      </trkpt>
      <trkpt lat="46.11755" lon="6.59566">
        <ele>853.79</ele>
        <time>2014-06-09T13:08:46Z</time>
      </trkpt>
      <trkpt lat="46.11749" lon="6.59549">
        <ele>850.9</ele>
        <time>2014-06-09T13:08:55Z</time>
      </trkpt>
      <trkpt lat="46.11744" lon="6.59545">
        <ele>849.46</ele>
        <time>2014-06-09T13:08:58Z</time>
      </trkpt>
      <trkpt lat="46.11742" lon="6.59544">
        <ele>848.98</ele>
        <time>2014-06-09T13:08:59Z</time>
      </trkpt>
      <trkpt lat="46.11718" lon="6.59533">
        <ele>844.18</ele>
        <time>2014-06-09T13:09:18Z</time>
      </trkpt>
      <trkpt lat="46.11714" lon="6.59537">
        <ele>843.69</ele>
        <time>2014-06-09T13:09:22Z</time>
      </trkpt>
      <trkpt lat="46.11712" lon="6.59539">
        <ele>843.69</ele>
        <time>2014-06-09T13:09:24Z</time>
      </trkpt>
      <trkpt lat="46.1171" lon="6.59541">
        <ele>842.73</ele>
        <time>2014-06-09T13:09:25Z</time>
      </trkpt>
      <trkpt lat="46.1171" lon="6.59541">
        <ele>841.29</ele>
        <time>2014-06-09T13:09:26Z</time>
      </trkpt>
      <trkpt lat="46.11709" lon="6.59542">
        <ele>840.81</ele>
        <time>2014-06-09T13:09:27Z</time>
      </trkpt>
      <trkpt lat="46.11707" lon="6.59542">
        <ele>840.81</ele>
        <time>2014-06-09T13:09:28Z</time>
      </trkpt>
      <trkpt lat="46.11707" lon="6.59542">
        <ele>838.89</ele>
        <time>2014-06-09T13:09:32Z</time>
      </trkpt>
      <trkpt lat="46.11712" lon="6.59534">
        <ele>839.85</ele>
        <time>2014-06-09T13:09:42Z</time>
      </trkpt>
      <trkpt lat="46.11708" lon="6.59535">
        <ele>835.04</ele>
        <time>2014-06-09T13:09:53Z</time>
      </trkpt>
      <trkpt lat="46.11707" lon="6.59536">
        <ele>835.04</ele>
        <time>2014-06-09T13:09:54Z</time>
      </trkpt>
      <trkpt lat="46.1171" lon="6.59538">
        <ele>836</ele>
        <time>2014-06-09T13:10:01Z</time>
      </trkpt>
      <trkpt lat="46.11715" lon="6.59539">
        <ele>836</ele>
        <time>2014-06-09T13:10:10Z</time>
      </trkpt>
      <trkpt lat="46.11713" lon="6.5954">
        <ele>835.52</ele>
        <time>2014-06-09T13:10:11Z</time>
      </trkpt>
      <trkpt lat="46.11713" lon="6.59541">
        <ele>834.56</ele>
        <time>2014-06-09T13:10:12Z</time>
      </trkpt>
      <trkpt lat="46.11712" lon="6.59542">
        <ele>834.08</ele>
        <time>2014-06-09T13:10:13Z</time>
      </trkpt>
      <trkpt lat="46.11711" lon="6.59543">
        <ele>833.6</ele>
        <time>2014-06-09T13:10:14Z</time>
      </trkpt>
      <trkpt lat="46.11684" lon="6.59544">
        <ele>825.43</ele>
        <time>2014-06-09T13:10:35Z</time>
      </trkpt>
      <trkpt lat="46.11668" lon="6.5953">
        <ele>813.41</ele>
        <time>2014-06-09T13:10:51Z</time>
      </trkpt>
      <trkpt lat="46.11648" lon="6.59524">
        <ele>808.13</ele>
        <time>2014-06-09T13:11:06Z</time>
      </trkpt>
      <trkpt lat="46.11646" lon="6.59525">
        <ele>808.61</ele>
        <time>2014-06-09T13:11:07Z</time>
      </trkpt>
      <trkpt lat="46.11625" lon="6.59531">
        <ele>811.01</ele>
        <time>2014-06-09T13:11:22Z</time>
      </trkpt>
      <trkpt lat="46.11623" lon="6.59532">
        <ele>810.53</ele>
        <time>2014-06-09T13:11:23Z</time>
      </trkpt>
      <trkpt lat="46.11622" lon="6.59533">
        <ele>810.53</ele>
        <time>2014-06-09T13:11:24Z</time>
      </trkpt>
      <trkpt lat="46.11609" lon="6.59537">
        <ele>808.61</ele>
        <time>2014-06-09T13:11:33Z</time>
      </trkpt>
      <trkpt lat="46.11582" lon="6.59533">
        <ele>805.24</ele>
        <time>2014-06-09T13:11:51Z</time>
      </trkpt>
      <trkpt lat="46.11552" lon="6.59545">
        <ele>802.84</ele>
        <time>2014-06-09T13:12:11Z</time>
      </trkpt>
      <trkpt lat="46.11544" lon="6.59548">
        <ele>803.32</ele>
        <time>2014-06-09T13:12:17Z</time>
      </trkpt>
      <trkpt lat="46.11543" lon="6.59549">
        <ele>803.32</ele>
        <time>2014-06-09T13:12:18Z</time>
      </trkpt>
      <trkpt lat="46.11531" lon="6.59546">
        <ele>802.36</ele>
        <time>2014-06-09T13:12:26Z</time>
      </trkpt>
      <trkpt lat="46.11529" lon="6.59545">
        <ele>802.36</ele>
        <time>2014-06-09T13:12:27Z</time>
      </trkpt>
      <trkpt lat="46.11504" lon="6.59526">
        <ele>800.44</ele>
        <time>2014-06-09T13:12:46Z</time>
      </trkpt>
      <trkpt lat="46.11504" lon="6.59524">
        <ele>799.95</ele>
        <time>2014-06-09T13:12:47Z</time>
      </trkpt>
      <trkpt lat="46.11503" lon="6.59523">
        <ele>799.95</ele>
        <time>2014-06-09T13:12:48Z</time>
      </trkpt>
      <trkpt lat="46.11496" lon="6.59514">
        <ele>798.51</ele>
        <time>2014-06-09T13:12:54Z</time>
      </trkpt>
      <trkpt lat="46.11494" lon="6.59512">
        <ele>798.51</ele>
        <time>2014-06-09T13:12:55Z</time>
      </trkpt>
      <trkpt lat="46.11493" lon="6.5951">
        <ele>798.03</ele>
        <time>2014-06-09T13:12:56Z</time>
      </trkpt>
      <trkpt lat="46.11484" lon="6.59483">
        <ele>790.34</ele>
        <time>2014-06-09T13:13:12Z</time>
      </trkpt>
      <trkpt lat="46.11479" lon="6.59466">
        <ele>782.17</ele>
        <time>2014-06-09T13:13:26Z</time>
      </trkpt>
      <trkpt lat="46.11484" lon="6.59464">
        <ele>763.9</ele>
        <time>2014-06-09T13:14:00Z</time>
      </trkpt>
      <trkpt lat="46.11467" lon="6.59454">
        <ele>763.42</ele>
        <time>2014-06-09T13:14:17Z</time>
      </trkpt>
      <trkpt lat="46.11449" lon="6.59439">
        <ele>761.5</ele>
        <time>2014-06-09T13:14:32Z</time>
      </trkpt>
      <trkpt lat="46.11435" lon="6.59419">
        <ele>758.14</ele>
        <time>2014-06-09T13:14:50Z</time>
      </trkpt>
      <trkpt lat="46.11416" lon="6.59397">
        <ele>747.08</ele>
        <time>2014-06-09T13:15:10Z</time>
      </trkpt>
      <trkpt lat="46.11399" lon="6.59368">
        <ele>736.51</ele>
        <time>2014-06-09T13:15:30Z</time>
      </trkpt>
      <trkpt lat="46.11387" lon="6.59349">
        <ele>722.09</ele>
        <time>2014-06-09T13:15:47Z</time>
      </trkpt>
      <trkpt lat="46.11368" lon="6.5933">
        <ele>725.45</ele>
        <time>2014-06-09T13:16:02Z</time>
      </trkpt>
      <trkpt lat="46.11366" lon="6.59328">
        <ele>726.41</ele>
        <time>2014-06-09T13:16:03Z</time>
      </trkpt>
      <trkpt lat="46.11343" lon="6.59318">
        <ele>726.41</ele>
        <time>2014-06-09T13:16:19Z</time>
      </trkpt>
      <trkpt lat="46.11319" lon="6.59316">
        <ele>725.45</ele>
        <time>2014-06-09T13:16:34Z</time>
      </trkpt>
      <trkpt lat="46.11306" lon="6.59296">
        <ele>718.72</ele>
        <time>2014-06-09T13:16:49Z</time>
      </trkpt>
      <trkpt lat="46.1129" lon="6.59262">
        <ele>711.03</ele>
        <time>2014-06-09T13:17:07Z</time>
      </trkpt>
      <trkpt lat="46.11272" lon="6.59239">
        <ele>708.63</ele>
        <time>2014-06-09T13:17:23Z</time>
      </trkpt>
      <trkpt lat="46.1125" lon="6.59231">
        <ele>710.07</ele>
        <time>2014-06-09T13:17:38Z</time>
      </trkpt>
      <trkpt lat="46.11222" lon="6.59211">
        <ele>704.78</ele>
        <time>2014-06-09T13:17:57Z</time>
      </trkpt>
      <trkpt lat="46.11198" lon="6.59201">
        <ele>698.05</ele>
        <time>2014-06-09T13:18:14Z</time>
      </trkpt>
      <trkpt lat="46.11169" lon="6.59197">
        <ele>691.81</ele>
        <time>2014-06-09T13:18:34Z</time>
      </trkpt>
      <trkpt lat="46.1114" lon="6.59198">
        <ele>685.08</ele>
        <time>2014-06-09T13:18:54Z</time>
      </trkpt>
      <trkpt lat="46.11117" lon="6.59189">
        <ele>681.23</ele>
        <time>2014-06-09T13:19:11Z</time>
      </trkpt>
      <trkpt lat="46.11092" lon="6.59165">
        <ele>675.94</ele>
        <time>2014-06-09T13:19:33Z</time>
      </trkpt>
      <trkpt lat="46.11074" lon="6.59138">
        <ele>673.54</ele>
        <time>2014-06-09T13:19:51Z</time>
      </trkpt>
      <trkpt lat="46.11056" lon="6.5911">
        <ele>672.1</ele>
        <time>2014-06-09T13:20:09Z</time>
      </trkpt>
      <trkpt lat="46.11039" lon="6.59101">
        <ele>672.1</ele>
        <time>2014-06-09T13:20:24Z</time>
      </trkpt>
      <trkpt lat="46.11037" lon="6.59104">
        <ele>671.14</ele>
        <time>2014-06-09T13:20:26Z</time>
      </trkpt>
      <trkpt lat="46.11036" lon="6.59105">
        <ele>671.14</ele>
        <time>2014-06-09T13:20:27Z</time>
      </trkpt>
      <trkpt lat="46.11034" lon="6.59106">
        <ele>670.66</ele>
        <time>2014-06-09T13:20:28Z</time>
      </trkpt>
      <trkpt lat="46.11033" lon="6.59107">
        <ele>670.66</ele>
        <time>2014-06-09T13:20:29Z</time>
      </trkpt>
      <trkpt lat="46.11031" lon="6.59108">
        <ele>670.66</ele>
        <time>2014-06-09T13:20:30Z</time>
      </trkpt>
      <trkpt lat="46.11008" lon="6.59115">
        <ele>665.37</ele>
        <time>2014-06-09T13:20:48Z</time>
      </trkpt>
      <trkpt lat="46.10986" lon="6.59121">
        <ele>660.56</ele>
        <time>2014-06-09T13:21:05Z</time>
      </trkpt>
      <trkpt lat="46.10967" lon="6.59125">
        <ele>655.76</ele>
        <time>2014-06-09T13:21:18Z</time>
      </trkpt>
      <trkpt lat="46.10947" lon="6.59127">
        <ele>659.12</ele>
        <time>2014-06-09T13:21:34Z</time>
      </trkpt>
      <trkpt lat="46.10936" lon="6.59129">
        <ele>661.52</ele>
        <time>2014-06-09T13:21:41Z</time>
      </trkpt>
      <trkpt lat="46.10935" lon="6.59129">
        <ele>661.52</ele>
        <time>2014-06-09T13:21:42Z</time>
      </trkpt>
      <trkpt lat="46.10933" lon="6.59128">
        <ele>661.04</ele>
        <time>2014-06-09T13:21:43Z</time>
      </trkpt>
      <trkpt lat="46.10913" lon="6.59116">
        <ele>659.6</ele>
        <time>2014-06-09T13:22:00Z</time>
      </trkpt>
      <trkpt lat="46.10906" lon="6.59134">
        <ele>656.24</ele>
        <time>2014-06-09T13:22:14Z</time>
      </trkpt>
      <trkpt lat="46.10905" lon="6.59139">
        <ele>655.76</ele>
        <time>2014-06-09T13:22:17Z</time>
      </trkpt>
      <trkpt lat="46.10904" lon="6.59141">
        <ele>655.28</ele>
        <time>2014-06-09T13:22:18Z</time>
      </trkpt>
      <trkpt lat="46.10904" lon="6.59142">
        <ele>655.28</ele>
        <time>2014-06-09T13:22:19Z</time>
      </trkpt>
      <trkpt lat="46.10892" lon="6.59161">
        <ele>659.12</ele>
        <time>2014-06-09T13:22:32Z</time>
      </trkpt>
    </trkseg>
  </trk>
</gpx>